GFSSE_500_spd_000.txt.gz
Wind_Speed
24 26 27 28 29 28 30 27 23 19 16 14 13 13 13 11 12 13 14 15 15 16 19 21 20 20 19 20 20 21 23 28 32 33 36 37 31 28 34 30 29 30 28
19 23 26 28 30 27 19 19 16 13 11 11 12 13 12 13 14 16 16 15 14 13 13 13 15 17 19 20 19 20 23 23 25 36 34 35 38 29 30 32 34 35 35
25 26 27 23 16 14 13 12 10 9 9 10 11 13 14 15 15 14 13 13 13 14 16 17 18 16 14 15 16 19 22 21 22 26 33 34 34 33 34 33 36 36 38
25 24 17 11 11 11 12 10 8 8 8 10 10 12 13 12 13 12 11 11 11 12 14 14 15 15 15 16 17 19 18 16 17 18 22 30 36 36 34 34 35 36 42
15 11 8 8 10 9 7 5 4 5 7 8 9 9 10 10 10 10 9 9 9 11 12 13 14 14 13 13 14 15 14 10 10 13 17 26 34 27 33 35 29 36 36
7 4 5 6 5 1 2 4 4 5 5 5 6 7 7 8 10 10 12 12 12 13 14 14 14 12 10 11 12 13 12 11 10 11 16 23 26 27 26 25 20 32 31
1 1 1 2 2 4 6 7 6 5 5 5 5 6 7 9 10 10 11 12 12 13 14 15 15 15 14 12 12 12 12 12 10 11 16 14 17 26 12 9 15 21 32
3 5 6 3 1 2 4 5 6 7 7 9 10 10 11 11 13 13 13 13 13 13 13 13 14 15 16 17 18 16 15 14 14 14 19 18 16 19 19 8 16 22 28
8 7 5 2 3 4 6 8 9 10 11 13 14 15 16 16 16 17 17 17 18 18 18 17 18 19 19 19 19 19 20 19 19 19 21 20 21 19 17 13 14 23 20
6 4 2 2 4 7 9 9 10 13 14 16 17 18 18 20 20 22 22 21 22 24 25 25 25 25 24 24 22 20 21 21 21 19 21 24 21 22 21 18 20 20 18
3 4 6 8 10 11 13 15 16 16 16 18 20 22 23 25 26 24 28 27 26 28 27 27 28 27 27 28 27 26 24 22 23 25 20 27 25 24 25 25 25 24 24
6 7 9 10 12 13 15 17 19 21 22 23 24 26 28 29 29 30 27 28 29 30 30 30 29 30 28 28 27 27 29 28 27 26 24 28 30 27 25 26 27 27 26
8 9 11 12 14 16 20 21 23 23 25 27 28 30 31 31 30 30 30 31 32 32 34 35 36 34 33 34 33 33 31 31 30 29 26 29 32 31 31 29 30 30 29
8 9 11 15 17 20 22 25 26 27 29 31 31 32 33 34 34 35 36 39 41 42 41 40 37 36 35 34 34 35 35 36 36 35 32 29 32 33 34 34 34 35 34
13 15 16 19 20 24 25 28 31 33 34 35 34 35 37 38 38 38 40 43 42 41 42 40 37 37 36 35 34 35 35 34 36 37 37 34 36 37 37 38 39 38 39
18 20 22 25 21 24 27 31 33 36 38 38 38 38 38 40 41 42 45 45 43 42 40 37 38 38 39 39 37 35 35 37 37 36 40 38 37 40 42 41 42 42 42
17 21 28 13 24 28 28 32 35 37 39 41 42 43 43 45 45 45 46 43 41 40 40 42 41 40 40 40 40 42 42 38 39 41 40 43 41 41 42 44 42 42 43
23 28 32 12 29 32 35 37 38 40 42 44 45 48 47 47 44 45 45 45 44 44 47 48 49 49 50 51 50 50 48 48 47 45 46 47 49 45 45 47 48 48 45
24 25 38 44 39 37 38 43 43 45 46 47 49 53 52 53 50 50 50 49 48 50 53 54 55 55 56 56 57 58 59 61 60 58 55 53 51 54 55 50 51 54 54
31 31 38 45 43 39 45 40 49 50 49 50 52 56 53 54 52 53 53 55 56 59 60 61 62 62 62 63 63 62 63 63 65 68 70 67 64 62 60 61 60 57 57
36 37 43 44 42 40 49 51 50 51 51 55 57 56 56 56 54 57 59 60 62 65 67 67 66 66 67 68 69 69 69 69 71 69 70 74 75 72 73 70 67 69 65
36 42 43 43 45 51 51 53 52 52 55 56 57 57 56 53 53 55 60 65 68 65 68 72 76 76 74 73 74 74 74 73 72 72 73 74 74 78 77 79 79 77 75
41 43 46 49 49 49 52 54 55 56 55 55 55 57 62 59 58 59 64 70 76 73 73 78 77 77 78 77 76 77 78 77 75 72 70 69 70 67 65 64 76 82 82
42 45 47 48 48 50 52 55 55 55 58 59 61 62 63 64 65 68 73 77 76 76 76 77 79 79 80 78 78 78 78 78 77 80 74 70 68 70 73 57 59 62 69
42 43 45 46 49 50 50 52 54 59 59 60 62 64 66 68 71 74 75 77 78 78 78 78 79 78 79 81 81 80 80 82 83 85 83 80 76 74 73 62 60 64 62
38 41 41 46 48 49 51 52 54 57 61 64 67 70 72 76 76 76 77 78 80 81 80 83 82 82 83 85 86 86 86 86 86 89 91 87 85 81 82 78 77 68 69

GFSSE_500_spd_003.txt.gz
Wind_Speed
26 22 16 21 21 24 25 19 15 12 11 9 8 9 10 9 9 11 13 14 14 13 12 13 14 15 18 19 19 18 19 20 23 28 33 31 35 31 31 34 33 35 27
20 17 23 22 23 18 11 8 6 5 4 6 7 7 7 7 7 8 10 11 10 11 11 12 13 14 16 15 14 14 15 17 20 23 22 30 34 36 33 30 32 33 29
21 23 22 22 14 8 7 5 3 3 3 4 8 10 12 13 12 12 12 11 11 11 10 11 12 13 12 12 13 15 18 18 18 19 22 24 29 32 32 29 33 34 35
24 21 18 12 6 6 7 6 3 0 4 7 6 7 8 9 9 9 10 11 11 11 11 11 12 12 10 10 12 14 15 15 14 17 19 21 23 28 34 27 25 32 34
18 13 10 7 6 6 4 4 3 5 7 4 3 4 4 5 6 7 8 9 10 10 10 11 11 12 12 11 10 10 10 10 14 16 17 19 21 24 27 35 33 33 34
9 9 7 5 4 2 2 3 5 4 2 1 1 2 5 6 7 8 8 9 10 11 12 13 13 13 14 14 12 12 12 13 14 16 16 15 19 20 26 32 33 21 29
9 8 7 4 4 4 4 3 2 2 1 3 6 7 9 10 12 12 12 12 12 13 13 14 13 14 14 16 16 17 17 18 18 19 16 14 15 18 13 19 17 28 12
10 8 7 4 2 2 2 3 4 6 7 8 10 11 13 13 15 15 16 16 17 18 18 18 18 17 18 18 18 19 21 21 22 22 19 18 17 19 17 12 17 16 12
8 6 5 3 1 3 6 8 9 10 11 12 12 13 15 16 19 20 21 22 22 22 22 23 24 24 25 24 21 21 22 22 25 24 22 19 22 19 19 16 13 11 13
8 5 1 3 5 6 8 9 11 13 14 16 15 15 18 19 23 24 24 23 23 23 24 24 23 23 23 24 23 23 24 25 27 26 24 26 23 21 20 21 20 15 15
4 2 4 6 7 9 11 12 15 17 18 22 22 22 24 24 26 27 27 25 24 23 24 25 24 25 27 25 24 23 24 24 27 28 28 28 28 25 24 24 24 20 19
3 3 6 6 8 12 11 13 15 18 20 23 24 26 27 26 26 26 27 27 28 29 31 34 34 33 33 32 29 27 27 27 27 27 26 29 31 31 30 28 26 26 24
2 3 9 12 13 10 13 17 20 20 22 24 26 28 29 31 31 32 32 32 33 34 35 35 34 34 34 32 30 30 28 28 28 28 28 28 29 31 30 33 33 32 30
5 9 15 13 15 18 19 20 19 21 25 26 29 32 33 35 36 36 37 38 38 38 40 38 37 36 32 30 30 31 29 28 28 28 26 27 30 31 32 32 32 34 36
13 13 16 18 16 20 22 26 27 30 32 33 34 34 34 35 37 38 40 41 41 41 40 37 35 33 32 31 31 30 31 32 32 32 31 29 29 33 35 35 36 36 37
16 18 16 26 18 16 16 27 30 34 36 36 36 37 36 38 40 41 45 42 41 39 39 35 34 34 36 37 36 35 34 35 37 38 36 36 36 35 36 38 39 39 38
20 25 27 16 38 25 25 36 32 32 38 36 42 40 41 42 45 45 47 45 45 42 41 38 38 40 43 43 42 41 42 42 42 42 44 46 43 43 42 42 43 43 41
23 28 31 29 36 23 36 35 38 37 39 46 47 47 48 48 47 48 47 46 46 45 45 45 45 48 51 51 51 52 51 50 50 50 48 48 49 48 49 47 48 49 49
29 29 38 38 35 35 37 37 35 43 50 48 51 51 54 55 55 52 51 53 53 52 51 52 53 56 59 59 59 58 58 57 56 56 56 56 55 55 54 52 53 52 54
28 31 40 42 40 41 39 42 46 47 49 52 52 52 52 52 53 56 56 56 56 56 59 62 63 61 63 64 66 65 64 62 61 60 61 62 64 65 65 63 62 59 58
32 39 44 43 44 46 49 42 41 53 52 55 55 53 53 55 57 56 56 58 60 60 61 64 66 69 72 74 73 72 70 69 69 70 71 72 72 73 74 74 73 72 66
37 42 46 45 46 47 42 46 49 48 54 56 54 54 56 57 60 62 65 65 65 66 67 70 72 74 75 77 77 77 77 74 73 72 74 75 76 78 80 79 80 80 79
41 43 45 47 48 48 47 47 50 53 51 51 54 56 58 61 63 66 68 71 74 75 75 75 76 77 77 75 77 78 80 81 81 78 76 75 74 74 76 80 80 83 84
42 41 42 44 46 46 48 46 50 51 53 54 58 60 63 64 67 71 74 77 79 80 80 81 79 78 77 77 77 79 80 83 85 86 81 78 76 77 76 75 79 78 78
36 37 39 39 39 41 44 47 50 52 56 58 61 65 68 71 75 78 79 80 81 82 81 81 80 80 80 79 79 81 82 85 88 91 86 79 80 82 83 81 80 81 80
34 36 39 40 42 43 45 47 50 53 58 62 65 68 72 76 79 78 81 82 82 81 81 81 81 80 81 83 86 88 88 89 88 95 100 96 92 86 88 87 88 87 85

GFSSE_500_spd_006.txt.gz
Wind_Speed
17 19 17 13 17 21 22 18 16 15 12 8 6 7 7 8 8 9 10 9 10 11 12 13 14 16 18 20 18 17 20 20 21 22 23 25 27 27 30 28 28 35 35
17 20 18 19 19 18 15 12 9 6 4 4 1 6 9 9 10 10 11 11 11 10 11 12 13 13 12 15 16 16 16 16 19 20 21 20 22 23 25 25 31 31 32
24 22 21 18 15 13 9 9 7 6 4 5 6 8 9 10 9 8 8 8 8 8 9 10 11 13 14 12 12 14 18 20 22 24 24 20 21 24 28 25 27 28 29
25 24 18 14 12 10 10 9 8 6 5 4 4 5 5 5 6 6 6 7 8 9 9 10 10 11 13 14 14 14 14 15 17 18 18 21 21 21 22 24 23 25 22
22 20 14 11 9 9 7 4 3 5 6 4 2 1 3 5 6 7 7 9 10 11 12 14 15 14 14 15 16 15 15 15 14 15 16 17 18 21 23 21 23 25 26
18 12 11 8 6 4 2 4 5 5 3 3 3 5 6 8 8 10 11 12 13 13 14 15 16 16 16 16 16 17 18 18 17 17 17 15 17 19 21 16 21 19 21
12 10 8 4 5 5 4 4 3 2 3 5 7 8 11 12 12 13 15 17 18 18 19 19 18 18 18 17 18 20 21 21 20 20 20 19 20 20 13 18 19 19 10
11 7 6 7 5 4 3 1 3 5 7 9 11 12 13 14 14 16 17 19 21 22 23 22 23 23 24 25 26 25 25 24 23 21 20 22 23 22 22 20 19 15 13
9 8 9 7 5 4 3 6 7 9 11 11 13 14 15 18 19 21 22 24 25 26 25 24 24 24 24 24 24 25 26 27 25 25 24 23 25 23 23 22 20 17 17
10 9 8 6 6 7 9 11 11 13 14 14 16 18 20 22 24 25 27 26 24 24 24 23 24 25 25 24 25 27 25 25 24 25 27 27 26 25 25 25 22 23 21
8 8 7 8 11 12 12 13 12 14 15 18 20 20 23 25 26 27 26 25 25 25 27 28 29 32 33 31 30 31 29 28 26 24 24 26 28 29 28 28 28 25 23
7 11 11 13 14 11 10 13 15 17 18 20 21 22 22 24 26 27 27 28 28 30 31 33 34 35 36 36 33 33 31 30 29 28 27 26 26 28 29 31 31 30 28
11 15 16 15 13 12 13 16 17 20 25 23 24 25 26 27 29 29 30 30 31 34 36 36 37 36 34 34 33 30 27 28 30 28 28 28 28 26 29 30 31 32 32
10 15 17 18 16 17 18 22 22 21 24 26 27 28 29 31 32 32 32 34 35 35 36 36 36 34 32 29 28 28 31 31 32 31 29 28 29 30 29 29 31 33 33
12 17 22 20 19 19 20 27 22 27 29 26 27 28 28 35 36 38 39 40 39 38 37 36 34 32 30 28 28 31 33 34 34 35 35 33 32 32 35 34 32 32 35
13 15 17 20 20 9 27 24 33 32 29 32 31 28 36 37 38 41 43 44 42 40 39 38 36 35 33 34 34 35 36 37 39 41 43 42 42 42 40 39 39 38 37
17 19 19 21 19 24 26 28 34 33 35 35 37 41 43 45 43 44 42 41 41 41 42 44 44 42 40 39 40 42 44 45 44 45 46 47 47 46 46 46 46 45 43
25 28 32 31 24 29 31 32 36 36 40 39 38 44 50 47 47 41 41 42 44 45 45 46 48 49 50 51 51 52 52 53 52 51 51 51 53 54 51 48 48 49 51
24 30 34 30 34 39 38 39 40 40 37 37 46 49 51 52 49 48 48 48 48 48 49 52 53 55 57 57 58 59 60 60 61 62 61 58 56 57 59 58 54 53 52
28 29 30 37 41 41 44 44 42 39 38 44 48 49 52 50 50 50 51 52 54 56 56 57 59 61 64 65 65 66 67 68 69 70 71 71 68 66 64 65 65 64 61
29 33 41 41 41 49 46 40 37 40 42 47 50 49 50 51 52 55 56 59 60 61 63 65 67 69 71 73 73 73 73 72 73 75 76 76 78 78 76 73 72 72 71
37 40 42 43 45 44 36 40 43 45 47 47 46 52 55 57 58 60 63 66 68 70 72 73 74 75 77 78 78 79 79 78 78 79 80 81 81 80 80 81 80 80 80
39 40 42 43 43 44 45 45 47 45 45 48 52 55 59 61 64 67 69 72 74 76 79 81 82 82 82 82 84 85 84 85 86 83 80 80 80 80 81 81 83 82 82
38 39 42 44 45 45 45 44 44 46 48 51 54 58 61 65 69 71 74 77 81 82 84 84 84 84 84 84 86 86 87 88 88 87 85 82 81 81 80 80 81 83 84
37 39 39 40 41 43 42 43 45 47 51 54 58 62 66 69 73 76 78 80 81 82 81 80 81 83 85 86 87 88 88 88 87 88 85 82 82 81 84 84 85 86 87
42 36 36 39 39 38 41 42 44 48 53 58 62 66 70 72 76 78 82 85 87 83 81 81 81 82 83 84 85 87 87 89 90 91 93 87 88 85 87 91 93 93 94

GFSSE_500_spd_009.txt.gz
Wind_Speed
22 22 21 19 17 19 22 19 16 14 12 7 5 6 7 8 8 9 10 11 13 13 13 15 15 17 17 17 16 15 13 13 15 17 16 17 20 21 21 24 26 26 27
17 19 19 19 20 21 18 15 12 10 7 3 2 5 6 6 6 7 7 7 8 10 11 13 15 16 17 18 17 17 15 16 17 16 17 19 19 21 20 18 17 23 26
24 22 20 21 22 17 14 10 11 10 7 2 4 3 2 2 4 5 7 9 11 12 13 13 13 14 15 16 16 15 15 14 15 16 15 15 16 18 20 17 17 18 22
29 24 23 23 20 15 11 11 11 9 4 4 4 2 3 5 6 8 9 10 11 13 14 16 16 16 17 17 16 15 15 17 17 18 17 17 18 16 15 16 15 16 20
30 26 23 21 15 11 9 7 5 5 7 6 5 7 9 9 10 11 12 13 14 15 16 18 19 19 19 20 18 17 15 17 19 19 19 18 18 19 19 18 15 13 17
28 23 17 15 9 6 4 4 5 6 6 7 10 11 12 13 15 16 16 17 19 20 20 22 22 23 23 24 22 21 20 19 22 21 22 21 20 20 19 18 17 18 20
22 17 14 9 6 6 7 6 6 6 8 10 12 13 15 17 17 18 18 20 22 23 24 25 26 26 26 26 28 27 27 25 25 26 25 24 23 22 22 20 21 21 16
15 13 10 9 9 9 7 7 6 8 11 12 14 16 18 19 18 19 21 23 27 27 29 28 27 27 27 27 28 29 29 28 28 29 29 28 27 25 23 22 22 23 19
12 11 10 11 10 8 8 9 9 12 13 14 17 18 19 20 22 24 26 29 31 32 29 26 25 24 24 25 26 28 28 26 27 27 29 31 31 29 26 25 25 24 22
12 10 10 11 10 10 11 11 13 16 16 17 18 20 22 23 25 28 28 28 28 28 29 27 27 27 28 29 30 30 29 30 28 30 26 27 31 32 32 29 26 25 26
10 10 12 10 10 13 12 14 16 18 19 21 24 24 24 25 26 27 26 27 27 28 30 31 33 35 36 35 35 34 32 29 29 28 27 27 28 30 31 32 32 28 27
10 11 11 13 14 14 13 16 18 20 22 24 25 25 25 25 27 29 29 29 28 29 32 34 36 36 37 37 36 35 32 29 25 25 26 27 27 27 30 31 31 32 31
11 12 14 14 12 13 16 19 20 24 22 23 25 27 28 28 29 27 31 32 31 32 35 36 37 32 29 32 34 34 31 29 25 25 27 28 27 27 27 29 30 33 33
12 13 13 14 15 19 19 20 23 30 26 27 29 31 30 31 29 30 35 33 34 35 35 33 34 33 31 30 29 30 33 33 31 29 27 26 29 30 30 29 30 31 33
12 14 16 16 18 19 21 21 26 32 25 32 31 29 32 34 31 33 38 37 36 34 32 32 34 33 32 31 31 31 32 35 37 37 37 37 37 37 35 34 33 33 33
10 12 15 14 18 21 21 20 22 24 28 32 33 33 34 36 38 38 39 38 37 36 36 36 37 36 35 35 35 35 37 37 39 41 43 42 43 43 45 45 44 41 39
12 15 18 20 24 23 19 26 28 31 32 36 35 32 35 35 37 42 42 36 39 40 40 40 42 44 44 43 43 43 44 45 46 47 48 49 49 47 47 46 48 50 49
16 20 21 23 22 13 27 31 32 43 39 37 35 35 36 39 46 46 40 40 40 42 42 43 46 47 48 49 49 50 51 53 55 56 57 57 57 55 55 54 52 50 50
19 22 21 18 28 34 30 29 31 42 40 35 36 40 44 48 48 44 43 44 46 46 48 49 50 51 53 55 56 58 60 62 63 62 63 63 64 65 65 64 62 61 59
25 24 25 27 35 35 38 40 43 41 34 33 42 48 48 45 47 48 49 50 51 52 54 55 56 58 61 62 63 64 66 68 70 70 71 71 71 71 71 71 71 71 70
21 26 33 36 39 40 43 42 42 37 43 41 47 43 46 48 48 49 52 56 59 61 62 63 64 65 66 68 71 72 73 74 76 77 77 76 76 77 78 79 79 78 77
27 29 33 42 45 45 44 43 42 42 45 47 47 48 49 51 54 57 60 64 67 69 70 72 74 75 75 77 78 78 78 77 77 79 81 81 81 80 81 83 84 85 85
33 35 36 37 41 45 45 44 45 46 47 47 48 49 52 56 60 64 67 70 73 76 77 78 81 82 83 82 82 82 81 81 80 77 80 83 84 84 85 85 86 87 86
38 41 43 43 48 48 46 45 45 45 45 47 50 54 58 63 66 70 73 76 78 81 81 82 84 86 85 85 83 82 83 86 87 91 88 83 84 87 88 87 86 86 87
38 41 45 47 43 40 40 40 41 43 46 50 54 59 62 66 69 72 76 79 82 84 87 88 87 85 85 85 86 87 88 89 92 94 91 90 89 89 91 90 89 88 88
41 44 45 42 41 39 39 40 41 44 49 53 58 62 66 68 72 79 86 86 88 90 89 89 89 90 90 91 91 90 92 92 93 94 96 95 95 95 96 97 97 96 93

GFSSE_500_spd_012.txt.gz
Wind_Speed
15 16 20 22 24 24 26 25 20 13 9 7 5 5 8 8 7 7 8 9 10 11 12 12 11 12 13 13 14 15 14 13 13 14 16 18 17 17 18 19 14 17 19
18 19 20 24 25 27 26 19 14 10 8 6 0 3 3 4 5 6 7 8 9 10 12 14 14 13 14 14 13 11 12 12 12 11 14 16 19 20 20 20 19 15 16
18 21 25 27 27 24 22 16 12 10 9 4 3 2 1 3 5 6 8 9 11 12 13 14 15 17 17 19 17 15 15 13 13 12 13 14 16 17 18 18 16 16 15
20 24 25 25 23 21 18 13 12 10 7 6 6 5 6 8 9 11 12 13 14 16 17 18 19 20 21 21 21 18 17 17 17 18 17 17 17 16 17 18 17 16 15
25 24 23 24 21 17 12 11 8 7 8 8 8 9 11 13 13 15 17 18 19 20 21 23 24 24 25 26 25 23 20 20 22 22 21 21 21 19 16 16 14 19 16
25 23 16 16 15 10 10 8 7 7 8 9 11 12 15 16 18 19 21 22 22 24 25 27 29 29 29 29 29 27 25 25 28 29 27 25 24 23 21 20 17 17 17
22 19 18 15 10 9 7 7 7 7 10 12 13 14 17 18 20 21 22 23 25 27 29 29 31 31 30 28 28 26 25 23 25 28 30 28 28 27 24 22 21 19 19
19 18 15 11 8 9 8 8 9 10 12 13 15 17 19 21 22 24 26 27 29 30 30 29 27 25 26 25 25 25 26 25 25 26 27 27 27 29 28 26 25 22 21
14 12 10 7 10 9 8 10 12 14 14 16 18 20 21 22 24 28 30 30 31 29 29 28 26 26 27 27 29 30 30 30 29 29 27 27 27 28 29 28 28 27 26
9 8 8 10 10 9 11 13 14 16 17 19 20 21 23 25 29 31 31 30 29 29 31 31 30 30 30 30 31 32 33 32 29 28 28 27 26 28 28 29 28 28 29
7 6 6 7 8 10 12 15 17 18 19 20 22 23 26 28 30 31 31 30 29 30 31 31 31 32 33 34 36 35 32 31 29 29 27 25 25 26 28 30 31 28 29
5 4 6 8 10 12 14 16 17 18 18 18 21 22 26 27 30 33 31 31 31 32 32 33 35 35 34 34 33 32 32 30 27 28 27 24 22 22 25 28 30 31 31
3 5 9 10 12 13 15 19 20 21 23 25 26 29 29 32 33 32 35 34 32 35 37 36 35 34 31 28 27 28 29 30 28 26 28 27 27 25 24 26 27 29 29
6 7 8 11 15 18 20 20 23 23 23 25 26 31 31 31 31 33 35 35 35 41 39 34 32 32 31 29 27 28 27 28 29 30 29 30 31 30 29 29 29 29 31
7 9 13 17 20 21 20 19 16 20 21 24 25 29 31 32 35 37 38 36 37 41 36 32 32 33 33 32 31 31 32 32 33 32 33 34 35 36 36 36 36 35 34
10 14 17 20 20 22 22 24 26 24 20 22 26 29 31 32 33 37 35 41 42 41 39 37 36 36 38 39 39 38 38 39 39 39 39 39 40 40 41 41 41 42 43
13 15 19 22 23 25 24 23 23 27 19 35 33 34 31 33 36 37 40 44 45 41 40 38 38 39 40 41 42 42 41 43 43 45 47 48 48 48 48 48 48 49 47
15 17 21 19 21 19 17 21 31 29 37 37 37 32 26 36 36 43 46 42 40 40 40 41 42 44 45 47 48 49 50 51 52 53 53 55 57 57 56 55 55 55 55
20 20 20 16 21 28 27 31 31 39 35 38 32 34 35 42 44 48 43 42 43 45 47 50 51 52 54 55 55 56 59 61 62 63 63 64 64 64 65 64 64 64 62
20 22 20 21 23 28 36 39 38 40 38 33 38 39 44 50 51 49 47 48 51 54 55 57 59 60 61 61 63 65 67 69 71 72 73 74 72 71 72 72 71 71 70
21 23 27 28 29 37 42 49 49 46 41 44 45 48 51 50 47 48 50 55 58 61 62 64 67 70 71 72 74 75 76 77 77 78 78 78 78 79 78 77 77 77 76
26 30 29 35 41 44 47 49 49 49 48 48 46 45 45 46 47 51 56 61 64 66 68 71 75 78 80 81 82 83 83 81 80 79 79 79 79 80 81 81 81 80 80
30 36 36 39 41 42 47 48 43 41 42 42 43 44 45 48 53 59 64 68 70 71 73 77 80 81 84 86 87 89 90 90 91 89 88 87 86 84 83 83 83 84 83
32 34 37 38 44 46 46 42 41 41 42 42 44 46 50 55 60 63 65 67 71 76 79 83 84 86 91 92 94 94 94 96 95 93 91 90 89 90 92 91 91 90 91
34 37 34 49 48 46 44 44 42 41 43 47 50 53 56 59 63 65 69 74 79 84 86 88 89 93 96 96 93 93 93 93 94 95 96 93 94 93 94 96 98 99 99
37 44 48 41 42 43 41 40 42 45 47 49 53 57 62 65 68 73 78 83 88 90 91 93 96 96 96 95 95 95 92 89 86 85 84 85 81 74 80 82 88 92 96

GFSSE_500_spd_015.txt.gz
Wind_Speed
19 14 15 15 16 20 25 28 25 20 9 4 5 6 4 3 5 6 9 10 11 11 11 11 12 13 13 13 14 16 15 14 14 14 13 13 14 16 17 20 20 18 18
12 15 14 18 21 22 25 22 21 12 8 4 6 4 1 2 4 7 8 9 10 12 14 15 16 16 16 15 15 16 17 17 15 15 17 15 15 14 16 18 20 20 17
15 12 13 17 18 19 21 19 15 11 8 6 7 5 3 2 5 7 9 11 12 14 16 18 20 21 21 20 19 17 16 17 18 18 18 19 19 18 17 15 16 18 17
14 8 15 16 15 19 19 15 11 10 7 8 8 8 6 7 9 11 13 14 16 18 19 20 22 23 24 24 23 21 19 19 19 19 21 22 22 22 21 17 16 17 18
10 13 10 15 17 16 13 10 10 7 7 9 11 10 11 12 14 16 17 19 20 21 23 25 26 28 28 27 24 23 23 21 21 22 23 23 25 25 24 23 19 17 17
10 13 12 14 13 12 10 9 6 6 8 10 11 12 13 15 17 19 21 21 23 25 28 29 30 30 29 26 23 21 20 20 19 20 20 21 22 25 26 26 24 21 20
11 13 12 12 12 11 8 5 6 7 8 11 12 13 15 18 20 22 23 24 27 29 30 32 30 28 26 24 24 22 20 20 22 25 25 24 23 22 25 27 27 25 24
13 12 12 12 11 9 6 7 7 7 9 11 14 17 19 21 23 24 26 28 30 30 31 29 29 29 27 25 25 26 26 26 28 29 29 27 26 25 25 25 27 28 27
9 10 10 10 9 9 8 8 9 8 13 15 18 20 22 23 25 26 27 29 30 31 31 29 29 30 29 28 27 27 29 29 31 31 29 27 27 26 26 26 26 26 28
7 8 9 8 9 8 5 7 9 13 17 18 19 20 23 26 28 27 26 27 29 30 31 29 33 31 29 29 29 32 32 30 29 28 27 27 28 28 26 28 28 27 27
8 8 7 6 4 4 7 11 14 16 18 19 20 23 25 26 29 27 28 29 30 32 34 31 33 37 36 35 33 33 34 34 30 28 27 25 24 26 26 27 29 28 28
7 6 4 3 4 7 10 14 15 18 20 23 24 24 26 29 30 25 29 32 31 32 33 33 36 39 36 33 31 30 29 29 29 27 25 24 25 23 24 24 25 26 27
6 5 5 4 6 9 12 14 19 21 23 27 25 23 27 28 31 31 32 33 32 34 33 33 39 38 34 31 28 27 26 25 24 25 26 25 25 26 27 26 26 26 27
6 2 4 8 11 14 15 18 24 25 26 27 22 21 25 29 31 33 34 34 36 37 31 36 38 36 35 35 32 30 30 29 28 27 27 27 27 27 29 32 33 31 29
1 6 6 9 13 17 20 21 22 25 25 25 25 24 28 27 31 33 34 34 32 32 37 43 45 40 38 36 35 35 34 34 34 34 34 33 32 33 33 33 35 37 37
4 8 10 14 16 20 24 24 27 27 21 29 26 29 29 26 29 30 33 35 34 37 41 46 43 40 38 37 37 38 38 39 39 39 39 40 40 40 40 40 40 41 42
9 11 15 17 18 21 22 30 33 29 23 23 29 32 34 33 30 35 32 37 39 43 43 43 41 39 40 42 44 45 46 46 46 47 46 47 47 48 48 48 49 49 49
12 15 18 19 18 17 23 32 15 26 28 32 34 34 28 33 34 35 42 46 45 49 46 44 43 46 48 50 52 52 54 54 54 54 55 56 57 58 58 58 58 57 57
16 19 23 20 20 21 22 35 37 38 38 35 37 35 36 40 46 46 49 50 47 46 45 47 50 53 55 57 58 60 61 62 63 64 65 66 67 68 68 68 67 68 67
16 17 18 19 22 21 28 37 40 35 36 43 44 45 46 46 47 46 46 45 46 46 50 54 57 58 60 62 65 68 70 72 73 72 72 73 74 75 76 77 78 77 76
19 20 22 23 28 34 38 39 42 44 48 49 46 44 43 44 44 45 46 47 49 53 59 62 64 66 68 70 73 75 75 76 74 76 79 81 82 82 83 84 85 86 85
21 22 27 32 35 37 40 43 46 49 48 46 43 41 42 43 44 46 48 52 57 62 65 64 67 69 72 74 77 80 81 82 82 84 86 87 88 87 88 89 90 91 92
25 28 33 35 33 36 40 44 46 45 43 41 41 42 44 47 50 53 56 60 63 63 63 67 70 73 77 81 87 90 92 95 97 96 95 97 99 98 95 93 91 90 90
28 32 33 36 38 43 48 47 43 46 45 44 46 49 51 53 55 57 60 62 62 66 70 74 76 82 86 89 94 98 102 105 105 105 103 103 100 97 96 95 96 97 97
27 36 36 39 46 47 43 43 46 45 44 47 49 51 53 55 57 60 61 63 68 72 76 80 84 88 92 96 98 100 102 105 103 100 94 87 84 81 82 84 86 90 95
33 36 38 38 41 43 43 44 44 44 48 52 55 55 56 58 60 61 65 70 74 77 82 87 91 93 95 100 103 104 102 96 88 79 82 82 73 63 65 67 67 69 72

GFSSE_500_spd_018.txt.gz
Wind_Speed
33 27 22 20 14 15 18 21 21 19 17 7 6 8 6 2 2 2 3 3 5 7 9 11 12 13 13 13 14 14 15 15 14 13 13 13 14 15 15 15 17 19 19
35 28 24 16 14 14 17 18 19 17 11 7 8 8 5 3 2 3 5 7 10 12 14 15 16 17 18 19 19 17 17 17 18 17 15 15 16 17 18 17 16 16 18
35 35 16 13 11 13 15 17 16 12 9 8 11 10 8 7 6 6 9 11 14 16 17 18 20 22 22 23 23 21 20 19 19 20 20 19 18 19 21 19 18 17 17
39 26 14 10 9 12 14 13 12 10 7 10 13 12 10 9 9 10 13 15 17 19 20 21 24 25 25 25 24 23 21 21 21 21 21 22 23 23 24 21 21 19 18
33 31 9 7 10 12 11 11 10 7 6 11 12 12 11 11 12 15 16 18 20 22 23 25 25 25 24 23 22 19 19 20 19 19 19 19 20 23 26 23 23 21 19
38 17 7 7 11 11 10 8 8 6 8 9 10 10 12 13 16 18 18 20 22 24 26 26 25 23 21 21 21 20 19 18 17 18 19 22 23 23 25 26 24 23 23
21 6 5 10 8 10 8 7 7 6 6 6 8 10 13 16 19 21 21 23 24 25 25 26 27 27 26 26 24 23 22 22 22 22 24 26 28 26 26 26 25 26 24
5 4 7 8 8 8 6 8 7 6 6 7 10 13 16 19 21 22 24 26 27 25 25 27 27 27 25 27 29 27 26 26 28 28 27 26 27 28 28 27 26 27 26
2 3 8 9 7 8 10 9 7 7 8 10 14 16 19 22 23 24 25 26 25 26 26 29 28 26 26 26 27 28 29 30 31 30 29 28 27 27 28 29 28 27 28
6 10 8 8 9 10 9 8 8 9 11 14 17 19 22 24 23 24 27 31 28 27 30 26 29 26 28 33 33 32 32 31 31 32 31 27 26 27 28 29 30 30 30
10 9 8 10 10 9 9 9 11 12 15 17 20 20 23 24 26 28 30 30 28 29 28 27 29 29 32 34 37 35 33 32 31 32 31 30 27 25 26 28 28 29 30
11 10 10 9 8 8 9 11 12 16 17 20 23 25 27 28 26 28 28 29 31 31 29 29 33 30 30 34 34 32 31 30 29 30 29 30 28 26 26 26 27 28 28
13 11 8 7 8 10 11 12 15 19 23 25 28 28 28 26 27 28 31 31 31 32 32 31 31 31 34 38 40 36 34 31 30 29 28 29 30 29 27 28 29 29 30
9 7 8 8 8 9 11 15 18 21 24 25 25 23 24 25 29 37 36 31 31 31 32 32 29 33 38 41 40 37 35 34 33 33 32 33 33 33 32 31 32 33 33
5 5 6 7 8 11 15 19 22 25 27 26 25 29 33 30 23 26 29 31 30 33 33 35 36 38 40 41 41 37 35 35 35 37 39 37 39 39 39 39 38 37 38
7 8 9 8 11 15 19 22 25 27 34 32 17 23 22 26 24 27 29 32 32 33 35 39 41 43 44 43 41 38 39 40 41 42 44 45 44 45 45 45 45 45 44
9 10 11 12 14 17 22 24 24 27 14 21 22 23 25 29 36 41 40 35 41 42 46 49 49 45 41 42 41 43 45 48 48 49 50 52 53 52 52 53 53 53 52
10 12 14 17 20 19 24 24 26 18 24 34 29 34 36 39 41 43 44 48 53 50 49 48 45 42 41 43 46 49 50 52 56 57 58 58 59 60 62 62 63 63 63
12 14 16 18 21 22 24 24 29 32 33 32 34 37 40 43 44 44 45 46 47 47 47 47 46 44 47 51 53 54 55 56 60 62 64 66 67 68 70 71 71 73 72
15 17 20 21 21 21 25 32 37 40 42 42 43 43 42 41 41 42 44 46 48 49 50 51 51 54 57 59 60 61 62 62 63 66 69 70 72 73 74 75 77 79 81
19 21 22 22 23 30 32 36 38 41 43 47 47 42 42 40 41 42 45 47 50 53 55 57 59 62 63 63 63 65 67 68 70 72 74 78 83 87 89 89 88 89 91
22 21 20 23 28 33 36 40 42 45 48 46 45 44 43 43 46 49 52 55 56 58 60 61 62 61 63 67 67 70 72 75 80 84 87 89 92 93 95 97 99 100 100
23 23 22 28 33 35 39 40 43 49 44 44 47 48 48 49 51 53 55 56 56 58 59 61 63 66 69 72 74 78 81 85 89 92 96 98 100 102 104 106 109 106 103
22 24 28 30 30 33 37 38 40 42 45 48 50 49 51 53 54 55 56 57 58 60 62 65 68 72 76 81 84 87 90 93 96 97 100 106 108 105 101 96 95 92 92
22 22 22 22 25 29 32 36 39 42 45 48 51 53 55 56 56 58 58 59 61 63 66 71 75 78 82 84 88 91 95 99 102 105 108 102 92 85 82 80 78 77 79
17 20 22 25 27 31 34 38 41 44 47 50 52 55 57 58 58 60 60 62 64 68 72 76 81 85 88 91 93 97 101 104 104 95 87 78 69 60 62 61 62 61 59

GFSSE_500_spd_021.txt.gz
Wind_Speed
35 36 35 33 33 28 19 19 20 19 17 14 10 11 9 6 4 2 1 3 5 8 10 11 13 15 16 16 16 16 16 15 15 16 16 15 16 17 16 17 17 18 17
36 37 37 36 31 28 21 20 19 17 15 11 10 13 10 7 4 3 4 6 8 11 12 13 15 17 19 20 20 20 19 19 18 17 18 19 19 18 19 20 19 19 18
36 41 41 35 32 23 19 17 18 15 13 11 12 15 10 8 7 6 7 9 12 14 16 17 19 21 22 22 21 21 20 20 20 21 20 21 18 22 22 23 21 22 21
39 43 43 39 33 17 16 16 15 12 11 11 13 15 12 11 9 8 10 12 14 16 18 20 20 22 23 21 19 20 19 19 19 19 19 21 16 20 20 21 23 23 21
44 48 46 43 25 16 16 15 13 12 10 11 14 16 14 13 10 11 14 16 18 20 21 21 21 21 21 20 19 19 19 20 19 18 17 18 17 21 23 22 22 23 23
43 39 38 29 16 15 16 16 11 11 10 13 14 15 13 11 12 15 16 18 20 23 24 24 21 21 20 20 19 19 21 22 21 21 19 22 23 24 27 26 24 24 24
35 40 27 20 19 17 17 14 9 9 11 10 10 11 12 13 16 18 20 21 24 25 26 23 22 25 25 25 20 21 22 23 24 25 25 26 27 28 30 28 26 26 26
36 31 16 8 13 18 12 7 8 8 7 5 8 9 13 16 18 20 22 24 25 26 27 25 23 25 25 26 22 23 24 25 25 29 30 29 31 31 30 31 31 27 27
37 25 17 10 8 7 7 8 8 7 6 7 8 12 16 19 21 23 25 24 26 29 31 27 27 25 25 24 26 29 28 29 28 29 31 31 33 33 32 31 29 31 30
19 8 3 4 5 7 6 7 7 8 8 9 13 17 19 22 25 27 28 26 27 30 27 24 27 28 28 30 32 30 32 31 31 32 30 33 32 32 32 31 30 30 31
21 6 1 2 5 5 7 6 7 8 10 13 17 19 21 25 28 29 29 30 31 28 27 25 27 30 32 32 34 31 34 37 38 36 33 34 33 31 30 30 30 30 30
5 1 4 5 6 8 7 7 8 10 13 16 19 21 25 27 27 27 29 30 30 31 32 33 29 29 31 35 34 32 35 39 37 38 32 34 33 33 32 31 30 31 32
5 4 4 6 6 8 6 8 9 13 16 19 21 24 26 25 27 27 34 35 36 37 32 31 30 30 34 31 33 35 38 39 38 40 33 35 34 33 33 34 33 33 34
7 6 7 8 6 6 7 10 14 17 20 22 24 25 22 28 33 32 32 24 27 32 31 30 33 33 34 38 36 38 39 37 38 39 38 34 37 36 36 35 36 36 36
5 6 6 7 8 8 10 14 18 25 27 27 27 27 22 23 27 32 29 24 36 32 40 43 39 38 37 39 41 43 43 40 38 37 41 39 39 42 41 40 41 41 41
7 8 7 7 9 12 15 19 21 32 31 31 17 20 27 24 26 29 32 52 48 38 41 45 45 49 49 48 49 47 42 40 41 41 42 47 45 45 46 46 45 46 47
8 8 9 10 12 15 19 22 26 32 26 23 20 24 24 27 46 33 39 43 43 41 45 47 51 47 47 45 45 44 42 42 43 45 47 48 51 53 53 53 54 54 53
9 9 11 15 17 19 20 24 22 26 34 23 25 38 34 36 45 42 41 42 42 42 42 43 45 46 47 50 50 47 48 49 52 55 58 59 60 58 65 64 61 61 63
10 12 13 16 20 21 21 22 27 36 39 34 36 39 41 42 41 40 40 40 40 41 44 45 48 51 53 52 54 54 57 59 61 63 65 69 69 69 70 70 74 71 72
13 16 19 20 22 24 24 27 32 38 39 41 42 45 46 43 42 44 41 41 44 47 50 53 55 56 56 56 56 56 57 59 61 63 64 68 70 71 73 72 72 77 80
19 22 24 24 25 22 27 32 36 38 40 40 43 45 45 46 46 47 50 51 52 52 55 56 57 57 58 59 60 59 59 62 65 69 73 74 75 78 81 83 85 85 87
22 26 26 27 26 28 30 35 34 35 36 38 40 43 44 46 48 50 50 53 55 53 54 57 59 58 58 58 61 63 64 66 70 74 77 81 84 86 87 90 93 97 98
22 26 25 26 27 30 31 29 29 31 35 38 40 43 45 47 50 51 53 54 55 57 59 59 59 57 60 62 67 70 74 76 79 80 83 85 88 91 94 99 101 103 105
26 27 26 25 24 22 25 27 30 33 38 40 44 47 50 50 51 53 57 57 59 60 59 58 60 61 66 70 73 77 81 82 84 86 90 93 96 100 104 104 102 99 94
27 20 18 19 20 23 26 29 32 36 40 43 46 50 53 55 56 58 60 61 62 63 61 62 63 68 72 76 81 83 85 87 91 95 97 100 103 99 88 84 78 72 69
17 17 18 20 22 25 28 32 35 39 43 46 49 50 53 58 60 60 61 65 66 64 64 67 71 75 78 82 83 86 91 94 98 101 101 94 84 71 63 57 53 52 52

GFSSE_500_spd_024.txt.gz
Wind_Speed
32 38 36 37 38 37 33 28 28 27 22 20 18 11 13 12 11 8 5 2 2 5 7 9 11 12 12 14 15 15 15 15 17 18 17 16 17 18 18 20 18 20 21
42 42 35 36 38 37 30 30 28 24 21 18 18 13 17 15 11 8 4 2 4 7 9 11 13 14 15 17 17 15 15 15 15 15 17 17 18 18 19 21 21 22 23
36 33 37 38 40 37 31 35 26 25 21 16 15 15 18 15 11 7 5 6 8 11 12 13 15 17 17 16 15 14 15 15 17 18 16 14 15 20 16 17 18 20 22
38 37 41 42 44 41 41 38 28 23 19 17 15 16 19 16 12 8 7 9 11 12 15 17 18 18 17 17 18 18 16 16 18 16 21 15 15 15 15 17 19 19 21
36 40 46 48 48 42 41 37 26 20 17 17 15 17 19 14 9 8 11 13 14 16 18 19 20 17 17 18 19 20 18 18 19 18 20 20 14 18 20 22 23 23 22
33 40 47 50 44 45 36 24 21 17 15 14 14 16 15 12 10 12 14 15 18 20 21 22 22 19 18 18 18 21 19 19 21 21 19 22 24 22 23 25 25 27 27
36 39 46 50 47 39 31 20 17 12 11 11 10 11 12 11 12 13 16 19 21 22 23 23 26 25 24 21 21 20 20 22 25 27 19 23 24 27 28 29 29 28 29
32 35 42 36 34 28 22 17 14 5 6 6 6 7 8 11 15 16 19 21 24 24 25 26 27 24 24 24 21 22 25 28 28 27 19 25 25 27 30 31 32 32 31
27 35 40 24 22 18 14 8 7 6 6 6 7 12 15 15 16 18 19 22 25 26 26 27 27 24 23 25 25 27 28 31 32 30 28 28 28 29 29 30 31 32 32
29 40 30 12 14 9 11 8 4 5 5 9 8 11 14 17 18 18 21 25 27 27 26 25 25 27 30 29 29 31 29 31 32 35 34 33 33 33 32 30 30 31 32
33 28 29 15 7 12 9 5 5 6 8 9 10 15 16 17 20 22 24 26 25 29 29 30 32 32 31 30 27 31 35 37 35 34 33 34 35 36 36 34 31 31 31
12 7 10 16 16 13 7 3 4 9 10 12 14 16 19 22 22 21 24 24 28 29 24 27 29 26 27 30 32 35 34 37 40 39 36 37 39 40 38 35 34 34 33
9 13 10 9 5 4 4 5 6 8 12 15 18 20 22 23 26 22 20 28 30 27 22 24 31 25 32 37 36 39 42 40 43 45 42 39 40 41 37 36 34 33 34
5 6 3 2 0 1 3 6 8 9 17 19 19 20 20 23 20 19 18 27 28 28 29 33 46 43 39 40 43 39 40 43 45 46 45 40 39 37 40 38 37 38 37
0 2 3 3 3 5 6 8 10 15 18 20 19 14 16 13 22 31 26 34 40 32 36 43 46 46 45 43 45 47 44 42 46 45 45 39 41 40 41 43 42 41 42
4 4 4 5 6 7 9 12 16 19 18 22 26 10 11 29 32 28 33 35 43 42 37 38 37 39 42 42 41 41 40 40 40 43 43 45 44 45 44 43 46 45 45
4 3 5 8 11 12 15 17 19 23 28 28 30 20 22 31 33 35 35 35 36 37 37 37 37 38 39 40 43 45 46 45 45 47 48 50 53 52 51 52 52 51 53
4 6 8 10 14 15 17 19 23 20 26 32 29 26 25 30 32 34 36 37 38 38 39 40 42 44 46 48 47 48 48 46 47 48 50 50 55 59 60 61 63 62 62
6 10 13 14 19 21 23 22 21 23 30 35 34 31 32 32 34 35 37 38 40 42 43 44 45 47 48 50 52 52 51 52 53 54 55 55 57 59 62 61 62 64 64
12 14 20 19 20 23 25 25 23 29 33 33 29 30 32 35 38 41 42 43 43 46 49 52 53 54 53 54 55 56 55 50 50 54 57 57 60 63 66 70 70 71 73
16 16 22 21 21 22 25 26 27 30 29 26 29 33 37 41 44 45 46 48 50 51 52 53 54 56 55 54 52 51 52 52 55 59 61 65 69 72 74 76 78 80 80
21 20 22 24 23 26 25 26 29 25 26 29 33 35 39 42 44 45 46 48 52 54 55 56 58 59 57 56 55 56 57 60 62 65 69 73 77 79 82 84 85 88 90
23 24 25 27 28 26 22 21 23 24 28 30 34 39 42 45 48 48 49 51 57 59 59 59 60 60 58 57 59 62 64 68 71 75 78 82 85 88 92 94 96 98 100
25 27 28 26 20 20 21 24 26 29 33 36 40 43 46 48 51 50 51 57 61 60 60 60 62 60 60 62 65 68 71 76 80 82 86 90 92 94 98 97 96 95 92
29 29 21 18 18 21 24 26 31 35 39 42 45 48 50 54 55 54 58 61 64 64 64 62 62 61 63 67 69 72 75 78 83 90 95 99 99 93 87 85 83 77 72
27 21 18 18 21 24 28 32 36 40 44 46 49 50 52 54 55 55 58 61 64 65 63 63 62 64 67 69 72 75 82 90 97 103 101 96 90 77 72 68 63 55 53

GFSSE_500_spd_027.txt.gz
Wind_Speed
33 43 42 37 36 39 41 38 34 32 28 28 26 22 17 14 15 13 10 7 4 2 3 5 7 9 10 10 11 11 11 11 12 13 14 15 15 17 17 18 20 20 21
41 44 43 36 35 37 36 35 34 32 29 24 24 20 16 17 17 14 11 7 4 5 7 9 11 12 13 13 13 13 11 11 12 12 11 10 15 15 16 16 17 20 20
31 26 33 45 36 31 35 35 35 32 29 25 20 19 17 21 19 15 10 7 7 8 10 12 14 14 14 13 13 13 14 14 12 13 14 16 13 15 15 15 15 17 17
36 26 33 34 28 32 37 40 39 34 36 26 22 19 17 22 18 14 10 9 10 11 12 14 16 17 15 15 15 15 14 12 14 14 15 16 16 15 15 15 16 17 18
41 42 38 32 33 38 40 43 43 38 31 24 21 17 17 20 17 14 12 12 12 14 14 16 18 19 18 16 15 15 15 13 14 16 18 19 21 21 20 20 20 20 21
40 38 33 35 40 39 45 46 39 39 32 21 16 14 15 18 18 15 14 14 15 16 18 19 19 21 23 21 20 20 17 17 18 18 20 22 22 23 23 25 24 25 26
32 35 31 37 39 40 46 43 37 27 22 12 11 11 15 17 16 14 15 16 18 18 20 22 21 22 22 21 21 21 22 22 19 19 22 24 24 25 25 26 26 27 30
28 30 34 37 38 44 43 38 26 19 10 7 9 12 12 13 11 13 18 19 19 21 23 23 25 24 21 19 19 22 23 24 24 22 26 26 25 24 23 25 27 28 31
25 32 40 28 42 38 26 24 13 11 11 8 9 7 2 11 18 18 18 18 20 24 25 22 24 23 22 23 25 24 26 24 23 28 35 33 29 25 26 27 28 29 30
26 28 20 25 34 30 21 16 14 13 8 6 5 7 13 16 16 17 18 21 22 23 24 25 23 23 24 27 28 29 28 26 28 36 39 37 32 30 30 31 32 32 32
23 28 14 21 22 26 14 13 17 8 6 7 10 11 13 13 17 17 20 22 25 25 25 27 23 23 24 24 23 31 32 35 36 36 39 38 40 38 37 36 33 33 32
32 27 17 14 27 22 21 16 9 7 4 5 9 14 16 17 19 19 19 22 19 18 22 26 26 25 28 27 36 39 37 39 42 45 42 40 38 41 41 40 40 36 33
15 21 8 18 16 15 11 6 2 2 4 8 12 16 20 20 18 8 16 15 20 23 27 25 30 34 33 37 38 35 35 39 43 43 43 46 46 48 43 45 43 36 34
10 7 15 14 11 8 6 3 2 1 5 9 9 12 8 8 6 13 14 16 21 27 32 33 33 35 35 35 38 39 39 36 38 39 39 39 40 44 45 43 40 38 36
11 12 13 9 7 5 2 1 2 5 8 9 9 19 15 11 15 24 26 23 26 28 27 28 29 31 32 35 35 36 37 39 39 40 41 39 39 42 44 43 41 41 40
8 8 8 6 3 2 1 2 5 6 9 14 20 20 18 17 18 20 23 21 24 26 28 29 30 31 33 36 38 40 42 43 43 45 46 47 46 46 45 45 48 46 46
4 4 4 2 3 3 6 10 12 13 10 18 22 24 20 17 18 18 21 24 26 28 30 32 32 35 37 39 40 41 42 43 44 45 45 45 45 45 44 46 46 50 54
1 2 3 5 8 11 10 15 14 15 15 20 26 22 15 16 20 23 25 28 30 33 34 36 38 40 43 45 47 49 52 51 46 44 45 46 47 48 49 49 50 50 50
3 6 8 12 12 13 16 16 17 20 21 21 23 17 18 21 25 28 31 34 36 38 38 39 43 46 49 50 51 51 52 49 45 46 45 46 48 51 53 55 56 58 58
5 7 14 18 17 15 17 18 19 19 21 21 19 21 25 27 31 33 36 39 41 41 43 46 48 51 51 51 52 52 51 48 44 47 48 50 54 57 61 65 67 69 70
8 12 15 18 17 19 19 21 20 20 19 19 23 27 31 33 38 39 40 42 44 44 46 49 51 52 54 54 54 53 51 49 49 52 54 56 60 64 69 73 76 78 81
11 16 17 16 20 22 20 17 17 18 20 24 28 32 35 38 43 45 47 48 50 50 51 53 54 57 57 57 57 56 52 51 54 58 60 62 67 71 77 82 87 91 93
18 20 19 19 24 19 15 17 20 22 26 29 32 36 40 44 47 50 50 51 53 53 52 54 56 57 58 57 57 56 55 58 61 64 67 68 73 79 84 90 99 103 102
25 24 22 24 19 17 18 21 23 26 29 32 35 40 44 47 50 52 54 56 58 57 57 57 58 59 58 56 55 58 61 66 69 67 69 75 80 84 90 98 101 90 81
28 24 20 17 18 19 21 25 29 34 37 41 43 46 48 51 53 56 57 59 60 60 61 61 61 61 59 58 58 61 66 69 69 71 73 78 84 90 96 101 83 75 72
25 21 16 16 19 23 28 32 35 39 42 45 49 51 54 56 57 58 59 60 60 58 59 61 62 60 60 61 64 66 70 69 70 73 78 83 87 92 94 74 66 63 63

GFSSE_500_spd_030.txt.gz
Wind_Speed
28 34 36 36 38 46 45 37 36 34 37 28 26 26 19 24 18 16 13 10 10 9 7 8 10 12 12 11 12 11 11 11 11 10 12 12 12 12 15 18 20 20 21
36 40 42 41 46 42 42 42 35 34 29 31 28 24 21 20 19 17 14 11 10 9 9 10 12 14 15 15 13 10 10 10 11 11 10 11 12 12 12 14 16 17 19
37 38 37 37 38 44 45 37 35 30 30 29 29 26 24 20 21 19 15 11 10 11 12 13 14 16 17 16 15 12 12 13 13 13 11 12 12 14 14 13 14 15 17
38 36 38 36 31 33 35 36 30 31 33 33 33 28 21 19 21 20 17 12 12 13 14 14 15 17 18 17 17 16 13 13 11 11 9 10 13 16 19 18 18 19 20
38 40 42 36 43 39 35 36 32 36 37 34 34 28 19 17 21 23 19 15 15 15 16 17 16 17 19 19 17 19 16 14 14 13 12 13 15 17 18 21 22 24 25
39 39 39 36 36 37 41 36 35 39 39 36 29 23 19 14 20 20 14 17 17 18 19 17 18 19 19 22 20 19 18 19 20 21 19 17 22 23 26 23 23 25 26
36 37 37 36 36 36 38 33 36 35 37 35 19 13 11 13 17 16 21 18 19 19 21 19 21 20 21 22 22 19 15 16 19 20 21 20 24 26 27 26 25 22 24
33 43 39 35 30 33 33 34 37 39 37 24 11 7 8 11 16 17 17 20 21 23 23 25 26 26 25 24 27 24 23 24 23 21 18 23 29 32 30 28 27 25 25
37 29 30 21 19 28 36 40 42 31 17 12 10 10 11 14 12 15 19 23 23 23 26 28 25 27 25 21 22 21 19 19 25 27 26 28 30 31 32 32 30 31 30
28 29 42 39 34 36 32 30 22 13 15 13 10 8 8 12 18 21 23 22 23 26 27 28 29 24 18 20 23 24 28 29 30 29 34 37 37 38 38 36 33 33 34
15 37 17 28 29 27 22 16 12 17 16 13 9 10 14 16 17 17 19 22 22 27 28 22 22 18 20 23 25 29 32 33 37 39 39 39 40 41 41 38 35 36 35
20 24 27 19 30 23 15 20 22 11 8 7 7 10 13 15 16 15 13 10 14 16 19 21 25 25 24 29 32 31 35 37 37 39 41 42 43 42 42 40 42 39 35
18 21 16 14 17 24 23 17 12 10 7 2 3 7 10 13 13 13 7 12 15 18 21 24 26 29 33 33 29 29 30 32 34 37 40 41 42 42 42 39 35 34 35
8 16 14 14 17 16 13 13 10 7 6 4 1 5 12 8 8 9 13 18 19 20 22 23 25 24 26 28 32 34 35 34 34 36 38 41 43 43 43 44 42 37 37
11 9 6 17 17 14 9 8 6 3 3 6 6 11 15 14 10 13 16 16 16 16 20 23 26 30 31 33 34 36 37 38 38 38 37 38 40 43 44 44 45 45 42
13 14 13 12 12 10 6 4 1 3 5 4 6 12 15 14 8 7 10 13 17 22 25 28 30 31 33 34 36 37 38 41 42 44 45 44 42 40 42 44 43 42 44
11 9 8 8 7 5 3 3 4 6 6 8 11 12 11 9 9 11 16 21 24 27 27 30 31 33 34 36 36 39 42 44 45 46 48 49 47 44 41 40 42 42 42
8 7 6 5 4 3 1 6 6 6 9 11 14 14 9 12 14 19 23 25 26 28 30 33 35 37 39 40 41 43 46 47 47 49 49 47 45 44 43 45 44 44 45
6 3 2 5 7 6 6 10 10 12 13 16 16 12 13 17 20 24 26 29 32 34 36 38 39 39 41 43 44 46 48 49 50 49 47 45 45 46 48 50 52 53 54
5 4 6 9 9 7 11 11 13 13 14 14 12 13 18 22 25 29 32 34 37 39 41 43 43 44 45 45 46 49 50 52 51 47 46 46 48 50 53 56 58 61 63
11 13 15 12 10 11 16 14 12 10 9 12 15 20 24 28 31 34 37 40 43 45 47 48 50 50 49 50 49 51 52 52 50 48 48 50 53 57 61 63 65 67 69
7 12 13 13 12 14 12 9 10 12 14 17 22 26 30 33 36 39 43 46 48 50 51 53 54 54 55 53 53 53 54 50 49 50 52 55 58 62 63 69 72 76 77
9 11 13 10 13 13 11 12 14 16 20 24 28 32 35 38 41 45 47 50 52 53 55 56 55 55 54 53 54 56 52 50 52 54 55 58 58 60 66 70 76 80 85
12 12 12 11 10 11 12 16 18 22 26 29 33 37 40 43 45 47 50 52 55 56 57 56 55 54 55 55 56 52 53 55 57 58 59 60 61 67 74 76 76 81 87
14 13 14 9 9 11 15 20 25 28 32 35 38 41 44 47 49 50 53 56 56 57 57 57 56 55 57 59 56 56 58 60 61 62 61 65 69 78 81 76 78 82 89
13 10 10 12 14 17 21 26 30 34 37 40 43 46 48 51 54 56 56 56 58 58 57 56 54 57 60 58 59 61 64 66 66 68 69 70 72 79 76 79 84 86 87

GFSSE_500_spd_033.txt.gz
Wind_Speed
27 27 27 27 32 33 33 36 43 44 40 38 34 32 30 27 22 20 17 17 15 12 11 10 11 13 14 15 16 15 16 16 15 12 13 13 12 12 12 13 14 13 16
27 29 31 32 34 36 37 36 34 36 40 37 33 28 24 25 22 17 17 17 14 10 11 13 14 14 16 17 16 15 15 15 16 16 16 14 12 13 13 13 15 14 14
33 33 32 34 34 31 28 29 25 32 36 34 28 26 25 24 22 15 18 16 13 11 14 15 15 16 18 17 16 15 15 15 16 15 14 12 10 10 12 14 17 19 20
37 37 39 34 32 24 31 27 30 27 31 27 26 28 26 28 16 15 18 15 17 15 17 16 16 17 17 17 18 17 17 15 15 14 14 12 12 15 16 15 17 19 22
39 42 42 39 30 34 32 33 39 29 31 28 29 31 29 21 18 16 19 19 18 19 19 19 18 18 18 21 21 18 17 19 20 20 18 17 18 18 17 19 19 19 21
40 44 43 44 38 31 30 32 32 31 31 32 33 34 27 16 18 17 19 22 22 20 22 20 22 21 23 23 23 24 19 16 18 21 22 20 20 20 20 21 22 23 23
38 39 39 41 36 35 31 32 33 31 33 39 35 34 17 14 10 15 17 21 22 23 23 23 23 24 27 28 26 22 22 20 17 19 22 24 24 24 27 28 29 29 27
31 36 34 39 36 34 32 35 34 36 30 43 36 18 7 11 15 18 20 21 23 20 25 25 28 30 31 29 24 18 19 19 21 23 24 25 27 30 32 34 35 35 33
30 33 28 37 37 41 32 36 40 30 41 38 14 10 11 13 14 17 21 20 18 24 24 28 30 30 31 22 21 19 20 21 25 28 28 27 28 32 36 39 40 39 37
33 36 29 43 44 25 24 28 40 44 33 17 13 13 15 13 13 13 14 18 22 23 26 23 16 18 19 20 22 25 27 29 32 36 37 38 40 40 41 42 43 43 40
16 31 44 44 34 28 33 26 31 29 21 19 16 15 14 12 13 15 20 21 23 17 12 15 19 22 25 27 28 29 31 34 35 35 36 35 35 37 38 39 39 39 37
8 24 31 23 20 17 19 25 19 20 17 13 10 10 11 14 17 19 19 16 13 12 16 20 23 25 28 28 27 27 28 29 31 35 38 38 39 39 40 41 42 43 41
13 21 25 26 21 28 23 20 21 14 10 10 7 9 10 9 12 11 15 13 12 16 20 20 20 18 20 22 26 29 32 33 35 38 40 40 42 43 42 43 46 47 46
17 23 23 16 21 21 23 21 17 13 12 13 9 3 1 4 7 10 13 17 18 17 16 19 23 26 27 30 32 34 34 36 37 40 42 42 42 43 44 43 44 47 49
7 4 11 16 15 11 12 13 12 10 4 8 4 5 7 10 9 8 13 14 11 16 20 24 27 29 30 31 33 35 37 39 41 42 42 42 41 42 42 42 42 41 45
17 18 18 18 13 10 9 9 7 6 7 5 4 8 11 11 7 6 9 9 15 20 23 25 29 32 33 35 38 40 42 42 42 42 43 42 43 44 44 43 39 36 36
15 14 14 12 10 9 10 6 6 5 4 5 6 9 13 8 6 10 13 16 21 25 28 31 35 37 39 40 42 43 44 45 44 43 44 44 45 45 44 40 38 36 35
15 13 10 8 5 6 6 2 3 3 7 6 10 12 10 8 10 15 19 23 27 30 33 36 39 40 42 44 45 46 48 47 46 46 45 45 46 44 41 39 39 40 41
11 10 8 3 4 3 1 3 4 6 8 10 11 11 8 12 16 22 25 28 31 34 37 40 40 43 45 46 47 48 49 48 47 46 46 47 45 42 41 42 45 47 49
8 7 5 1 2 3 3 6 8 8 8 8 8 10 12 18 22 26 30 32 35 38 40 42 44 46 46 47 48 49 49 48 47 48 50 46 44 45 47 48 51 54 58
6 3 1 2 2 2 5 7 4 3 4 8 11 14 19 24 28 31 34 35 38 42 44 46 47 48 49 51 49 49 47 48 50 52 50 47 48 50 52 55 57 58 62
4 2 2 1 3 3 5 4 5 6 9 12 16 21 25 28 32 34 37 40 44 47 49 49 48 49 51 51 50 49 48 51 53 53 50 50 51 53 55 57 60 61 63
4 5 6 2 4 6 7 6 8 13 15 18 23 27 30 33 37 39 42 44 47 49 49 49 50 51 53 51 50 52 53 54 55 55 55 55 56 58 60 64 67 68 69
4 7 9 9 8 8 9 11 14 17 20 26 30 33 36 39 43 46 47 49 49 49 50 49 52 55 53 52 52 53 57 57 57 56 59 61 63 67 71 73 74 75 78
9 8 9 8 12 11 12 15 18 23 28 33 35 37 40 43 46 48 50 51 54 51 50 53 52 51 54 55 57 58 57 60 61 64 64 67 72 74 74 75 78 79 80
10 10 6 8 12 14 16 20 23 28 35 38 39 42 43 47 49 50 52 53 51 53 55 58 52 60 62 61 61 61 63 65 68 69 69 73 76 76 79 80 78 75 74

GFSSE_500_spd_036.txt.gz
Wind_Speed
24 25 22 25 25 25 28 32 30 29 27 24 27 28 26 26 18 18 16 10 11 11 10 9 11 13 13 14 15 16 16 16 16 15 15 15 14 14 12 11 11 12 12
22 24 26 26 28 28 29 31 27 22 22 20 25 28 26 22 19 20 12 9 11 9 9 11 13 14 14 16 17 17 17 15 15 15 16 15 14 13 11 9 9 11 13
27 29 29 29 29 28 32 28 25 18 17 22 22 23 23 21 20 18 12 10 11 11 11 13 15 16 16 18 17 17 17 17 17 15 14 14 11 8 9 10 10 11 13
30 32 30 31 34 32 28 26 22 25 27 32 24 25 24 23 21 20 13 12 13 12 16 17 17 17 18 19 20 21 21 20 18 18 17 15 14 15 17 18 16 17 14
29 31 34 32 33 33 31 33 30 27 26 30 27 26 27 23 24 20 15 15 15 17 19 19 19 18 20 20 22 23 23 23 22 20 20 21 22 20 19 20 19 19 19
30 29 31 34 35 31 31 31 30 25 30 29 25 28 29 25 24 20 15 17 17 19 22 20 20 19 22 23 26 26 26 20 22 19 20 20 22 24 24 23 25 26 25
28 26 28 32 32 31 30 24 21 32 32 28 29 29 34 24 18 17 16 16 19 20 21 21 20 22 26 27 29 27 22 17 15 17 21 23 23 26 28 27 30 32 33
28 27 29 27 39 30 34 32 37 35 31 30 29 30 33 27 12 10 13 18 19 22 22 22 22 27 27 31 30 22 17 16 16 18 21 24 27 28 30 31 34 35 37
28 29 32 35 35 33 30 39 35 33 35 35 31 34 18 13 9 12 15 18 19 21 22 22 27 26 25 19 23 21 21 21 22 26 26 27 29 32 33 34 35 38 40
33 38 42 41 41 47 52 45 33 33 32 31 28 22 12 8 8 10 14 15 14 17 19 22 19 21 26 22 23 24 25 23 23 24 25 26 28 30 32 34 35 36 36
20 32 37 34 42 41 42 34 34 34 36 31 15 11 10 8 9 14 15 16 18 18 14 18 22 20 22 23 21 21 22 26 29 31 32 33 35 35 38 39 39 39 38
21 30 33 39 42 44 35 31 27 24 24 22 12 12 12 13 13 13 16 20 19 17 20 18 19 19 16 19 21 25 27 29 32 34 34 37 38 39 40 42 44 45 45
25 21 19 28 35 31 19 22 23 16 21 16 12 11 11 10 13 15 12 18 27 19 14 13 13 17 20 23 25 28 29 30 32 34 36 38 40 40 40 40 40 42 43
16 17 13 23 16 20 24 24 21 22 18 15 13 11 6 3 7 11 13 14 13 18 16 14 18 23 25 27 29 31 32 33 35 37 39 41 42 42 42 40 38 39 41
4 4 7 12 12 17 20 17 15 14 15 14 9 5 4 6 9 10 12 9 10 11 16 20 23 26 29 31 33 35 37 38 39 40 42 42 43 43 44 45 42 40 40
16 20 21 23 19 17 15 11 7 7 7 8 10 7 8 9 11 7 3 6 11 17 20 24 28 31 34 36 38 39 41 43 43 44 45 44 43 42 43 42 41 41 40
20 21 19 16 14 13 12 11 10 10 7 10 11 7 7 9 6 5 8 11 18 22 26 29 32 35 39 41 42 44 45 46 47 47 45 44 44 44 43 43 43 42 40
19 17 16 13 11 11 11 8 10 11 10 8 9 9 11 9 8 10 14 17 22 27 30 34 37 41 43 44 45 47 47 47 48 47 46 44 43 44 45 46 44 41 40
16 15 14 11 9 9 10 10 11 11 8 12 9 9 9 9 12 15 20 23 28 32 36 39 42 45 46 47 47 47 47 48 48 46 44 44 45 47 48 45 43 43 44
13 11 7 5 7 7 7 8 7 8 9 9 7 8 10 13 16 20 24 29 33 37 40 43 46 48 48 48 48 48 48 48 46 44 44 46 49 50 49 47 49 52 54
11 9 8 7 5 7 8 9 8 8 8 7 8 11 14 18 22 25 30 34 37 41 44 47 47 49 49 48 48 48 49 47 47 47 47 50 51 51 52 53 54 57 59
11 9 8 7 8 9 11 11 9 9 9 10 13 15 18 24 27 31 34 37 40 43 45 46 48 48 46 46 49 49 46 48 50 51 54 55 54 55 57 59 61 63 63
7 8 7 9 13 14 14 14 12 13 14 16 17 19 24 29 32 35 37 40 43 43 45 45 45 47 44 50 53 49 52 53 54 54 57 58 60 62 63 64 66 66 69
9 9 9 12 15 14 13 15 14 16 18 19 20 24 30 35 38 39 39 43 42 44 45 45 45 44 48 53 52 53 55 59 58 57 60 63 65 67 69 70 72 77 79
11 12 12 12 14 15 15 14 14 17 22 24 27 30 37 40 41 43 43 45 46 47 49 45 51 53 53 54 56 59 59 60 63 66 67 70 73 76 79 82 84 85 85
15 16 15 11 12 12 11 13 15 19 24 26 30 35 42 41 42 44 46 46 46 44 47 52 48 58 55 57 59 60 62 66 70 73 74 76 79 82 84 83 82 82 75

GFSSE_500_spd_039.txt.gz
Wind_Speed
21 19 21 22 22 23 24 23 22 24 23 19 14 13 11 13 15 11 10 8 6 7 9 9 10 11 12 12 13 15 14 14 14 13 12 13 15 14 13 12 10 9 9
21 21 22 23 25 26 24 24 23 21 18 15 17 13 12 13 12 12 10 9 9 10 11 11 12 12 12 12 14 15 15 15 14 14 13 14 14 13 11 8 7 8 9
24 25 26 26 29 27 24 24 21 22 17 18 18 16 16 16 13 13 10 9 12 14 14 13 13 13 14 15 15 15 16 17 17 17 16 15 15 15 13 12 12 14 15
28 29 30 30 31 29 25 23 22 20 17 21 24 24 22 20 15 14 12 11 13 16 16 15 15 15 16 17 18 19 21 21 21 21 19 18 18 17 17 19 20 20 20
30 31 33 31 30 27 27 25 25 24 27 22 23 24 22 21 20 18 16 13 14 17 19 17 17 16 17 17 20 22 25 26 27 24 20 17 18 19 20 22 23 25 26
31 31 31 29 25 24 26 27 28 26 26 25 23 26 22 21 21 22 19 16 17 19 20 19 17 17 18 19 24 26 30 28 21 15 14 14 16 19 21 22 23 25 28
32 32 27 26 24 25 27 29 28 25 28 23 26 27 24 23 24 23 19 17 18 20 20 19 17 17 19 21 25 27 20 18 17 14 13 15 17 20 24 24 24 25 29
28 27 24 25 29 26 31 28 26 21 25 29 27 26 24 24 25 23 17 17 17 16 18 18 19 19 21 23 21 18 16 18 18 19 20 22 23 24 22 24 24 25 27
26 28 26 25 29 32 33 35 28 27 30 31 30 26 23 24 21 17 18 12 13 15 15 18 20 20 21 19 22 19 19 17 17 18 19 22 24 25 26 27 28 29 30
25 28 29 34 32 37 41 33 28 41 32 37 35 25 19 16 14 11 10 11 12 11 15 16 18 14 20 19 18 17 15 16 19 21 23 24 26 29 30 31 32 34 35
29 29 37 40 38 37 52 45 31 43 48 36 26 26 14 12 11 10 9 10 14 13 17 14 19 18 16 14 14 17 20 22 25 27 29 30 31 33 36 38 39 38 39
28 24 28 35 48 35 43 41 41 44 34 20 23 15 14 16 14 12 12 13 15 16 16 16 18 13 12 14 18 21 25 27 29 31 32 34 36 36 38 40 41 42 42
26 25 30 24 33 35 32 28 20 37 18 17 16 18 16 12 12 13 12 16 14 20 24 26 14 12 15 19 23 28 29 31 32 34 36 38 40 40 40 42 42 43 43
23 22 29 22 18 23 25 22 20 20 17 18 15 15 16 15 13 10 12 16 17 14 12 13 14 17 19 23 26 30 33 34 35 37 39 41 43 43 43 42 40 41 41
7 12 18 11 17 17 19 26 19 18 20 19 17 18 16 12 11 10 15 13 10 8 8 13 18 20 23 26 30 33 36 38 39 41 41 42 44 44 45 44 41 40 39
6 12 15 15 15 15 20 25 22 18 17 16 11 8 6 7 9 11 9 6 7 10 14 19 22 25 28 32 35 39 40 42 43 43 44 44 45 45 44 43 43 41 40
25 25 26 25 23 21 19 17 14 14 14 14 11 10 10 10 10 10 8 10 13 16 19 23 27 30 34 37 39 42 43 44 44 45 45 45 45 44 44 43 44 44 44
21 20 19 18 14 13 12 10 9 8 9 11 12 15 13 12 9 11 12 13 16 20 24 28 31 34 38 41 43 45 47 48 48 46 45 44 43 42 44 45 46 46 45
16 15 15 12 11 10 8 7 7 10 12 14 15 13 11 12 11 13 14 17 22 25 28 31 35 38 41 44 46 47 49 49 47 45 45 43 44 45 46 46 45 46 46
14 13 11 10 10 10 11 12 12 14 15 15 13 11 11 12 11 14 18 23 27 29 33 36 39 41 44 46 47 49 47 47 47 46 45 45 47 47 48 49 50 51 52
13 11 9 9 10 12 12 12 10 12 14 14 12 12 10 11 14 19 24 28 31 34 36 40 43 44 46 47 48 47 48 47 47 46 46 48 50 51 52 53 55 58 60
12 12 12 14 14 15 14 12 10 11 11 10 11 12 13 15 19 24 29 32 34 37 39 43 45 46 46 48 47 46 48 48 47 48 50 52 53 55 56 59 61 62 63
12 11 10 11 14 15 13 12 11 12 11 13 15 16 19 22 25 27 32 34 36 38 41 45 45 46 48 46 50 52 49 51 51 51 54 56 58 60 63 66 67 69 71
11 12 13 13 14 16 15 15 15 14 15 18 18 21 25 29 30 34 37 36 37 42 45 47 47 48 49 47 54 56 55 55 55 56 57 60 64 67 69 72 73 75 77
15 15 15 16 16 20 20 17 16 15 16 20 22 23 27 31 34 38 41 41 41 45 46 48 51 46 50 64 58 56 57 57 59 61 65 67 70 71 76 79 80 83 81
19 18 17 18 17 21 19 21 20 17 18 20 23 26 30 31 34 38 40 43 46 48 54 52 50 54 60 55 55 56 57 60 64 67 70 73 76 79 81 82 81 84 84

GFSSE_500_spd_042.txt.gz
Wind_Speed
30 27 27 24 23 22 21 22 22 22 20 20 19 13 10 8 6 7 8 7 6 7 7 10 10 10 10 9 10 11 12 12 13 14 14 14 14 14 14 14 14 12 9
29 28 26 26 23 23 23 24 25 23 22 22 18 14 14 11 8 9 9 9 7 7 11 13 12 11 9 9 9 10 11 12 12 12 12 13 14 13 13 13 12 12 11
30 28 25 26 25 25 26 27 27 22 17 13 14 15 15 14 14 14 11 11 11 11 14 15 14 13 11 10 11 12 13 16 17 18 17 15 15 15 14 15 15 16 16
25 26 25 27 28 29 29 29 27 21 17 14 13 15 18 18 18 16 16 14 14 15 16 17 16 14 12 12 13 14 16 20 22 22 19 15 16 17 18 19 19 21 22
26 28 29 29 30 31 30 31 26 21 19 20 21 17 15 17 18 17 18 18 18 18 19 18 18 14 13 13 14 17 20 23 23 19 15 13 13 14 15 16 16 18 21
27 29 29 30 30 30 28 26 22 23 24 22 20 19 19 20 16 17 19 21 21 21 19 19 17 13 14 15 16 19 22 20 13 12 12 12 10 13 14 16 18 19 20
35 34 33 31 27 26 27 24 26 25 26 21 21 21 20 21 19 19 22 21 23 22 20 20 16 14 14 16 18 21 15 19 15 13 15 16 17 19 20 21 22 21 21
31 33 31 27 25 28 32 30 27 26 23 21 22 21 24 22 19 21 20 20 21 20 19 17 14 14 14 17 20 16 20 17 15 14 13 14 16 18 20 20 22 24 26
27 29 27 25 27 26 35 34 20 27 22 22 23 25 30 26 22 20 19 20 19 17 16 12 13 13 13 11 17 15 13 11 11 16 18 21 22 23 25 24 24 26 28
29 31 27 28 32 33 48 50 34 32 29 29 33 30 36 18 23 25 22 16 13 11 12 12 11 8 11 12 14 15 14 15 17 19 21 23 26 29 28 30 29 32 33
33 28 25 30 30 29 37 39 40 43 33 31 38 33 22 18 19 18 13 12 11 11 11 12 9 12 11 14 15 14 16 19 22 24 25 27 30 33 35 37 38 40 41
31 33 31 28 34 40 46 47 44 48 45 29 31 27 17 19 17 13 13 12 12 12 12 11 12 14 13 14 15 18 21 24 25 29 32 34 34 36 38 40 41 42 43
32 27 28 32 35 36 38 48 49 50 37 28 17 19 17 18 12 13 12 15 14 13 11 14 15 17 14 16 18 21 26 29 32 34 36 37 38 39 40 41 42 43 42
29 29 28 27 29 30 31 39 39 36 18 25 29 17 16 15 12 12 13 14 12 14 14 10 10 12 15 19 22 26 30 32 36 37 39 41 42 42 42 41 42 42 42
27 22 27 29 30 33 20 27 28 23 28 24 19 19 17 14 13 13 13 13 15 14 9 10 12 15 18 23 27 30 33 36 39 41 42 44 45 45 45 44 42 40 39
23 24 22 23 22 16 17 22 29 28 21 20 21 20 19 17 14 12 12 13 10 9 9 12 16 20 24 28 32 35 37 40 42 43 45 45 46 45 44 43 41 40 39
10 15 23 24 23 14 17 20 23 23 21 18 17 14 12 10 10 11 11 10 11 9 12 17 21 25 28 32 36 38 40 42 44 45 46 46 45 45 44 42 42 41 39
21 25 25 24 23 23 21 19 18 16 15 16 13 12 12 11 12 11 12 12 11 14 18 21 25 29 34 38 40 42 42 44 46 48 47 47 45 45 43 42 42 40 40
17 17 17 18 18 17 15 13 12 12 11 11 13 14 14 16 14 12 11 12 15 19 23 27 31 34 37 40 44 44 45 48 49 47 45 44 45 45 45 42 42 43 44
14 12 11 10 11 13 11 10 8 7 9 12 13 16 15 16 13 11 13 14 18 22 27 31 34 38 40 45 46 46 48 47 44 45 47 47 46 46 45 46 47 49 51
12 10 9 8 8 9 10 12 12 12 12 13 15 16 15 14 14 14 15 19 22 27 31 34 36 38 43 46 46 50 48 45 46 49 49 50 48 48 49 52 55 57 60
8 8 9 10 10 12 12 9 9 9 13 15 16 15 15 15 16 18 20 24 27 30 34 37 38 42 42 48 48 50 47 52 51 55 56 53 51 52 55 57 61 64 65
12 11 10 11 12 14 14 16 11 12 14 15 14 16 18 18 21 24 29 33 34 37 38 39 42 44 47 51 50 51 49 53 59 62 56 54 54 57 60 64 67 70 71
13 12 12 13 14 16 16 17 14 13 16 17 18 18 19 22 25 30 32 36 39 39 41 41 44 48 51 54 53 54 52 60 58 61 59 57 58 62 67 70 72 74 75
15 15 14 15 15 16 17 20 20 19 18 18 17 19 22 24 27 30 33 36 41 42 44 44 44 51 53 58 57 61 59 57 58 58 58 62 65 68 71 75 77 78 78
19 19 18 17 17 20 21 24 24 25 25 22 19 20 24 28 30 30 33 37 42 44 47 47 50 56 58 62 61 61 59 60 58 58 61 63 67 72 76 79 81 80 81

GFSSE_500_spd_045.txt.gz
Wind_Speed
36 31 27 28 27 25 25 25 25 23 22 22 21 19 15 12 10 8 8 8 9 8 8 10 9 8 7 7 8 8 8 9 12 12 13 12 12 12 12 12 12 12 11
34 34 31 29 29 27 27 26 24 23 22 21 22 21 16 18 14 11 11 9 9 9 10 11 10 9 9 8 7 8 9 9 11 13 13 14 14 14 14 13 12 12 10
35 32 31 30 30 31 28 27 25 23 22 21 20 17 17 17 20 13 11 10 12 12 13 12 12 12 11 9 8 10 10 13 15 18 18 18 15 14 14 15 14 14 15
39 34 32 30 29 29 28 25 26 25 22 16 16 16 17 18 20 17 14 14 13 14 15 14 15 15 13 11 10 11 12 16 17 19 17 15 14 14 14 15 15 16 17
37 29 29 31 32 28 28 28 29 29 25 18 21 22 20 19 19 18 17 17 16 14 17 17 18 17 15 13 12 12 13 17 17 15 13 11 12 12 12 13 14 16 17
25 24 21 25 18 25 29 30 31 29 25 24 24 21 21 21 20 18 16 17 16 17 18 20 20 18 15 12 13 15 15 15 15 17 12 10 11 13 15 16 18 19 20
25 22 24 26 27 29 28 27 25 25 24 25 24 20 21 21 22 22 19 17 19 18 20 22 19 16 17 13 15 16 16 17 19 12 12 11 11 12 15 15 16 18 20
21 30 33 32 31 29 27 25 25 31 25 27 24 21 22 25 24 23 18 19 18 18 19 20 17 15 15 13 15 14 16 13 12 9 11 13 15 18 20 21 21 22 23
28 27 29 31 31 32 32 30 31 36 29 30 24 21 23 26 28 25 21 18 18 19 19 19 16 11 11 13 11 15 11 10 9 12 14 17 19 20 22 24 24 25 27
33 29 37 30 32 32 30 36 31 39 29 34 29 23 26 33 32 22 20 20 18 19 15 12 10 10 9 10 10 9 11 12 13 16 19 22 24 25 26 29 30 31 33
30 32 28 33 38 36 31 33 41 38 36 41 34 29 36 38 23 22 18 19 13 12 11 9 9 8 10 12 10 12 13 15 18 21 23 26 28 30 32 34 36 36 37
34 31 33 27 27 29 33 38 40 34 44 55 42 38 34 31 21 15 15 14 13 10 9 10 12 12 10 12 12 14 17 19 23 26 29 30 32 34 37 39 40 42 42
31 32 29 31 25 27 25 33 34 48 37 41 46 40 32 24 15 15 14 12 10 10 13 10 12 11 11 13 13 17 21 25 28 30 33 36 37 38 40 41 43 43 43
33 33 30 30 25 27 38 44 38 31 40 39 40 29 30 23 17 14 12 10 11 13 12 12 11 9 9 13 17 22 25 28 32 35 37 39 39 41 43 43 43 42 42
29 28 30 28 26 29 31 30 32 36 25 31 30 31 20 17 16 13 12 11 12 12 12 11 10 9 13 17 21 25 30 34 37 39 40 42 43 46 47 46 44 43 40
28 24 25 29 29 28 28 33 37 33 30 36 30 20 19 17 15 13 11 11 12 10 9 9 9 14 18 21 25 29 33 36 40 42 43 42 46 48 48 48 45 43 41
20 24 29 28 30 27 26 25 23 26 29 31 21 17 15 13 11 10 10 11 10 8 10 12 14 18 22 26 29 32 34 40 42 42 45 49 49 47 46 47 48 46 45
18 16 19 25 26 23 21 10 16 19 21 18 15 13 14 11 12 11 9 9 9 12 12 16 19 23 26 29 33 35 38 42 44 45 47 47 45 47 46 46 48 48 46
10 17 21 21 20 19 22 17 16 15 14 13 12 12 14 13 12 11 8 13 14 14 16 20 23 26 29 32 34 36 40 44 46 47 46 44 46 50 51 49 49 46 44
15 15 15 15 16 15 16 14 14 13 11 11 14 15 15 14 14 12 12 14 15 18 22 23 25 30 32 34 35 37 42 45 47 48 48 46 49 52 54 53 50 47 47
9 10 8 9 9 9 8 7 6 6 10 13 14 14 15 14 15 14 14 15 20 23 25 27 28 32 35 36 38 41 46 46 48 46 48 52 56 56 52 52 52 53 53
6 5 3 3 4 5 5 3 4 7 9 13 15 16 16 16 14 16 17 20 24 28 30 33 38 40 38 38 41 45 49 53 54 52 52 53 53 53 54 53 51 54 56
4 5 6 5 5 6 7 10 11 12 12 13 13 15 14 15 16 19 21 25 29 35 37 39 39 42 44 44 46 47 53 57 63 62 59 58 58 56 57 56 58 59 60
8 8 7 7 7 8 10 14 15 15 13 15 16 16 16 18 21 23 27 30 33 36 38 39 39 42 45 47 50 52 58 63 67 62 65 65 63 61 59 57 61 64 67
11 12 11 12 13 13 13 15 16 16 20 19 21 23 23 23 23 25 27 31 35 37 38 41 43 44 49 53 56 57 63 67 66 60 61 62 65 65 65 63 63 66 72
14 16 16 17 17 16 16 18 20 25 24 23 25 25 25 24 24 25 28 31 35 38 40 43 45 45 50 52 54 60 68 68 66 65 65 65 63 65 71 72 73 76 78

GFSSE_500_spd_048.txt.gz
Wind_Speed
41 41 37 32 30 29 28 26 25 25 25 25 24 23 18 16 15 14 14 13 13 12 11 12 10 10 9 9 9 9 7 8 8 7 9 10 11 10 10 10 10 9 9
40 43 38 28 27 27 27 26 26 27 28 26 23 22 18 17 17 16 16 15 13 12 12 11 10 11 10 9 9 9 9 8 8 9 11 12 12 12 12 11 11 12 12
14 35 37 32 29 28 27 27 28 28 27 24 22 20 19 15 16 18 17 15 13 13 11 12 12 10 11 10 11 11 11 10 12 13 13 14 13 11 12 12 12 13 15
29 23 28 33 30 32 31 31 31 28 25 24 21 19 16 16 17 19 19 18 17 14 13 13 13 13 12 12 14 12 11 11 12 13 13 12 12 10 11 12 12 12 13
40 30 32 31 35 33 32 30 29 27 25 24 22 17 17 20 19 18 19 18 16 15 15 14 14 14 16 14 14 13 12 13 12 12 13 11 9 9 10 11 12 13 15
28 19 35 34 32 41 31 30 28 28 27 25 23 22 23 25 23 23 22 15 15 16 16 15 15 17 17 16 15 11 12 12 14 15 12 10 10 10 11 13 13 15 15
24 24 30 26 29 17 28 29 27 26 27 25 25 24 24 25 23 22 21 17 16 15 15 15 16 18 18 17 15 11 11 10 13 10 9 10 10 11 13 16 17 19 20
23 23 22 26 20 18 18 21 22 23 25 28 27 26 24 26 24 23 21 18 15 15 13 13 16 18 16 13 11 9 9 12 7 7 8 10 12 15 16 17 18 21 21
20 20 23 24 22 26 27 27 28 28 28 33 28 28 26 26 25 25 21 22 16 13 13 13 13 15 9 8 7 8 11 7 7 7 12 14 16 18 20 21 22 24 25
21 23 25 29 24 39 39 35 32 33 30 31 33 32 29 25 25 27 25 25 18 14 12 12 8 6 6 5 7 10 7 9 9 13 15 18 21 21 23 24 25 28 30
20 26 23 21 21 19 32 34 38 34 31 35 38 41 33 28 30 33 23 20 15 12 9 7 7 6 7 8 7 8 9 10 12 16 19 23 25 26 27 28 30 33 34
24 23 22 21 23 28 22 29 35 34 23 29 37 43 33 33 29 23 20 19 11 10 9 8 8 9 10 9 9 10 10 14 16 21 23 24 25 28 31 33 38 40 42
24 25 23 23 27 28 30 17 21 27 39 35 38 42 42 46 23 21 21 13 12 12 11 10 11 13 12 11 9 10 13 17 19 23 24 28 32 34 36 39 43 46 46
22 23 27 23 30 30 27 21 29 34 30 37 32 34 35 38 24 22 12 14 13 13 11 10 10 11 9 9 9 13 17 20 22 26 30 33 36 38 41 43 45 46 44
25 25 27 30 29 30 20 15 22 36 37 26 22 23 29 37 31 21 18 15 13 10 9 9 12 11 9 9 12 17 21 23 25 29 34 35 39 41 44 44 44 45 46
27 27 25 27 28 27 36 30 33 23 31 27 25 24 29 26 20 15 15 11 11 10 11 12 11 10 10 13 17 20 23 26 29 33 33 37 38 41 42 43 44 45 45
24 27 27 24 18 22 26 22 24 27 29 35 23 22 24 20 19 15 11 10 11 10 10 11 10 11 15 17 21 22 24 27 30 34 36 34 37 38 40 42 43 45 45
21 17 18 23 27 25 29 20 19 22 16 11 15 20 20 17 14 13 12 9 10 11 10 11 13 17 19 20 22 23 26 28 32 35 37 40 39 39 40 42 45 46 46
20 17 12 13 16 20 20 15 11 8 10 15 17 14 12 11 11 9 7 7 10 13 14 16 19 20 21 22 23 27 29 31 34 37 41 44 46 47 45 47 49 49 49
14 12 15 12 13 18 17 22 18 15 15 12 9 7 7 7 7 9 10 12 13 16 19 21 21 24 25 27 31 30 30 33 37 41 45 47 48 52 53 51 50 50 49
14 16 16 15 13 15 14 12 11 8 5 4 3 5 7 8 12 14 15 14 17 18 20 23 26 28 32 34 35 34 36 38 42 45 48 52 55 55 54 53 53 54 52
7 9 10 11 9 9 8 8 7 4 3 2 4 8 10 14 17 17 18 17 18 21 24 27 32 34 37 36 34 37 39 43 45 49 51 53 57 60 57 58 57 54 54
5 7 8 8 9 8 7 7 6 7 8 9 9 10 14 16 16 17 17 20 22 27 25 31 35 35 36 36 39 41 41 46 50 53 57 60 64 62 58 60 58 57 59
3 3 5 7 8 8 8 7 8 10 10 12 14 15 15 16 19 19 22 25 25 28 31 31 34 34 37 39 42 46 48 50 53 59 60 65 68 67 64 61 61 60 66
5 4 5 5 7 8 10 10 11 10 10 12 16 18 20 26 25 24 25 28 29 28 30 31 35 37 41 44 45 50 51 55 58 60 62 70 70 67 69 66 62 65 68
9 9 10 10 11 11 12 12 13 12 12 14 17 17 29 34 34 28 29 25 29 30 30 34 37 38 39 42 47 51 56 58 64 66 69 69 67 67 67 66 66 69 73

GFSSE_500_spd_051.txt.gz
Wind_Speed
28 40 42 41 33 35 33 32 29 27 27 26 25 24 23 23 23 20 18 16 17 16 18 18 16 16 13 12 11 10 8 9 10 11 10 10 10 10 9 9 9 7 7
33 36 37 47 33 30 32 31 29 28 27 26 25 23 23 22 18 19 17 17 19 19 18 16 15 15 13 12 10 10 9 11 12 12 12 13 13 13 11 10 10 9 9
31 25 55 39 34 34 31 32 32 30 29 28 26 23 22 17 17 16 19 19 19 18 17 14 14 13 13 11 10 11 10 12 12 13 14 15 14 13 12 11 10 11 11
40 43 38 31 35 33 35 35 32 30 29 28 25 22 20 16 15 19 19 19 19 17 16 14 14 15 13 13 13 12 12 11 10 11 10 9 9 9 8 8 8 9 9
48 47 55 40 34 38 38 38 34 32 31 29 25 21 16 17 19 18 18 18 17 18 18 16 15 16 15 15 14 12 12 9 10 9 10 8 6 6 7 9 8 9 10
53 45 51 35 39 39 48 41 34 36 33 29 26 20 17 21 24 23 23 21 18 16 18 19 18 15 15 16 14 12 12 8 6 7 6 5 5 5 6 9 11 12 14
39 28 28 28 29 33 40 47 39 37 31 28 24 22 24 27 27 24 23 23 20 16 17 17 16 17 16 15 12 9 8 4 6 5 3 4 6 9 11 12 14 15 16
29 27 26 30 29 31 43 43 44 35 29 28 24 25 25 27 25 25 23 23 20 18 17 16 15 14 15 13 12 5 3 5 3 4 5 6 8 11 13 15 17 18 18
22 22 25 24 23 24 30 29 27 27 29 26 25 25 23 25 26 24 25 23 20 17 16 15 14 13 12 8 6 4 3 5 3 5 7 9 12 14 15 14 16 18 21
18 20 22 23 20 16 20 26 25 28 28 26 27 30 25 28 25 27 26 23 20 22 19 14 12 10 8 7 5 1 2 4 4 7 9 12 14 15 17 19 21 23 26
19 22 21 20 19 23 22 20 25 31 31 32 28 30 25 26 28 32 32 25 19 17 15 12 9 9 9 7 3 2 4 7 6 9 13 16 16 17 19 23 26 29 31
17 19 20 18 22 23 16 11 16 30 38 28 31 32 31 31 40 41 38 27 19 17 13 14 13 10 9 7 5 6 6 10 9 11 15 16 19 23 26 29 30 31 32
19 20 23 24 17 15 10 13 17 18 20 32 34 35 39 33 27 38 34 23 20 14 16 15 13 11 10 9 10 10 8 11 13 14 15 18 22 25 27 28 31 32 33
19 19 18 16 20 16 12 18 20 18 20 21 21 19 24 30 19 30 24 23 16 18 18 16 13 10 10 10 9 9 10 12 16 14 17 21 23 24 26 28 29 30 32
20 19 20 18 18 22 22 23 24 15 15 16 23 27 14 16 18 22 21 21 18 16 16 14 12 10 12 11 10 10 12 15 17 18 20 21 23 26 27 28 30 31 33
23 22 23 20 21 22 23 23 21 16 21 14 16 19 20 16 17 24 24 21 18 15 15 13 11 11 12 12 11 13 15 17 17 19 22 23 25 27 29 32 33 35 36
21 19 21 21 22 24 25 19 17 15 18 18 23 26 24 13 14 19 21 19 15 13 11 12 12 13 13 13 13 16 17 19 21 22 24 26 29 31 33 36 37 39 40
21 24 16 19 22 24 18 16 16 19 21 17 12 10 11 16 23 24 16 12 14 12 13 14 15 14 15 15 18 18 19 22 24 26 28 30 32 36 39 41 43 45 45
14 11 15 16 19 23 21 18 15 17 19 18 8 10 16 21 17 16 12 11 11 14 17 16 16 16 17 18 20 21 27 26 26 27 31 36 37 39 42 44 46 49 49
12 6 10 9 7 10 10 15 13 15 20 21 20 19 18 17 14 12 10 10 11 15 16 17 17 18 19 22 25 28 29 27 27 31 34 37 41 45 47 49 50 54 53
20 20 18 19 22 23 19 16 17 17 14 14 12 9 10 11 12 12 12 13 13 18 18 19 20 23 25 26 31 32 31 29 30 34 36 41 43 46 49 50 54 56 55
13 16 18 18 19 15 15 12 15 13 12 9 6 2 3 8 11 13 14 15 16 20 20 21 23 24 28 31 33 32 33 32 37 40 44 47 51 52 52 53 58 59 55
11 13 14 14 14 12 11 11 10 11 10 8 6 1 5 9 13 15 14 17 20 20 22 23 26 29 33 32 34 34 35 37 41 43 47 50 53 55 57 59 63 61 56
8 8 9 10 11 12 11 10 9 7 5 2 2 2 4 7 10 14 17 18 20 22 24 25 27 29 33 34 34 36 39 40 44 47 49 53 56 57 63 66 63 60 59
6 4 4 5 6 5 5 6 6 3 2 4 4 8 11 11 14 21 24 26 25 26 28 29 28 31 33 36 39 39 39 43 48 49 51 58 63 63 69 66 65 64 64
4 2 1 1 1 1 2 3 4 6 7 3 10 8 8 8 16 16 32 31 28 31 29 29 34 33 34 30 37 40 42 46 51 54 55 63 64 70 68 67 67 65 66

GFSSE_500_spd_054.txt.gz
Wind_Speed
41 46 45 40 43 39 38 40 31 30 31 29 30 26 24 22 21 21 20 19 19 20 18 18 17 17 14 13 13 13 13 12 13 13 13 11 10 9 10 10 10 8 8
38 40 49 47 54 45 46 42 34 35 35 33 29 28 26 23 21 21 18 17 18 18 18 19 17 15 13 12 13 13 12 12 12 13 14 12 12 13 11 10 10 9 9
43 46 34 34 35 45 47 38 35 34 34 32 29 28 27 24 22 18 19 20 19 20 20 19 16 13 13 12 15 12 12 13 12 14 14 13 12 9 8 8 8 8 7
45 48 58 50 25 39 47 42 39 36 33 31 30 27 25 22 21 20 20 20 21 20 19 17 16 14 15 14 15 14 12 13 12 11 11 9 7 6 5 4 5 5 6
38 42 48 51 47 35 36 37 35 37 33 32 31 26 23 21 19 20 20 21 20 20 19 18 20 18 17 16 15 15 14 13 11 10 7 5 4 4 4 4 5 6 7
34 40 42 52 49 49 43 45 41 39 35 35 31 27 26 21 17 19 20 20 20 18 17 19 21 19 17 17 15 16 14 10 8 4 2 1 2 3 4 6 7 9 11
44 44 38 43 47 53 39 48 52 42 40 36 33 30 27 22 22 24 23 23 22 21 19 19 19 19 19 18 17 14 13 8 5 4 3 3 3 4 7 8 9 10 12
41 57 41 33 31 18 38 45 55 46 39 36 34 30 28 24 24 24 25 24 22 21 22 21 21 18 18 15 17 11 8 6 6 5 5 4 4 6 8 10 10 11 14
23 39 31 27 20 20 23 34 29 44 41 39 35 29 28 25 24 24 24 23 24 24 24 22 20 19 17 10 16 11 9 7 7 6 4 5 6 10 11 11 12 15 17
14 24 24 25 22 21 21 29 51 46 40 43 33 31 29 25 22 21 23 27 28 28 25 23 20 18 18 11 14 12 10 8 8 7 6 6 10 12 11 13 16 19 21
21 17 20 19 20 20 21 30 25 40 45 34 25 29 29 25 23 19 26 31 31 27 28 28 22 18 14 15 16 11 9 8 8 7 7 9 11 12 15 17 18 18 18
20 20 17 20 22 15 22 23 17 22 25 25 29 27 28 25 24 24 27 28 33 31 27 23 17 16 15 16 14 12 12 12 10 9 11 11 11 15 17 16 17 17 18
12 14 19 15 21 24 19 18 8 8 14 26 29 29 28 29 27 32 29 23 21 31 30 21 18 18 18 16 15 14 14 12 11 12 12 12 14 17 18 17 18 20 22
13 17 17 20 18 9 9 6 5 7 10 16 14 22 25 12 20 14 19 15 20 23 25 20 19 18 16 15 14 15 13 11 12 13 14 14 16 17 18 19 22 24 26
12 18 17 16 15 11 9 8 11 10 14 12 12 12 14 21 19 18 16 20 18 24 24 22 19 17 17 16 15 14 11 12 13 15 15 16 18 19 20 22 25 28 30
15 17 20 20 21 16 14 16 13 16 19 10 12 12 13 18 21 13 15 20 22 25 22 20 18 18 16 15 15 14 14 15 16 17 17 19 21 22 24 27 29 32 33
17 19 23 24 22 20 16 24 25 18 16 19 16 16 17 23 22 13 14 22 25 22 19 18 17 17 18 18 16 15 15 15 18 19 21 23 24 26 30 31 33 36 38
19 20 22 25 23 23 21 20 16 14 13 18 21 17 24 27 20 16 13 20 18 15 17 17 17 17 18 18 17 16 16 19 19 23 24 25 25 27 29 33 37 39 41
18 23 25 28 24 22 21 19 16 17 21 21 18 20 19 19 17 17 26 20 18 19 15 16 19 21 19 18 17 18 20 21 25 28 26 24 26 29 33 38 42 45 44
13 20 22 22 22 19 17 17 21 23 20 22 24 25 23 20 25 25 17 15 14 15 19 21 21 20 20 20 20 22 23 27 31 31 30 28 30 34 38 42 44 47 46
22 15 13 14 12 7 10 16 19 14 16 15 21 23 20 21 18 18 15 15 15 18 19 21 22 22 24 23 24 25 26 31 30 32 33 34 36 37 39 42 45 49 50
18 20 20 21 22 18 19 19 19 16 17 15 14 15 18 18 17 17 17 17 18 18 21 23 23 24 24 24 27 31 31 31 30 31 34 36 36 39 40 43 47 52 54
12 15 17 17 17 17 17 17 16 15 16 14 12 12 12 14 16 16 17 18 19 21 24 26 25 26 26 27 30 33 35 35 35 37 38 38 40 44 47 50 51 56 58
10 10 14 15 16 15 15 14 14 12 12 11 9 6 6 6 8 9 14 18 20 21 22 24 26 28 29 30 31 34 37 38 36 37 41 40 41 44 47 50 54 62 63
7 9 10 11 12 12 11 11 9 8 6 5 5 3 2 5 5 7 13 20 23 24 25 25 30 29 33 35 35 37 39 31 38 41 45 39 47 50 54 57 63 64 61
2 3 4 6 7 6 6 7 8 6 2 5 3 3 6 5 6 7 8 11 24 30 32 33 30 31 31 36 34 31 33 35 39 40 41 47 50 51 53 58 59 61 61

GFSSE_500_spd_057.txt.gz
Wind_Speed
31 35 36 41 44 41 43 35 29 31 23 21 21 22 23 26 23 25 22 20 20 21 18 17 16 13 11 13 11 11 10 10 11 12 11 12 12 10 10 9 7 7 6
27 37 41 37 40 49 44 49 38 22 28 22 22 23 26 25 23 24 23 22 19 18 18 18 16 14 13 12 11 11 12 13 13 13 13 12 12 12 10 8 8 7 7
32 39 44 40 42 42 31 34 34 32 24 25 24 25 25 25 25 24 23 21 19 19 18 17 17 15 14 13 13 12 14 14 13 14 14 12 9 7 7 6 6 6 6
35 35 35 37 39 45 35 38 33 34 34 31 27 29 24 26 24 19 19 19 19 17 17 18 18 17 16 15 15 14 15 13 13 14 13 10 8 4 2 2 3 4 4
35 34 37 40 41 45 30 32 32 35 36 24 31 30 25 25 22 21 20 19 16 18 18 19 19 19 19 19 18 16 15 14 13 12 10 7 5 4 4 2 4 6 7
32 32 35 31 35 39 38 47 39 42 43 31 32 28 27 24 21 22 19 14 16 16 17 17 19 21 22 20 20 16 15 13 13 9 7 6 5 4 4 5 7 8 8
27 33 36 35 34 36 42 43 32 34 39 38 34 31 29 25 24 23 21 18 18 20 19 20 21 20 20 21 20 17 17 14 11 8 8 8 5 5 5 6 7 8 9
33 39 38 40 38 40 36 35 37 47 47 41 35 35 30 27 26 22 21 20 21 21 20 21 21 20 20 19 18 18 16 12 11 11 10 7 6 6 7 7 8 10 13
33 36 42 43 39 38 29 36 54 49 55 41 35 37 33 28 27 22 24 22 23 22 21 20 22 22 22 21 20 17 15 13 13 12 10 9 8 7 8 9 10 13 16
31 35 42 39 36 38 23 24 15 22 43 46 49 40 35 28 25 22 23 22 20 22 23 22 22 23 25 26 20 17 16 16 15 13 12 10 8 9 9 11 13 16 17
28 34 30 31 28 24 32 17 10 19 31 45 40 36 30 29 26 25 25 23 18 22 28 25 25 24 25 25 17 16 18 17 15 14 12 9 10 10 11 14 16 14 14
18 24 25 24 24 22 21 19 18 24 26 40 44 34 31 29 25 25 25 25 23 23 24 26 28 26 26 21 16 19 19 17 15 13 11 12 13 12 13 14 13 13 16
8 17 24 21 25 24 24 22 22 15 21 38 39 29 30 25 24 33 27 24 28 25 21 22 32 26 22 23 23 20 18 16 14 13 14 15 15 15 15 13 15 16 19
5 8 11 26 15 7 10 21 17 14 19 18 23 28 25 28 24 18 31 25 18 23 23 23 29 26 25 25 24 21 18 17 17 16 17 16 16 17 17 16 18 19 22
10 11 14 15 13 5 9 6 12 8 8 19 25 23 23 24 31 17 19 21 17 23 21 25 28 23 23 25 24 23 21 20 19 18 17 17 18 17 17 19 20 21 24
10 10 14 15 12 13 7 13 12 6 10 12 23 21 20 22 18 21 22 23 18 21 18 26 24 24 25 25 24 22 22 20 18 18 18 19 20 18 19 20 20 22 26
15 18 17 18 18 16 16 12 11 11 9 15 20 12 16 23 17 21 23 20 19 19 22 24 24 24 24 24 24 23 21 18 19 19 20 22 22 22 24 24 23 27 31
16 20 19 17 20 18 19 20 14 16 16 20 17 17 18 19 20 24 23 17 19 22 26 28 26 22 22 22 23 22 21 21 20 21 22 23 26 26 26 26 29 33 35
21 20 17 15 22 19 19 20 25 22 19 19 18 20 21 24 25 27 24 19 20 22 19 20 21 23 24 23 25 24 23 22 22 24 25 29 32 32 31 30 32 36 37
14 19 19 20 19 21 23 26 26 24 22 21 23 28 25 25 24 27 23 18 21 19 19 20 23 24 23 24 26 26 24 24 25 26 28 31 33 33 33 35 35 37 37
13 17 19 18 22 27 27 27 30 30 24 25 25 27 27 24 24 22 20 26 25 21 21 21 21 22 23 27 27 26 25 27 27 29 30 31 31 32 35 36 38 40 43
10 12 11 9 14 22 26 27 25 25 22 26 27 25 17 18 18 22 24 23 21 19 20 20 21 24 28 29 27 28 28 28 32 33 34 35 37 36 35 37 37 42 45
10 14 15 15 15 16 17 20 20 17 16 17 16 16 17 17 20 21 18 19 20 21 21 22 23 28 29 31 30 30 31 30 31 33 36 38 37 38 37 36 39 45 48
10 11 8 8 12 15 16 16 17 19 17 14 14 15 15 18 19 20 20 21 21 21 22 25 28 28 30 32 32 33 34 35 37 39 39 37 36 39 44 44 46 50 52
8 10 11 11 11 13 14 15 16 15 13 13 15 14 15 17 18 17 17 18 20 21 25 26 29 29 30 33 34 32 37 40 41 41 36 36 39 40 41 44 48 52 54
5 7 9 9 8 9 11 12 13 14 14 14 15 16 18 17 16 13 10 10 12 16 22 30 34 32 31 34 30 35 37 40 38 36 37 37 37 40 44 48 51 53 54

GFSSE_500_spd_060.txt.gz
Wind_Speed
42 39 43 35 31 37 36 38 37 28 27 29 26 21 19 16 13 12 13 15 15 17 18 17 17 15 15 13 13 12 12 12 13 14 12 11 12 11 11 10 8 6 5
44 38 32 30 42 30 26 35 39 36 22 26 18 22 18 13 12 13 15 16 15 13 16 15 15 16 14 13 13 12 13 14 14 14 11 10 10 9 8 7 7 6 6
36 41 39 40 31 34 29 35 39 40 38 31 24 25 18 15 14 15 14 14 13 13 14 17 16 15 15 13 13 13 13 14 14 14 13 12 10 8 5 4 3 4 3
28 44 39 29 30 33 35 36 38 32 32 34 29 25 19 15 14 14 15 15 11 16 15 14 15 18 18 18 16 15 15 16 14 13 13 11 9 6 3 1 2 2 3
27 24 28 32 30 31 33 32 31 29 27 33 26 26 22 19 16 16 16 15 13 13 13 12 17 19 21 19 18 20 19 17 15 13 14 9 6 5 4 2 2 4 5
25 26 20 21 26 30 31 33 34 23 21 29 31 27 26 23 18 18 15 13 13 13 14 15 18 17 18 20 22 20 17 16 14 13 13 8 7 5 4 5 6 6 7
25 23 32 34 34 30 29 31 31 37 28 31 38 36 27 23 20 21 17 16 13 17 16 21 20 20 20 20 20 20 19 15 14 14 9 8 9 7 7 7 7 6 6
27 24 23 25 32 34 30 29 32 33 31 20 39 43 32 26 24 22 18 15 14 17 22 21 22 20 17 17 18 19 21 16 14 11 11 12 10 9 8 8 7 7 9
27 30 31 31 35 33 31 31 32 26 35 30 37 40 34 28 27 21 18 17 17 18 20 21 20 19 19 18 20 20 19 14 12 14 14 13 11 10 9 8 8 9 11
29 29 33 32 30 26 29 33 31 34 37 27 36 40 33 32 29 23 20 19 20 19 18 21 22 21 21 21 20 19 17 15 17 17 16 14 13 11 9 9 10 11 13
30 37 31 35 34 27 28 29 18 13 33 29 37 37 31 34 27 24 23 19 19 18 20 19 22 25 24 23 21 21 21 19 20 19 17 16 14 12 11 11 12 12 11
12 17 21 28 37 29 27 27 29 22 13 21 32 43 38 30 29 26 25 21 21 22 24 24 23 26 26 25 23 19 20 23 23 20 18 17 15 13 12 12 13 12 13
5 9 15 22 24 34 26 15 11 16 21 23 23 42 39 39 27 28 25 24 23 25 23 26 26 25 28 27 22 19 22 24 23 20 20 17 16 16 15 15 14 13 14
2 13 15 21 18 25 24 20 22 20 17 28 31 41 37 32 27 25 22 25 30 30 27 25 26 26 23 26 20 23 24 24 23 21 19 19 18 18 18 17 16 16 16
7 9 7 10 23 10 11 15 23 23 16 19 28 29 32 29 29 27 25 18 23 30 29 26 23 19 22 24 25 25 25 24 22 21 21 20 19 19 19 18 18 19 19
10 9 16 13 17 13 11 11 14 18 18 20 24 27 32 26 26 31 26 26 24 28 30 26 23 20 26 31 29 28 27 25 23 24 23 20 20 21 20 21 21 22 23
15 14 16 18 17 12 14 16 16 16 13 12 23 30 26 24 24 22 24 21 25 27 29 26 22 21 25 23 27 27 26 25 25 24 22 22 22 23 24 23 25 27 27
16 16 18 20 12 14 15 17 17 18 18 12 17 24 22 17 22 24 19 18 22 24 25 25 21 24 23 25 27 29 28 28 27 25 23 23 23 25 27 29 29 31 33
16 17 19 16 17 18 16 18 21 20 21 20 21 26 24 20 21 22 23 23 26 25 23 23 21 21 24 27 30 29 27 27 27 25 24 23 24 28 30 31 33 34 36
14 18 17 15 18 20 16 16 20 23 24 19 21 22 25 22 22 24 25 27 29 24 23 24 23 24 24 24 26 27 31 29 28 27 25 25 28 30 32 32 32 35 36
9 13 19 22 19 17 17 19 19 22 21 26 24 23 28 26 25 25 24 25 25 20 19 16 20 24 23 23 26 28 29 30 30 28 27 31 32 32 34 37 37 35 36
3 9 12 17 23 23 20 21 21 27 26 27 29 27 32 33 29 27 25 23 22 18 22 24 22 21 22 26 29 29 29 32 32 29 32 33 33 34 37 40 35 36 39
7 6 5 4 8 12 23 25 24 26 30 33 31 26 30 31 25 28 26 24 27 26 24 21 20 22 24 25 27 29 33 33 34 33 34 34 36 39 40 37 36 39 40
4 4 5 4 4 2 6 6 15 22 17 22 23 25 24 20 20 22 24 24 26 24 19 18 23 26 26 27 30 33 35 35 36 38 37 38 40 41 39 37 39 39 41
3 5 5 5 5 5 7 8 11 15 14 15 15 16 19 20 20 22 22 22 22 20 20 25 27 27 28 29 31 33 34 36 36 38 38 38 39 37 38 36 37 41 45
5 4 3 3 4 5 6 8 10 11 13 12 13 14 16 17 19 22 22 21 20 18 22 26 25 25 29 33 34 35 40 39 35 38 40 36 38 39 37 37 41 45 48

GFSSE_500_spd_063.txt.gz
Wind_Speed
42 40 42 42 36 31 26 24 30 32 32 22 37 33 36 26 18 18 12 10 9 8 9 10 8 9 10 11 11 13 13 14 14 13 13 15 14 14 12 12 9 7 6
41 43 41 40 40 36 31 23 27 29 31 31 31 34 29 28 24 19 14 11 9 7 7 7 9 9 10 10 12 16 16 16 13 12 15 14 14 12 11 9 7 7 6
33 35 41 41 40 37 39 36 21 24 26 30 21 32 30 29 24 19 14 10 8 5 6 9 10 11 10 13 14 16 15 14 13 14 13 14 13 12 9 7 4 3 4
30 29 32 40 38 41 28 33 36 22 24 28 33 24 29 29 20 16 13 9 8 9 8 11 10 11 12 14 15 15 16 14 13 14 13 14 13 8 5 4 2 2 3
26 30 31 31 43 37 36 28 26 32 26 22 32 30 31 26 23 18 15 15 13 7 12 12 10 13 14 15 16 16 15 16 15 15 13 13 10 6 6 6 4 5 5
22 32 26 34 35 37 44 24 28 25 21 19 29 32 36 30 24 21 19 14 10 11 13 13 13 14 18 16 16 16 16 16 16 15 14 13 9 9 8 7 6 7 6
27 23 26 28 34 19 22 23 26 22 19 21 21 36 35 35 25 22 18 16 14 15 17 16 15 14 16 16 15 14 16 17 16 15 13 12 11 10 9 8 8 7 5
25 25 29 31 24 22 28 25 23 20 19 21 23 26 28 36 26 24 22 18 17 15 15 16 18 16 15 15 14 15 16 15 16 16 13 13 13 13 9 10 8 6 6
24 24 26 28 23 23 25 25 24 24 19 21 24 25 32 32 29 26 23 19 19 18 14 16 17 14 14 16 16 17 16 16 17 16 13 14 16 12 12 11 9 8 8
24 26 28 28 29 25 20 23 26 21 22 22 25 25 38 31 29 25 24 21 19 17 16 17 17 13 16 18 19 19 17 17 17 15 16 16 15 14 13 12 10 10 11
25 26 29 32 28 27 25 21 20 19 23 26 33 28 35 37 29 28 24 22 19 19 17 17 18 15 16 17 22 21 19 18 17 17 19 18 17 16 13 13 12 13 13
20 26 28 34 30 28 27 24 24 25 24 19 25 37 30 40 32 30 27 23 21 20 19 20 19 21 16 21 24 23 22 20 20 21 22 20 17 16 15 15 15 14 14
10 5 10 37 34 37 29 22 30 27 31 21 31 36 41 44 31 34 28 22 22 23 21 23 25 22 21 21 23 25 25 22 23 24 22 21 19 19 17 18 18 17 16
7 3 8 17 19 29 40 37 27 33 28 24 30 25 35 36 36 34 26 26 26 27 25 24 25 28 27 24 23 24 27 24 25 25 23 21 21 20 18 20 20 19 19
4 2 0 15 16 24 31 30 23 21 21 27 30 25 33 45 41 29 27 27 27 25 28 29 31 28 27 24 24 27 26 26 26 26 24 22 22 21 21 20 20 20 20
7 4 7 11 19 12 19 18 24 24 24 23 29 28 27 40 38 31 30 31 28 25 19 27 32 33 25 21 22 25 24 28 28 26 23 21 22 22 21 21 21 22 23
10 11 11 9 8 12 13 17 20 23 23 29 32 32 27 32 40 36 37 32 30 29 23 28 30 29 25 22 22 26 28 27 28 26 23 23 23 22 21 23 23 24 26
13 12 11 11 14 14 19 22 22 23 23 27 26 23 25 28 30 32 30 29 27 29 24 26 26 26 24 24 27 31 29 26 28 27 26 26 26 23 24 24 25 26 28
15 17 18 15 21 23 18 21 22 17 18 17 21 27 29 26 29 28 27 27 27 27 25 22 23 23 22 26 25 25 25 27 27 28 32 28 27 27 26 26 27 30 31
14 18 15 18 12 20 15 16 21 23 21 24 18 21 24 22 24 23 24 28 29 28 24 25 23 22 24 26 23 24 28 30 32 32 27 29 29 30 29 31 32 33 33
5 13 14 15 17 15 19 18 19 19 18 21 21 18 21 23 24 25 26 25 27 27 29 25 21 18 22 24 26 28 31 28 27 29 30 33 33 32 34 35 34 34 37
6 9 15 19 20 16 24 22 22 23 23 20 19 20 25 24 28 30 31 30 28 27 25 21 19 18 16 20 24 22 21 24 28 30 33 34 37 38 36 36 36 38 37
9 8 3 6 11 18 23 24 23 25 21 23 23 25 27 24 29 32 32 31 27 22 20 18 18 20 22 19 22 23 26 28 31 33 34 37 39 40 40 40 40 40 38
3 3 4 4 3 4 18 24 22 23 28 29 29 28 31 28 30 33 37 27 22 24 21 20 24 25 24 21 21 24 26 29 32 35 37 38 38 44 41 40 40 40 40
4 3 2 1 1 2 6 7 20 22 20 16 19 29 32 32 28 30 23 22 24 25 28 27 26 24 24 25 25 28 30 31 32 34 35 40 41 39 43 40 39 39 39
5 5 4 2 1 1 2 3 6 9 10 10 10 7 8 12 13 15 18 21 25 26 31 31 28 27 29 29 29 29 31 33 35 35 38 39 42 40 36 37 41 39 37

GFSSE_500_spd_066.txt.gz
Wind_Speed
34 36 38 38 41 40 38 34 32 33 33 30 25 26 24 26 26 20 18 17 15 12 9 8 6 5 6 5 7 6 7 10 10 9 10 11 13 12 12 12 9 9 8
31 34 37 41 41 41 37 32 30 34 34 32 31 29 33 30 30 25 21 20 18 13 11 9 8 6 6 7 7 8 9 10 8 10 10 10 11 13 10 9 9 7 7
21 28 33 36 42 42 42 35 29 32 27 32 31 28 35 33 30 37 25 24 16 13 11 9 7 9 9 8 8 10 10 11 11 10 11 11 12 12 10 8 6 5 5
24 23 28 32 36 43 43 41 36 32 22 23 29 24 28 33 31 28 30 22 19 13 11 9 10 12 9 9 11 11 12 12 11 12 12 12 13 10 8 7 7 7 6
23 25 26 30 31 35 45 41 38 24 29 21 18 27 26 35 28 29 28 22 17 17 18 16 12 10 9 10 12 12 12 13 14 15 14 12 11 10 9 9 9 10 8
27 27 28 31 34 29 38 38 36 19 29 27 17 29 30 25 27 28 28 24 24 23 19 12 12 12 10 12 14 12 13 14 15 15 13 11 12 10 11 10 10 8 9
25 27 29 27 35 36 30 29 39 39 25 19 23 26 30 26 35 31 28 27 26 22 17 16 17 13 11 12 11 13 14 14 15 15 13 12 12 11 11 12 11 11 10
24 29 30 29 24 11 20 26 25 20 17 21 23 27 28 34 37 32 31 27 26 22 20 17 17 16 13 12 13 13 13 15 16 15 14 13 12 13 14 13 12 12 11
23 29 31 26 24 20 18 26 31 30 23 25 23 24 34 43 44 35 32 29 27 23 18 17 17 13 12 12 15 13 16 17 17 17 16 14 15 15 16 14 15 12 11
24 28 24 24 24 24 18 22 25 26 28 27 27 27 32 33 47 40 33 30 27 23 19 16 14 14 15 14 15 17 17 18 19 18 18 17 17 16 17 16 14 13 11
26 28 28 23 26 27 26 26 29 29 30 27 24 26 29 31 40 39 32 32 27 23 19 16 16 17 17 14 15 15 19 21 20 21 20 19 18 18 18 16 14 14 11
24 24 25 27 28 28 34 30 30 30 28 34 25 17 26 32 41 38 34 32 28 23 21 18 18 17 17 19 18 17 19 21 21 22 21 20 20 19 19 15 15 13 13
17 11 9 13 27 31 24 31 29 30 41 31 22 20 33 28 42 35 35 33 28 25 23 21 21 21 22 20 20 20 19 23 22 25 24 22 22 19 19 17 14 15 15
12 8 13 13 15 32 46 39 37 30 37 33 35 28 40 34 44 41 34 34 31 30 26 25 23 22 24 23 21 25 21 23 24 26 22 24 23 20 19 19 17 16 17
12 4 4 10 17 23 29 39 38 36 37 33 30 30 26 28 46 44 39 38 35 29 27 26 25 23 26 25 24 24 23 25 29 25 24 25 24 22 21 19 17 17 18
12 5 3 5 13 21 21 40 40 43 31 30 29 29 32 26 35 45 40 39 34 29 28 27 24 28 32 30 26 25 26 30 31 25 27 27 25 23 22 18 19 18 18
9 8 3 2 10 14 20 28 31 27 28 26 29 31 34 30 37 44 47 41 33 32 31 25 24 29 28 28 26 26 25 28 28 27 28 29 27 23 21 22 22 22 21
11 9 8 6 10 9 19 23 27 25 31 30 28 32 37 28 35 46 46 41 38 35 30 29 27 26 27 26 26 22 23 26 27 29 29 29 26 23 25 22 22 22 24
11 12 14 14 9 14 21 18 24 24 25 29 32 31 26 28 25 41 44 43 36 33 31 34 28 25 25 24 26 26 28 29 30 30 27 28 28 28 32 24 26 27 28
10 12 15 15 15 16 21 20 21 23 22 28 32 31 27 25 25 37 33 32 31 27 27 30 32 29 27 26 26 27 29 30 31 24 25 28 32 34 27 30 29 31 32
8 9 15 13 16 12 20 19 21 18 22 22 22 25 28 27 25 21 24 26 26 25 28 29 30 29 25 24 25 27 29 25 25 27 31 35 35 26 30 33 33 35 35
10 4 13 15 13 15 17 20 22 21 26 14 25 19 24 25 23 20 24 24 25 27 29 28 29 30 25 20 22 24 22 24 27 30 32 31 31 32 34 36 38 39 39
8 5 7 13 17 21 19 24 21 22 23 25 20 21 22 23 27 23 27 29 30 31 32 28 27 26 21 18 19 16 22 23 23 24 26 29 31 34 37 40 40 40 42
4 3 2 7 10 14 19 24 26 24 26 27 26 23 23 26 30 24 26 30 32 34 32 29 25 22 18 20 22 20 23 25 27 28 30 32 33 36 39 42 43 43 39
4 4 2 2 4 4 2 20 28 28 25 26 24 27 29 28 26 27 28 32 36 36 27 21 21 24 24 22 26 24 26 25 26 29 30 32 37 35 36 44 45 45 43
5 5 4 2 4 2 2 5 8 19 24 27 26 27 29 34 34 32 31 30 32 25 24 25 22 25 22 26 29 28 28 28 29 31 32 34 36 38 41 40 47 39 40

GFSSE_500_spd_069.txt.gz
Wind_Speed
31 32 34 35 36 37 39 40 41 37 36 35 34 28 26 27 28 20 23 26 24 21 17 14 12 11 9 8 8 7 8 7 8 7 6 6 8 10 10 10 9 9 8
19 23 28 30 34 38 38 41 41 37 33 33 35 29 27 29 29 23 21 23 21 20 17 15 14 12 10 10 9 9 9 8 8 9 7 7 8 11 9 9 9 8 8
20 18 19 25 27 34 38 42 42 34 32 31 35 30 28 33 31 29 26 22 20 20 18 18 15 14 12 10 10 10 9 8 8 8 8 10 10 10 9 9 8 7 6
25 21 18 18 24 28 40 42 42 34 34 32 32 34 33 35 31 31 32 29 24 23 25 19 16 13 12 13 10 10 10 7 7 8 11 12 11 10 9 8 8 7 6
27 26 24 20 22 28 31 41 44 38 39 29 31 34 35 36 39 38 38 31 27 28 20 16 17 15 15 12 11 11 9 8 8 11 13 13 11 10 9 8 9 7 7
26 28 25 26 25 26 34 34 41 47 43 33 25 24 32 33 33 35 35 29 28 27 21 24 19 15 15 12 11 11 13 10 10 13 13 12 11 10 10 10 11 9 8
27 29 26 30 31 34 44 34 37 42 39 30 29 22 28 36 32 38 35 30 27 27 23 24 19 19 15 12 11 13 12 11 13 14 14 11 12 11 11 12 12 9 9
28 27 28 34 28 28 28 39 44 37 37 31 15 17 25 30 35 35 34 30 30 27 26 25 20 19 16 14 15 14 11 12 15 14 14 13 13 13 13 11 11 11 10
32 28 26 28 27 29 30 26 33 36 40 40 29 25 23 24 24 29 34 34 32 28 28 25 22 22 19 17 16 14 14 15 15 15 15 14 13 13 13 13 13 13 11
33 28 25 26 28 27 23 22 26 37 28 27 26 29 24 31 27 40 37 37 34 31 28 24 24 21 21 17 15 15 16 16 16 17 16 15 16 16 15 16 15 13 13
31 27 29 26 22 26 22 19 21 23 26 31 31 28 31 33 39 39 38 39 37 31 28 26 24 23 20 15 17 16 17 17 18 19 16 17 18 17 17 17 15 14 12
26 23 26 24 25 29 26 22 22 21 31 31 28 34 32 28 37 36 49 45 38 33 29 29 27 24 17 19 19 17 17 17 17 19 18 19 18 18 19 18 16 15 12
19 23 18 8 18 27 28 30 30 28 29 29 34 29 27 25 26 29 42 49 39 36 31 29 28 24 20 20 20 17 18 19 17 19 21 22 20 21 20 19 17 15 15
16 19 13 8 14 17 29 32 31 33 34 41 29 35 26 26 30 28 38 42 39 34 31 32 31 25 21 23 23 21 18 19 21 21 24 25 27 21 22 20 18 17 15
11 16 11 12 14 14 32 33 39 39 34 26 35 33 25 24 27 27 41 40 37 35 34 34 30 26 21 25 25 23 22 22 22 23 26 28 23 23 24 20 20 15 14
12 14 13 11 12 19 33 46 38 47 46 40 35 28 28 32 31 25 42 42 41 38 36 34 30 26 25 26 26 26 25 26 24 24 29 30 24 25 24 21 17 14 14
14 11 14 13 7 16 22 23 35 47 40 40 49 34 40 42 34 32 44 49 45 39 36 35 31 31 27 25 23 24 26 27 26 28 32 28 26 25 23 20 18 20 24
13 12 14 9 8 7 15 22 29 35 32 34 29 29 34 36 28 30 35 49 50 40 38 37 34 29 26 25 22 22 25 27 28 31 33 29 26 24 23 24 19 23 17
14 12 15 9 5 3 8 14 22 34 32 35 36 32 30 29 30 29 26 50 49 40 41 38 35 32 30 25 25 24 25 27 29 31 29 26 27 28 24 26 26 28 23
16 14 16 10 10 5 10 12 22 28 26 31 34 30 28 28 37 33 34 38 50 44 43 38 38 33 33 33 30 25 25 28 30 29 29 29 28 25 30 28 30 32 23
13 11 10 12 12 11 17 12 17 19 23 31 32 30 30 27 29 26 27 27 33 53 43 36 35 31 33 33 27 27 26 28 29 29 28 30 28 26 27 33 35 28 30
9 6 5 11 9 12 13 16 18 20 16 18 25 30 29 29 27 22 16 15 26 31 31 31 29 28 28 27 26 20 19 24 28 26 25 26 26 27 31 32 31 30 32
8 7 2 6 10 13 14 13 14 15 15 17 17 16 18 21 21 26 18 20 23 24 25 26 27 26 18 19 20 14 12 17 19 20 23 26 29 28 29 30 30 30 32
4 5 5 3 3 11 16 18 17 21 22 22 24 20 21 17 19 23 24 23 26 26 27 28 28 26 18 19 14 18 16 17 21 20 22 23 25 26 28 28 29 32 33
2 2 3 2 2 3 4 12 21 25 25 23 22 23 23 20 21 25 25 29 24 27 28 29 24 19 21 21 21 22 21 20 23 24 25 24 27 29 29 32 31 33 35
5 2 2 3 1 2 5 8 14 25 27 25 25 22 25 27 26 27 26 25 28 28 27 26 23 21 23 24 23 23 22 23 22 25 29 30 30 31 34 38 38 36 37

GFSSE_500_spd_075.txt.gz
Wind_Speed
35 31 28 28 27 27 29 31 35 38 39 39 38 36 33 30 28 30 30 26 23 24 22 21 21 22 21 21 18 18 16 15 13 9 7 6 4 3 4 5 6 7 7
30 28 29 28 25 25 24 28 33 37 39 39 41 35 35 36 31 31 27 28 25 27 23 21 22 22 22 21 19 18 16 14 12 8 6 5 5 5 6 6 7 7 7
27 26 24 24 28 26 25 25 30 36 39 36 42 38 37 34 32 34 31 29 30 32 24 23 23 24 23 20 18 18 15 13 10 7 8 8 8 7 6 6 8 7 6
27 24 26 25 26 26 26 27 27 31 34 41 40 38 36 35 32 30 28 29 30 34 26 26 26 25 22 20 19 17 14 10 14 11 10 10 8 7 7 6 6 6 4
27 21 23 25 23 23 26 25 25 29 35 39 43 40 38 35 32 33 28 29 32 34 28 26 25 23 22 19 18 15 14 14 15 12 11 10 9 6 6 5 5 5 4
27 24 26 30 25 22 26 27 28 28 36 42 43 39 37 37 32 33 32 32 33 30 29 25 24 21 21 19 18 17 15 16 14 13 12 11 7 7 6 6 6 5 5
26 25 27 24 24 27 26 28 31 32 36 37 35 39 37 36 35 33 34 35 35 33 29 27 22 23 24 20 18 17 17 17 15 14 13 10 9 7 8 7 6 6 6
27 24 23 26 27 29 28 31 34 43 45 30 26 36 39 33 37 35 34 39 39 33 30 29 25 26 24 20 19 18 18 17 16 16 14 10 9 9 8 7 7 6 5
26 26 26 27 31 29 27 30 35 42 38 43 44 33 38 40 33 38 38 39 40 37 36 33 31 28 23 20 21 18 21 18 17 18 15 10 10 10 10 9 8 7 7
22 26 28 30 30 25 27 30 34 34 39 43 25 27 31 35 34 35 40 40 38 42 38 37 29 29 23 23 23 20 19 18 18 18 13 12 12 11 10 10 9 9 8
23 27 33 31 27 24 28 28 31 29 26 25 37 39 34 33 32 31 35 35 37 36 39 33 32 31 24 25 24 20 20 21 19 16 15 13 12 12 12 12 11 11 10
21 25 29 30 27 24 29 23 28 26 27 24 32 33 32 34 22 22 24 22 24 32 41 36 34 31 25 26 23 19 21 21 16 13 13 11 13 14 15 14 13 12 12
24 25 28 27 19 19 15 20 24 28 28 26 39 43 40 34 25 27 24 25 23 26 44 34 32 31 27 25 24 19 23 21 17 15 12 11 13 15 17 16 15 14 13
23 25 27 23 19 15 11 19 24 26 24 23 33 45 36 24 29 29 28 26 25 33 37 34 35 33 28 27 28 19 23 23 18 16 15 14 13 14 16 17 16 17 16
19 23 26 21 19 14 12 13 21 22 25 42 35 36 26 29 27 27 22 24 31 26 35 36 35 35 29 33 29 19 24 20 21 18 20 18 17 15 16 18 20 21 17
18 22 25 21 18 13 14 14 21 26 32 22 37 38 25 23 24 24 24 21 22 29 27 36 39 39 31 36 31 22 24 20 21 20 21 21 18 17 18 22 22 20 18
16 22 23 22 14 16 11 14 17 24 24 26 32 39 31 25 27 25 20 25 24 20 27 33 40 41 33 39 32 24 24 23 23 22 23 20 18 19 20 25 22 22 19
15 21 20 23 14 12 14 11 21 26 28 28 25 33 35 28 27 28 21 23 26 20 25 32 39 41 36 39 33 26 24 25 24 24 22 21 20 22 22 26 24 21 23
14 19 18 20 10 9 8 10 14 30 36 31 31 26 35 25 29 33 24 20 26 29 19 31 40 43 36 39 33 30 26 27 28 25 23 22 21 22 23 27 25 25 25
12 15 16 15 6 9 6 5 9 20 25 32 33 34 34 35 29 32 34 35 31 24 19 22 39 40 39 38 36 33 31 31 29 29 27 23 22 22 23 26 28 27 28
10 12 14 12 6 9 6 3 4 15 27 30 32 37 30 31 23 24 25 20 16 17 23 22 28 39 38 44 42 37 35 35 37 30 26 25 23 21 21 21 22 22 25
8 11 12 8 6 6 5 6 5 5 12 23 26 30 27 29 28 24 19 16 17 18 24 26 25 28 29 35 45 40 35 34 27 24 22 21 23 19 18 16 16 18 18
6 9 10 9 4 5 5 6 4 3 9 10 22 18 21 23 20 21 21 21 21 21 24 23 25 27 28 29 36 31 29 25 24 18 18 12 10 12 13 16 20 18 18
3 7 8 9 7 3 3 5 3 3 7 6 8 11 14 14 19 23 22 23 21 18 21 22 22 23 22 23 27 22 22 21 17 15 14 13 9 10 12 15 16 18 20
2 4 7 6 5 4 2 3 4 7 8 9 9 9 11 10 10 13 15 15 19 18 16 17 17 15 16 20 22 21 20 22 22 21 18 18 17 17 18 19 18 20 22
5 4 5 5 3 1 1 1 2 3 8 12 13 14 14 13 15 16 12 12 15 19 18 19 20 20 21 24 24 22 24 27 23 22 21 22 20 19 19 17 19 20 24

GFSSE_500_spd_078.txt.gz
Wind_Speed
29 28 26 26 28 30 29 27 23 29 35 37 39 39 40 38 34 32 30 27 27 26 23 23 22 22 21 20 21 20 20 18 18 14 11 9 8 8 9 9 8 8 8
27 27 29 28 26 26 24 23 24 25 31 37 38 40 40 38 36 31 29 28 29 25 22 24 25 24 22 21 21 21 20 19 16 14 11 10 10 11 9 8 8 7 8
28 31 28 29 27 27 26 24 22 24 28 35 39 41 32 38 36 33 30 28 26 23 22 26 25 23 21 22 21 21 19 17 15 13 10 10 11 11 10 8 8 7 6
29 30 30 28 27 27 26 26 26 25 28 33 34 40 36 36 36 33 33 30 31 26 26 29 27 24 23 23 22 20 18 17 15 12 12 13 12 11 10 9 7 5 4
26 25 27 27 25 26 28 27 26 27 29 30 34 37 39 41 37 35 33 31 29 28 29 31 30 25 25 23 19 17 17 16 14 15 14 14 13 12 8 8 7 5 5
22 21 24 27 27 29 30 30 26 29 29 28 31 31 35 42 43 37 30 29 27 29 32 34 29 27 24 22 19 20 19 16 18 16 17 16 14 10 10 9 8 5 5
23 23 22 25 27 29 28 30 31 33 34 38 37 37 43 45 41 38 31 29 29 31 35 33 29 28 24 20 21 21 16 18 20 18 18 16 13 11 11 9 7 7 7
25 23 21 23 26 26 30 31 35 36 39 44 33 36 43 41 38 36 29 33 33 32 34 32 28 28 24 21 20 20 18 19 19 19 17 15 13 11 10 9 8 9 8
23 22 22 21 23 27 32 33 34 33 38 37 43 39 31 39 37 35 33 29 34 36 34 33 30 29 23 22 20 17 17 20 19 18 17 14 13 11 11 10 10 9 9
22 21 22 22 24 27 29 29 33 33 33 38 31 44 41 43 35 34 32 33 31 36 37 35 31 32 27 22 21 18 20 21 18 17 16 14 13 11 12 11 11 11 11
23 26 25 24 25 25 27 29 30 33 31 27 28 46 35 45 35 34 31 35 36 37 38 38 36 35 29 24 22 22 22 21 17 17 15 14 12 11 12 14 13 13 13
23 25 27 25 26 25 22 26 32 29 29 27 26 30 40 34 32 33 28 29 38 36 34 36 38 34 31 26 22 24 22 20 18 16 13 12 10 11 13 14 15 16 15
22 24 26 25 23 24 24 26 24 26 29 27 23 21 45 32 32 34 33 28 22 41 37 35 30 33 30 27 24 24 22 19 17 14 12 10 8 10 12 14 18 18 18
23 24 23 24 21 21 22 22 18 25 26 29 27 23 38 41 37 26 26 23 25 21 23 23 31 34 31 27 28 26 23 19 16 16 16 14 13 12 12 16 19 20 20
21 24 25 23 20 18 21 16 16 23 25 24 25 33 41 40 34 28 29 26 23 24 25 24 28 37 32 30 28 28 25 20 17 16 18 18 18 17 19 18 19 21 22
19 23 24 22 21 19 15 18 17 21 23 22 23 30 53 42 35 32 28 26 26 27 26 26 28 28 32 34 30 33 25 22 18 18 19 19 18 21 21 20 22 23 22
18 22 24 21 22 22 15 16 17 23 22 21 24 31 38 46 31 28 25 24 22 22 24 29 25 33 35 34 33 31 27 26 21 21 21 22 21 22 21 23 24 25 23
19 22 23 21 23 19 12 13 13 18 22 30 30 39 36 31 29 27 25 25 25 19 17 17 24 29 35 37 36 35 29 29 27 24 24 23 21 22 23 23 25 27 27
17 21 21 20 18 15 13 7 10 21 21 30 25 39 37 29 26 25 27 21 20 19 21 19 18 26 32 33 39 34 31 33 29 29 26 24 23 23 25 26 27 29 31
15 18 18 16 10 11 12 9 6 16 23 24 22 32 41 37 24 29 23 28 20 12 19 25 24 27 34 33 39 37 37 37 33 31 29 29 28 29 28 29 29 30 33
14 13 13 11 4 9 12 9 7 11 21 27 27 28 32 30 36 23 21 32 27 25 27 29 25 22 31 34 35 35 37 40 37 35 31 32 33 31 30 28 27 27 28
11 9 9 11 6 6 11 10 8 8 18 23 31 32 34 29 30 29 28 26 28 19 22 24 21 18 22 29 37 39 37 40 39 35 34 32 31 28 28 24 22 21 20
10 7 7 9 8 7 6 6 9 6 10 20 29 32 31 32 32 29 28 22 21 23 25 23 22 20 22 23 29 30 29 35 38 34 33 30 28 27 25 22 21 20 21
9 8 5 6 8 3 5 5 7 5 6 12 17 25 26 27 30 31 27 25 24 26 25 23 22 21 23 21 26 27 30 25 30 28 28 27 26 23 21 20 21 22 22
9 8 5 4 4 2 1 6 7 7 9 10 11 20 29 23 26 26 26 27 24 24 23 24 17 17 18 19 24 24 20 23 25 26 25 28 26 24 19 18 19 21 23
9 8 7 7 4 2 3 4 5 6 9 12 17 18 18 19 20 20 21 20 18 18 20 18 16 16 19 22 25 22 22 25 25 25 29 30 25 24 22 22 22 24 26

GFSSE_500_spd_081.txt.gz
Wind_Speed
32 27 25 27 28 28 29 29 29 28 27 27 28 31 33 30 31 30 30 31 30 28 23 22 20 18 19 19 18 19 19 20 19 18 15 12 10 10 10 11 11 11 10
30 28 27 30 30 29 29 28 27 25 25 25 27 28 31 31 34 33 30 30 29 29 26 24 21 19 19 18 18 20 20 20 19 17 14 12 11 10 12 12 12 10 9
31 30 29 30 32 32 29 27 26 26 26 26 26 28 31 31 35 35 32 29 28 27 26 23 21 21 21 19 19 19 20 19 17 14 13 10 11 12 14 12 11 8 8
31 30 31 31 32 30 28 26 26 26 28 29 30 28 27 34 32 28 28 27 28 25 24 24 20 23 21 18 19 20 20 18 17 15 13 12 13 17 16 12 10 8 8
31 32 31 30 29 28 27 26 27 29 29 30 31 30 31 30 33 34 36 35 31 30 29 24 22 22 22 20 20 21 20 17 16 15 12 17 17 16 14 10 10 9 6
29 29 27 29 30 28 27 29 31 32 32 29 30 33 35 28 30 33 30 28 28 30 29 29 26 26 26 23 22 22 19 17 14 13 22 17 18 15 13 10 10 9 7
32 32 26 27 27 27 29 31 34 32 33 33 32 37 30 34 32 33 39 37 32 30 28 29 28 28 27 23 23 21 17 15 15 17 18 17 16 15 11 11 11 9 7
29 29 27 25 25 26 28 32 32 33 33 34 32 35 37 43 46 40 37 34 33 30 28 29 30 29 27 26 22 19 18 15 15 17 18 17 16 14 12 11 11 9 9
28 29 24 22 23 24 27 30 33 36 36 37 37 41 30 32 36 40 46 36 36 32 29 28 29 27 23 25 22 18 17 15 16 18 15 16 16 14 11 11 11 10 10
29 30 24 21 24 24 28 29 31 34 36 34 36 38 37 43 39 30 35 27 31 28 32 30 29 25 27 27 24 20 19 17 19 17 15 17 13 14 10 12 13 13 12
31 32 25 24 25 26 29 30 29 31 32 33 33 32 30 37 39 36 34 32 32 31 30 30 28 30 29 27 23 22 20 19 18 16 15 14 12 13 11 12 13 14 14
30 32 27 30 26 28 30 32 27 27 30 31 32 32 29 32 36 30 34 34 33 30 26 28 30 34 31 31 27 23 20 20 17 17 16 13 12 11 11 12 14 15 17
30 30 27 28 27 28 29 31 28 30 28 30 30 30 30 28 43 29 35 33 25 31 30 33 32 36 35 34 28 25 23 21 17 17 14 11 10 10 11 13 15 17 19
31 30 28 27 27 29 29 28 26 26 22 31 32 31 31 30 42 42 39 33 29 34 35 31 34 40 38 36 30 27 22 22 17 17 14 15 14 16 14 14 16 18 20
31 29 28 27 27 28 29 27 27 24 21 27 29 29 28 26 32 39 36 32 29 26 23 27 30 29 30 28 30 29 22 23 20 18 17 17 18 19 19 18 17 20 21
32 29 28 24 23 28 28 27 26 23 23 22 25 26 32 26 40 39 37 25 26 29 18 18 25 23 24 32 33 29 26 23 25 19 19 20 20 22 23 22 21 21 23
32 27 24 23 24 28 28 27 28 23 23 21 22 26 30 31 43 38 34 27 26 28 23 24 23 22 24 36 33 30 28 29 25 24 23 23 21 23 24 24 22 23 24
28 26 23 23 26 28 28 26 24 23 18 24 23 23 31 35 44 38 35 27 29 25 23 23 23 18 25 29 27 31 32 31 28 29 26 26 25 25 24 23 22 24 26
25 20 21 23 24 27 28 21 15 16 19 23 22 22 27 47 50 33 27 27 27 22 16 17 19 23 22 25 29 35 37 34 32 33 30 31 28 26 24 23 24 26 27
23 16 21 20 21 23 16 15 13 12 19 19 20 21 27 47 46 29 24 25 26 24 22 23 23 18 18 26 32 38 39 36 38 37 32 33 32 30 27 27 29 29 30
18 19 18 15 16 15 10 13 15 15 18 24 20 19 38 47 36 32 31 30 25 23 20 19 19 26 24 24 27 31 36 33 40 40 35 37 36 31 31 33 32 33 32
17 19 14 13 11 12 12 14 19 17 16 28 24 19 40 41 36 28 27 29 26 29 27 24 27 29 24 23 25 28 34 34 38 40 40 43 37 34 33 34 35 34 32
16 17 13 12 8 9 11 12 11 9 14 24 28 22 28 42 35 32 27 25 25 27 29 31 25 24 23 20 21 23 31 31 36 40 37 41 41 38 36 33 35 34 32
15 15 12 11 6 6 7 8 7 6 9 24 33 30 26 27 32 34 32 27 26 27 26 28 26 23 24 21 21 24 28 29 37 35 37 38 39 35 35 35 36 35 34
15 12 12 10 6 3 4 7 9 7 9 14 28 33 30 31 30 32 32 30 31 29 25 24 24 24 25 26 24 27 30 28 36 38 33 33 33 35 35 33 31 31 30
16 12 10 10 8 5 4 5 5 7 9 10 19 25 34 31 30 22 27 30 31 28 25 26 24 25 26 24 23 25 26 30 30 31 30 29 33 33 32 29 25 26 27

GFSSE_500_spd_087.txt.gz
Wind_Speed
26 25 24 22 21 21 21 23 26 28 27 27 26 24 23 21 21 22 23 25 24 24 22 18 19 16 15 13 12 13 12 10 12 13 12 12 9 10 9 9 9 12 14
25 27 27 24 23 24 21 22 26 28 29 28 24 24 23 21 17 19 21 20 24 23 22 18 18 17 15 14 13 13 12 11 12 11 10 9 10 9 7 7 14 14 14
26 29 30 28 26 25 25 25 26 28 27 24 23 23 21 21 17 15 18 18 20 19 17 18 19 18 17 15 13 12 11 12 11 9 10 10 11 9 8 9 12 13 13
29 31 33 30 28 26 26 26 27 27 24 23 22 19 18 19 18 18 17 18 24 25 19 19 20 21 19 17 15 14 14 12 10 10 11 12 11 7 8 11 13 12 12
29 32 34 32 31 27 26 27 28 25 22 20 19 20 22 22 22 21 22 20 24 28 25 23 21 21 19 19 18 16 14 13 12 12 12 12 10 8 12 14 13 11 10
32 32 35 34 31 29 26 28 28 22 22 22 23 24 24 22 24 22 21 21 21 26 24 23 21 19 21 21 18 16 15 14 13 13 14 12 7 8 13 12 11 10 9
32 33 35 33 32 28 26 27 26 25 25 26 26 26 24 22 25 23 27 20 17 20 21 22 21 20 23 20 18 17 17 16 16 15 14 11 8 11 12 10 8 10 9
31 35 35 31 32 30 25 25 26 23 25 28 27 25 25 25 24 27 22 25 21 17 22 27 23 24 24 23 19 23 18 18 17 16 15 13 10 12 10 8 7 10 9
32 38 37 34 32 29 25 26 25 22 24 26 27 27 28 30 26 28 22 26 29 28 22 24 23 25 28 27 23 24 25 22 17 17 14 11 11 12 9 8 8 10 11
32 37 39 36 34 26 26 27 25 25 25 27 30 29 28 28 30 26 21 23 30 30 30 29 30 28 30 30 27 26 19 18 19 17 14 12 13 11 10 10 10 11 13
33 38 40 39 36 29 27 30 27 26 26 27 29 28 27 26 30 26 26 32 24 22 31 34 31 32 31 31 29 28 26 24 20 19 18 15 14 11 11 12 12 13 14
32 34 39 39 38 31 29 30 28 28 28 27 28 28 26 29 28 27 33 35 33 22 22 45 32 29 33 30 32 30 25 22 24 19 20 15 15 13 14 14 14 14 16
33 32 40 39 39 32 30 29 28 27 28 28 28 25 26 30 28 27 22 27 28 25 22 33 29 32 31 29 32 27 26 27 27 22 22 17 16 15 15 16 15 17 16
33 32 37 39 36 30 29 30 29 27 30 28 28 25 28 27 28 28 25 24 35 34 29 34 30 31 32 31 33 29 30 30 32 25 23 19 18 17 17 17 16 15 18
34 36 35 37 36 30 28 29 28 28 30 29 28 26 28 19 21 29 26 28 30 35 29 35 33 32 34 31 32 31 32 32 32 28 21 21 19 19 18 18 18 17 18
37 38 35 38 35 31 29 29 27 30 30 29 29 28 28 25 25 26 28 28 27 35 29 36 30 28 30 31 35 34 36 36 36 28 25 23 24 23 24 21 20 20 22
40 37 36 40 36 33 30 30 28 32 32 31 31 30 28 26 26 34 33 30 31 32 37 36 27 27 28 34 33 35 39 39 37 29 28 28 25 23 24 25 23 23 23
41 35 40 38 35 36 30 27 29 31 32 33 31 29 28 25 27 30 32 32 33 36 38 36 29 29 32 32 30 41 40 38 31 30 30 29 28 26 25 26 26 25 23
37 38 41 36 35 34 29 23 27 29 29 27 21 23 25 28 28 29 29 31 37 43 42 35 29 27 28 30 29 32 37 31 34 33 33 30 30 27 26 26 27 26 25
34 38 38 35 36 32 24 24 24 26 23 16 17 17 19 24 27 26 28 27 37 44 42 31 29 30 26 28 27 29 31 29 34 34 33 31 32 32 29 29 29 30 29
34 34 34 36 36 27 24 20 23 24 21 20 18 17 16 25 29 27 28 30 42 45 40 33 32 31 28 25 25 21 20 24 29 29 32 34 34 34 33 32 33 34 33
31 31 33 36 32 24 21 21 21 20 19 21 24 24 21 27 32 27 26 35 43 48 29 32 33 29 29 30 27 26 22 24 25 29 34 38 35 36 37 38 39 39 36
29 28 36 34 27 20 19 20 17 17 17 19 19 22 20 25 29 37 30 37 42 39 35 34 33 31 23 23 24 24 24 22 26 29 31 33 35 39 39 42 43 42 41
25 30 34 29 21 18 18 16 15 13 14 15 20 15 24 27 28 31 39 42 44 29 32 34 33 30 29 27 26 25 30 31 32 31 31 33 35 37 39 42 44 34 40
25 35 26 25 17 15 16 14 13 11 12 11 19 17 23 18 24 34 45 47 44 32 38 37 31 28 31 29 29 27 28 31 32 32 32 34 33 31 33 34 37 38 41
30 30 25 22 16 14 16 12 12 8 8 7 13 6 20 23 21 40 46 48 41 42 34 31 27 28 29 31 30 30 29 32 33 32 32 31 27 26 27 33 37 39 42

GFSSE_500_spd_090.txt.gz
Wind_Speed
20 21 19 18 18 18 19 21 23 24 24 25 26 27 26 21 20 20 22 22 25 22 22 21 19 17 14 14 13 14 14 13 12 11 11 10 10 10 9 9 8 8 11
19 22 23 21 20 19 19 21 23 25 25 26 27 27 26 22 19 20 19 22 22 23 21 21 19 16 14 14 15 14 15 14 12 12 12 11 11 11 9 8 6 9 10
21 23 24 25 23 22 21 21 24 26 27 26 24 23 21 17 14 18 17 18 19 21 22 22 20 18 17 17 16 17 15 14 12 12 12 12 13 11 7 6 7 9 10
22 25 26 27 26 26 26 23 23 24 25 25 22 19 17 15 14 13 16 18 20 22 19 21 22 21 20 20 20 18 16 14 13 13 13 14 13 12 8 7 9 11 11
22 26 28 28 27 28 28 27 25 25 24 22 20 19 19 19 19 17 17 19 20 25 22 22 22 22 22 21 21 19 17 15 14 15 14 14 13 13 8 6 9 11 8
21 26 30 27 28 28 28 27 27 27 25 21 21 21 23 25 24 21 19 20 19 23 27 25 22 21 23 23 22 21 18 16 16 16 16 16 14 9 7 7 9 8 6
22 25 30 28 28 27 28 28 29 28 25 22 22 22 25 25 24 21 22 22 17 19 19 21 25 24 24 24 25 22 19 19 18 17 16 15 14 9 8 9 8 6 6
25 25 31 32 30 27 27 30 30 30 26 23 21 21 22 23 21 23 23 18 21 21 17 17 24 25 25 26 25 23 21 20 20 20 18 17 15 11 9 10 9 6 6
27 25 31 33 32 27 25 29 31 30 27 24 22 21 20 23 23 25 25 25 22 23 20 16 25 25 26 26 25 25 23 23 24 22 20 18 14 11 12 11 10 9 8
30 25 29 34 35 30 26 29 31 30 29 25 24 22 24 26 26 25 24 27 21 23 24 25 26 31 29 29 29 27 27 28 24 23 19 17 14 13 14 12 12 11 10
33 27 27 33 36 31 26 31 33 30 30 27 26 25 25 24 26 26 26 22 22 23 26 25 31 28 27 29 32 30 28 26 29 24 21 18 16 15 15 13 13 13 12
35 30 27 32 36 35 29 33 34 31 31 27 28 28 26 26 28 27 26 25 29 30 28 31 34 31 30 30 33 33 29 28 32 23 21 21 20 17 17 15 16 16 15
35 31 25 31 37 34 31 32 35 33 31 27 28 29 28 28 29 27 28 27 24 22 28 32 33 35 33 30 35 37 34 34 27 26 21 24 23 19 18 17 17 17 17
34 32 27 31 35 34 32 32 35 34 32 26 29 28 28 28 29 26 30 25 22 26 26 23 23 37 37 31 40 38 37 35 32 30 27 27 23 21 20 19 19 18 18
35 35 30 34 34 33 31 31 36 35 32 27 26 26 28 29 29 25 26 26 23 18 26 27 27 36 34 36 40 37 37 37 33 31 30 29 26 23 22 21 20 19 17
35 36 33 35 35 34 33 32 34 35 32 29 25 27 29 29 26 28 20 22 25 23 31 30 33 31 28 35 38 36 37 37 35 36 34 32 28 25 24 22 22 21 20
36 35 32 33 35 36 35 33 33 35 32 28 26 29 31 30 28 26 22 26 27 27 30 35 29 38 32 36 37 34 39 37 35 35 32 34 30 28 27 27 25 24 22
37 35 33 34 36 36 32 34 32 33 30 25 27 29 32 30 30 27 23 31 31 29 30 40 35 41 32 33 35 34 36 35 36 37 36 38 33 32 30 29 27 27 24
38 32 33 36 36 32 32 33 33 33 28 26 26 26 27 30 30 27 25 33 31 31 30 40 43 39 29 31 36 36 35 35 37 37 38 31 36 34 31 30 27 27 26
34 33 32 37 33 31 33 32 33 30 28 25 24 23 20 22 25 28 29 30 33 34 33 39 40 40 28 31 32 32 33 35 36 42 38 34 34 36 33 32 28 28 28
31 32 33 36 29 33 31 31 30 29 26 24 25 25 25 22 21 24 31 31 32 33 35 41 43 40 29 34 34 32 31 33 30 33 36 34 34 35 34 35 34 33 32
31 31 31 30 30 32 31 30 28 28 24 25 24 25 27 21 24 24 30 31 32 34 38 47 47 41 31 31 26 26 25 26 22 24 31 35 33 36 36 37 37 37 37
30 25 29 31 30 33 28 28 28 23 23 23 24 24 26 27 27 26 32 31 31 34 43 46 45 35 32 31 29 25 25 24 25 23 26 29 31 33 38 41 40 39 40
28 28 31 31 31 28 30 28 25 19 20 22 21 23 26 26 25 27 36 39 36 34 40 50 41 37 34 29 28 27 28 27 26 27 31 32 34 33 37 38 38 38 40
30 28 31 29 26 27 29 26 21 17 19 19 19 22 23 25 28 28 32 33 32 35 44 47 35 32 31 29 27 25 27 25 27 31 36 37 36 37 37 39 37 35 38
30 29 27 25 25 28 27 23 18 18 17 16 16 17 24 22 29 26 30 36 38 37 43 45 36 33 32 34 32 31 28 29 31 31 37 39 38 38 38 36 30 31 33

GFSSE_500_spd_093.txt.gz
Wind_Speed
19 18 17 16 17 15 15 15 18 20 22 23 24 25 27 27 26 24 23 23 25 24 23 24 25 24 21 19 18 17 16 15 15 13 12 11 10 9 10 10 8 5 7
19 18 19 17 17 18 16 17 17 19 21 23 24 26 26 26 25 23 21 21 24 24 22 22 24 24 21 19 18 18 17 16 16 14 13 12 11 11 11 9 6 7 7
18 18 21 20 20 20 19 19 18 20 22 23 25 26 24 23 23 21 19 17 20 20 21 23 23 22 20 19 19 20 19 18 16 16 15 12 12 13 10 7 7 6 7
18 19 23 23 23 22 21 21 19 20 22 24 26 26 24 21 19 17 16 18 17 18 22 23 23 23 22 21 22 22 21 19 18 17 17 13 15 13 12 9 8 7 8
15 19 23 23 23 22 23 22 21 21 23 25 26 25 24 23 20 20 19 19 19 18 19 22 23 24 24 23 23 23 22 21 21 19 17 16 16 15 14 8 7 6 8
15 19 23 24 24 24 26 25 22 22 24 26 27 26 24 24 25 22 19 20 22 18 21 22 21 21 23 23 23 23 22 23 22 20 19 17 17 14 13 9 6 8 7
16 20 21 24 26 25 25 26 25 24 24 27 28 27 25 25 25 23 23 20 21 21 21 25 24 22 22 25 24 25 24 24 23 22 20 18 16 15 12 9 8 9 7
16 18 20 24 27 26 27 28 25 27 25 26 27 26 24 25 21 21 21 21 20 19 20 20 24 26 26 27 26 26 26 25 23 21 20 18 17 17 13 11 11 10 9
18 17 21 23 27 28 27 29 27 27 27 26 28 26 25 22 18 16 22 22 20 21 24 25 25 26 28 27 28 26 27 27 24 22 22 20 19 18 14 12 12 12 11
22 19 21 23 27 29 29 30 29 28 29 26 26 29 28 27 22 24 25 21 22 25 24 27 26 25 28 26 28 28 30 28 26 25 22 20 19 18 15 14 13 13 13
26 20 19 22 26 29 31 33 30 30 31 28 27 31 30 30 24 22 24 24 20 24 24 27 27 23 29 29 29 30 30 30 30 25 25 21 21 19 17 16 15 15 15
27 24 19 20 25 28 31 34 33 32 32 29 29 32 32 32 28 25 25 24 25 21 29 30 31 31 27 33 33 33 31 33 30 28 26 27 23 21 19 18 17 17 15
30 25 20 19 26 28 32 35 34 34 32 29 30 32 34 33 30 27 25 27 27 28 25 26 27 31 33 32 34 35 34 34 31 29 30 28 25 23 21 20 18 18 17
31 26 22 22 26 29 34 37 37 36 30 29 31 32 34 35 31 28 27 27 30 29 26 30 30 31 27 37 37 34 36 36 34 32 35 30 28 25 23 21 20 19 19
30 26 25 25 26 30 34 37 38 37 32 31 31 34 34 36 32 29 28 29 30 27 22 24 27 30 37 38 34 32 37 37 38 33 35 32 27 26 24 23 22 21 20
29 30 29 28 28 29 34 36 37 37 33 30 31 34 35 35 31 29 28 27 27 25 24 20 22 20 30 37 37 25 38 38 40 35 35 35 29 27 25 26 24 23 22
30 32 31 29 31 30 33 34 35 35 31 29 31 33 33 34 32 30 29 27 24 24 24 21 23 23 21 34 40 36 37 40 40 38 38 35 34 29 27 29 26 24 22
33 32 32 32 30 32 33 32 32 29 31 27 30 30 30 32 32 32 30 27 25 25 26 23 29 26 25 37 35 31 35 37 37 38 42 35 34 32 32 31 28 27 24
35 34 33 33 29 33 33 33 29 30 27 27 28 27 30 31 30 30 29 28 28 30 32 26 29 36 32 41 38 25 34 36 35 37 38 37 37 35 36 33 30 31 29
36 36 34 33 29 34 33 31 28 30 27 27 26 28 30 30 26 23 25 28 30 32 32 29 30 35 33 41 41 29 33 34 35 34 33 34 36 37 33 35 35 33 31
38 36 34 32 33 32 31 29 32 29 27 27 26 29 30 28 28 22 23 30 40 30 29 29 30 34 35 39 33 31 33 34 31 31 34 36 38 37 32 35 36 35 32
37 36 34 36 35 25 29 30 34 28 26 26 27 30 30 27 28 26 28 27 34 34 35 32 34 33 41 43 35 30 28 31 33 31 33 33 31 31 34 36 38 37 37
37 36 33 35 34 26 29 33 31 24 26 25 29 29 27 27 28 30 28 26 34 34 34 39 36 34 40 43 34 27 32 28 31 30 27 26 28 30 32 34 37 37 38
37 35 35 34 34 27 31 32 26 25 24 26 28 27 26 28 27 29 35 32 35 39 38 37 36 37 42 44 37 28 29 32 29 28 27 29 30 29 29 31 31 33 36
38 36 34 36 33 29 32 27 24 24 25 27 27 25 26 27 29 30 30 32 35 35 40 40 39 42 45 47 32 34 30 30 29 32 30 28 28 30 31 34 35 34 34
36 32 34 34 30 28 28 23 23 24 27 27 24 25 26 28 31 30 34 34 41 40 35 32 38 43 45 46 36 32 29 31 31 31 29 29 28 32 35 35 34 35 36

GFSSE_500_spd_096.txt.gz
Wind_Speed
16 16 16 15 14 14 14 15 16 17 17 18 19 21 23 26 27 27 26 26 24 24 25 25 23 25 26 24 23 23 23 21 19 17 15 14 12 10 10 11 7 6 4
18 18 17 18 16 17 17 17 17 17 18 18 18 20 23 25 27 28 27 25 23 21 23 22 24 25 26 24 22 22 21 20 19 17 16 15 13 12 11 10 8 7 5
20 19 19 20 19 20 21 20 20 20 20 19 19 20 23 25 26 26 26 22 20 20 19 18 21 25 25 23 22 21 21 21 20 19 19 16 15 14 13 10 9 6 5
23 21 20 22 20 23 22 20 19 19 20 20 20 21 23 24 25 25 23 20 20 19 17 17 18 23 24 22 22 22 22 22 22 22 21 18 16 15 14 12 9 6 6
24 21 19 22 22 25 23 20 20 20 21 21 20 21 22 23 25 23 22 21 21 20 17 19 18 22 25 24 23 23 23 23 24 24 22 20 18 17 15 12 7 6 6
26 21 19 22 24 25 22 22 21 21 23 23 22 23 22 23 25 24 23 23 21 21 20 18 18 21 26 26 25 24 25 23 24 25 22 19 18 18 14 12 6 5 7
26 22 18 21 23 22 23 22 22 24 25 24 24 24 23 23 23 23 24 24 23 22 21 20 19 21 24 26 27 25 24 24 24 25 20 20 18 17 14 11 8 7 8
27 22 19 21 21 23 23 24 25 25 25 25 25 25 24 23 22 25 24 25 23 21 23 23 22 25 25 24 26 26 26 26 24 25 20 19 18 17 16 13 11 9 9
31 25 21 21 20 22 24 26 25 25 25 25 25 26 24 23 20 22 25 20 21 20 22 19 19 24 29 28 26 29 29 28 25 24 21 20 18 18 18 14 11 10 11
34 28 21 21 21 22 25 27 26 25 24 24 24 25 25 23 22 24 27 26 27 26 27 25 24 25 26 28 30 29 29 28 28 25 22 22 20 18 19 15 13 12 13
37 30 23 22 23 22 26 26 27 26 26 26 26 26 26 25 25 25 26 26 26 27 26 21 24 22 24 26 29 30 31 29 28 26 26 23 22 20 20 17 15 14 14
37 31 26 23 24 23 26 26 27 28 28 27 27 27 28 27 28 27 29 29 28 28 23 23 26 31 28 25 28 28 30 29 31 28 27 25 27 21 21 19 16 16 16
39 34 29 25 24 25 25 25 28 31 29 28 29 30 29 29 30 30 29 30 28 29 26 25 27 23 29 32 27 33 29 29 31 29 30 26 25 24 23 21 18 17 16
36 33 30 28 24 24 26 25 29 31 30 30 32 33 32 30 32 31 29 32 28 30 26 30 28 24 23 35 31 36 32 33 35 32 30 27 25 28 26 23 20 18 17
37 34 30 30 26 23 25 27 31 32 32 32 33 33 33 32 33 32 30 33 31 30 28 30 27 27 23 31 33 32 32 36 36 33 33 29 29 30 28 25 21 21 18
37 35 29 30 28 24 26 28 32 33 35 34 34 32 32 34 34 33 29 30 32 29 27 27 25 20 26 31 35 37 31 36 34 37 35 32 30 34 29 27 24 22 20
37 35 33 29 30 26 27 28 32 35 36 37 36 29 31 34 32 30 29 29 31 28 27 29 25 22 24 31 36 36 33 33 31 33 36 31 28 33 27 27 24 23 22
35 35 37 33 28 29 28 30 32 35 37 36 30 29 29 30 27 28 28 28 31 30 30 27 27 28 28 23 31 40 37 35 32 33 36 32 32 33 30 28 26 25 24
35 37 39 32 26 28 30 31 32 35 36 31 27 28 29 27 27 27 28 29 32 33 33 27 27 28 19 21 21 37 36 34 29 29 35 32 33 35 34 30 28 29 28
37 39 37 31 27 28 32 32 32 33 32 29 27 27 28 27 26 27 29 29 28 31 29 24 30 28 26 22 30 38 35 25 25 28 33 31 35 40 34 33 33 32 33
38 38 36 32 26 29 30 32 31 30 30 30 26 26 27 25 26 28 30 28 27 29 28 30 27 31 31 28 37 37 35 30 25 27 32 31 31 32 33 34 33 29 35
40 39 37 33 28 29 31 31 33 31 31 27 24 27 27 25 27 30 31 31 27 29 32 32 33 32 36 37 38 38 38 35 28 30 28 28 29 32 33 33 34 34 31
38 38 37 33 32 30 30 34 35 32 28 24 26 26 26 24 28 29 30 30 32 31 38 31 32 31 32 29 32 34 34 26 28 30 31 30 29 33 35 32 29 32 34
40 37 36 32 33 30 29 36 34 27 25 25 25 23 24 25 29 28 29 28 33 30 28 34 36 35 37 31 35 36 35 33 29 32 30 31 32 32 30 28 26 27 27
38 34 36 31 31 30 32 36 32 25 24 27 22 22 23 26 29 28 29 30 29 34 35 34 37 38 34 33 38 37 39 33 29 33 30 30 29 28 26 25 24 23 25
36 36 37 29 32 30 34 34 29 23 26 22 20 22 25 27 29 28 29 30 30 32 33 36 43 34 36 39 35 39 42 33 29 30 31 28 27 25 24 22 22 27 29

GFSSE_500_spd_099.txt.gz
Wind_Speed
14 11 11 14 14 15 15 17 18 18 18 18 19 19 19 19 21 24 25 26 25 24 23 23 24 23 23 24 22 23 23 23 24 24 20 17 16 14 13 12 8 8 7
18 16 14 15 16 15 17 19 20 21 20 20 20 21 21 21 22 24 25 26 26 23 20 20 23 23 22 25 25 23 22 22 22 23 20 18 17 15 13 11 10 10 8
21 18 17 17 17 18 19 21 21 21 19 19 19 18 20 23 24 24 24 24 24 23 20 17 18 21 21 25 25 23 23 23 22 21 21 20 18 18 15 12 11 10 7
26 21 20 18 19 19 20 21 23 22 20 20 20 21 22 22 24 23 23 23 23 23 21 17 16 17 19 24 24 23 23 23 23 23 22 21 18 18 17 13 11 10 6
29 29 23 19 21 22 22 22 24 21 19 20 22 24 22 23 24 22 22 23 23 24 21 18 18 18 19 22 24 23 23 23 23 24 22 21 19 18 16 14 13 10 7
34 32 29 21 23 24 22 22 24 22 21 22 24 25 24 24 23 21 22 20 22 23 21 21 20 20 19 23 24 24 23 23 23 24 21 19 21 19 17 15 11 7 6
36 36 35 25 25 26 20 21 23 25 26 24 25 27 26 25 24 22 21 21 20 22 23 21 20 21 20 22 26 24 24 23 23 23 21 20 20 18 16 14 13 10 6
39 37 36 29 26 25 22 21 22 25 25 23 25 25 24 24 24 22 21 21 19 19 22 23 23 25 23 24 25 26 25 23 23 23 20 20 19 18 16 17 14 10 8
40 39 37 34 25 25 24 22 22 26 24 22 22 23 23 23 23 21 21 23 22 19 22 25 24 20 22 25 24 26 27 25 23 24 20 20 19 19 19 18 13 11 10
40 40 39 37 25 27 25 23 24 27 24 20 22 23 22 22 23 22 22 22 23 23 26 27 32 23 18 21 26 25 27 28 27 25 22 21 20 21 20 18 15 13 11
38 40 40 38 29 28 26 25 27 27 24 22 23 24 22 21 22 22 23 25 23 23 23 25 23 23 23 24 24 26 29 30 28 26 25 24 23 21 20 19 17 14 12
38 40 41 37 30 29 28 27 27 26 24 24 24 23 22 23 25 24 23 26 24 25 26 24 24 25 30 27 25 23 27 29 30 28 27 24 23 23 21 20 18 15 13
42 42 39 36 33 31 29 29 28 25 24 25 25 24 25 26 30 27 26 28 26 26 26 25 25 24 23 19 27 26 25 27 31 27 29 25 25 24 23 19 18 17 15
43 40 39 37 34 32 31 31 27 26 25 26 26 28 27 29 32 30 28 30 27 28 27 27 27 24 24 18 27 28 31 28 31 31 29 27 26 26 24 23 21 18 16
44 43 38 36 34 32 31 31 27 28 26 27 28 30 30 32 34 32 30 32 29 28 27 29 25 25 29 27 24 26 34 32 31 29 29 29 28 25 26 24 23 20 18
40 44 39 34 32 33 31 32 29 29 28 30 30 32 33 34 34 33 32 32 30 29 27 29 27 27 27 24 23 27 34 34 32 30 32 32 30 27 27 26 26 22 19
39 40 42 34 31 33 32 33 31 30 31 31 33 33 35 34 33 33 31 29 28 29 28 29 28 28 27 31 25 28 37 33 31 29 34 33 30 29 30 28 28 24 22
41 38 41 38 34 31 33 33 32 33 32 32 33 34 35 34 31 30 29 27 25 29 28 28 29 29 30 30 27 30 38 39 38 34 35 34 33 32 30 29 29 27 25
41 39 42 38 38 33 35 34 34 33 33 32 33 33 33 31 29 28 28 26 25 27 28 29 29 28 30 29 24 29 39 42 35 27 36 33 36 33 30 31 28 26 26
42 40 42 38 37 35 33 34 34 33 34 33 33 32 32 29 27 29 27 24 24 26 26 27 31 29 31 25 26 25 37 41 33 32 29 30 34 34 31 30 29 32 31
43 39 40 38 34 31 27 32 33 33 34 34 34 32 29 26 27 29 26 24 23 26 26 26 30 25 25 26 28 27 35 45 32 29 27 26 33 32 30 32 34 35 31
37 39 38 37 34 30 25 32 33 33 34 34 34 31 28 25 29 29 25 24 25 27 27 28 31 33 25 27 28 31 30 32 32 27 26 25 28 30 30 29 26 27 29
37 35 36 34 34 33 27 30 32 34 35 32 32 25 26 27 29 28 24 25 26 26 29 32 28 34 32 29 32 35 29 25 28 31 23 23 26 27 27 27 27 29 30
40 36 36 39 36 33 30 28 32 35 34 32 31 27 28 27 27 27 24 25 27 28 28 33 29 35 33 31 36 35 32 35 33 35 29 26 30 29 27 25 27 29 30
37 39 39 36 38 33 33 28 35 35 33 32 30 29 26 28 27 25 24 26 27 28 30 29 33 27 32 32 31 32 33 31 36 36 29 29 33 31 29 28 29 29 27
38 40 37 41 36 32 30 29 36 37 29 30 29 28 27 29 26 24 25 27 29 29 30 29 31 28 29 35 37 36 34 34 33 34 31 29 29 31 29 23 23 25 22

GFSSE_500_spd_105.txt.gz
Wind_Speed
20 19 16 15 20 20 17 17 15 14 15 16 17 16 17 15 14 16 19 20 20 19 19 21 20 20 21 22 20 20 21 19 19 20 19 19 18 18 15 16 14 13 11
24 24 25 18 22 24 20 20 19 17 16 16 16 17 17 16 17 18 20 21 21 19 20 22 20 20 19 19 19 19 19 19 20 21 22 22 21 19 18 16 15 13 10
35 31 29 25 21 22 23 24 23 21 19 17 17 19 17 19 21 22 23 21 21 22 22 23 20 21 19 18 19 18 17 18 20 21 22 22 21 21 19 17 16 13 11
39 36 32 30 27 25 26 26 25 24 21 19 19 18 20 21 23 23 24 23 23 23 23 22 21 20 20 20 20 19 16 18 20 22 21 21 19 19 19 17 15 13 11
36 37 37 35 31 27 29 28 28 26 23 21 20 19 20 22 22 24 24 23 23 25 21 22 21 20 21 20 20 19 16 18 20 22 21 19 18 17 17 16 13 13 11
38 39 40 35 34 30 30 28 30 27 26 24 22 19 20 21 22 23 24 23 24 23 22 22 20 20 19 20 19 19 19 19 18 20 19 18 16 17 16 14 14 13 13
39 39 40 39 37 35 34 30 31 30 29 26 25 22 20 20 22 23 24 23 23 23 21 20 20 19 20 20 21 19 19 19 17 18 18 17 16 16 16 15 15 15 14
37 40 40 38 40 39 36 32 33 34 31 29 27 25 22 21 22 23 23 24 23 21 20 20 19 19 18 18 23 22 15 17 18 17 16 15 15 15 17 16 17 18 12
39 41 44 41 38 36 35 32 32 35 32 31 29 27 23 21 22 22 21 23 22 19 19 19 18 16 16 18 19 20 14 14 17 17 17 16 17 17 17 18 20 19 13
39 42 43 41 39 37 37 35 32 35 35 32 32 28 24 22 22 21 20 21 21 20 20 18 19 18 16 18 18 17 15 15 17 20 20 18 19 17 19 22 22 23 16
42 41 37 37 37 38 37 35 31 35 36 34 33 30 25 23 22 20 20 22 22 22 22 24 22 19 20 21 19 20 17 18 20 22 22 21 20 19 19 24 24 16 16
44 42 39 37 36 36 36 33 31 33 32 34 36 32 27 25 22 21 20 22 22 23 25 26 26 24 20 22 21 19 21 20 24 22 23 23 23 19 19 18 19 15 17
43 40 40 42 41 38 36 37 34 32 31 33 36 34 29 27 23 22 22 23 24 26 28 28 27 27 26 23 22 19 21 22 25 30 24 25 25 21 19 17 15 15 17
48 44 40 41 40 36 37 42 38 34 33 31 33 34 31 29 26 25 24 25 26 29 30 31 30 29 32 29 27 26 24 24 28 28 28 27 27 24 23 21 21 19 18
50 44 39 40 46 36 39 39 40 36 34 31 32 33 33 31 29 27 27 29 29 32 33 33 33 33 34 33 33 30 24 24 25 26 28 27 28 27 24 24 24 22 20
52 49 44 41 44 35 40 38 41 40 38 34 32 34 35 32 31 29 30 30 32 35 36 35 32 32 32 33 32 31 29 21 22 24 25 28 28 27 26 26 26 23 22
58 56 49 49 43 36 41 37 38 38 40 37 35 35 35 34 33 32 31 31 34 35 37 33 28 29 32 34 31 29 29 24 23 29 29 33 29 30 30 29 28 26 24
61 61 54 49 45 37 41 43 39 41 41 40 38 37 36 36 34 33 33 32 33 35 34 28 28 31 31 31 30 30 30 35 23 26 35 38 32 31 32 29 30 29 26
64 63 59 51 43 39 41 44 42 44 43 43 42 39 38 39 36 34 33 34 34 34 29 27 31 31 29 28 30 31 29 36 26 27 37 41 37 37 33 31 33 30 28
63 62 61 55 45 41 36 44 47 45 44 45 42 41 42 37 35 34 34 33 35 32 28 29 30 29 28 28 30 30 29 31 33 30 35 38 40 39 35 33 33 32 30
62 62 60 58 49 46 44 42 44 46 46 45 42 41 38 34 36 35 34 32 34 33 29 30 29 29 27 29 29 27 29 31 38 34 33 36 44 38 38 41 39 34 32
59 59 60 58 49 48 48 43 42 46 47 46 45 43 35 34 37 36 34 32 36 35 30 30 29 30 30 28 26 24 33 30 33 35 36 37 43 42 34 40 40 36 34
58 58 60 56 50 51 48 46 45 46 48 48 47 37 33 32 39 39 34 35 37 33 31 29 30 29 30 25 25 24 30 33 27 33 31 37 42 37 33 29 33 37 35
55 55 58 53 50 51 45 44 46 47 46 46 40 37 36 41 43 40 35 35 37 35 30 31 30 29 29 26 26 24 29 28 28 31 32 36 40 40 34 28 31 34 35
57 54 55 54 51 46 41 36 42 46 45 44 43 40 38 41 41 40 34 35 37 35 31 32 31 30 27 27 25 26 26 25 23 30 34 43 45 39 34 32 33 35 35
54 50 49 51 51 47 40 35 39 42 41 41 40 39 38 40 40 39 37 36 37 35 33 33 32 31 29 27 26 27 28 27 27 30 31 32 41 43 37 38 34 35 36

GFSSE_500_spd_108.txt.gz
Wind_Speed
22 18 19 14 13 17 26 23 20 17 15 14 13 12 13 14 15 15 16 17 18 17 17 18 20 17 16 17 17 16 17 18 16 15 14 13 13 14 19 19 8 11 9
25 25 20 19 17 17 18 23 23 21 19 17 16 14 15 14 15 17 18 18 19 19 18 19 19 16 16 17 15 17 18 16 16 17 16 16 16 16 17 14 12 12 11
31 31 27 27 24 20 19 22 25 24 22 20 18 16 16 15 16 17 18 19 19 20 19 19 17 17 15 16 16 18 17 15 15 18 17 17 18 17 16 15 14 12 12
35 32 33 33 31 28 22 23 25 25 25 23 20 19 16 16 18 17 18 19 19 20 20 17 17 15 15 16 16 17 17 16 15 18 18 18 18 15 14 14 12 13 12
33 33 34 34 33 32 29 26 27 26 26 25 23 21 18 18 18 18 18 19 19 21 20 17 16 13 13 14 15 16 17 18 16 17 18 18 17 15 12 11 11 12 13
34 35 34 37 36 35 32 32 29 29 30 27 25 24 21 19 20 20 19 19 20 20 19 16 14 14 13 12 12 15 17 18 16 16 17 18 15 12 11 9 11 11 13
37 36 37 38 38 36 32 31 33 31 32 30 28 25 25 22 21 21 20 21 20 19 19 16 14 13 13 11 13 15 16 18 14 13 15 15 13 11 10 11 12 12 14
40 39 39 38 39 38 33 32 30 31 31 34 32 27 26 25 23 23 21 22 20 19 17 13 14 14 13 15 15 15 15 13 13 13 13 13 12 11 12 12 13 14 16
42 40 40 40 40 40 36 34 31 29 28 33 35 31 27 27 25 23 22 22 19 19 16 16 15 17 17 17 17 16 15 12 13 12 13 13 14 13 14 14 16 17 19
42 40 42 42 41 39 38 36 34 30 30 31 37 33 29 28 27 24 24 23 20 21 20 17 18 17 18 17 20 17 16 14 15 14 15 15 15 15 15 16 17 19 21
44 42 42 43 43 40 37 31 29 30 26 29 34 33 29 31 28 26 25 24 22 20 22 21 19 21 20 19 19 19 17 17 17 16 16 18 18 17 17 17 19 23 22
49 44 41 42 43 42 39 30 28 29 26 27 30 32 30 32 29 27 26 25 23 21 23 23 23 23 24 22 17 21 18 17 19 17 18 20 21 19 18 18 21 26 17
48 42 42 40 42 41 38 38 34 29 31 28 29 31 32 32 31 28 27 25 24 23 24 25 26 26 26 26 23 22 21 17 19 22 18 22 24 21 21 19 17 16 18
48 47 45 43 40 40 39 32 35 33 32 31 31 30 32 33 32 30 28 27 26 24 25 27 28 29 30 31 31 29 27 24 19 21 26 26 30 26 23 20 19 15 16
52 48 46 45 44 43 39 30 34 35 31 30 34 33 30 34 34 32 30 29 27 27 27 29 30 33 34 34 32 32 30 32 28 29 27 26 28 29 24 24 20 19 18
55 54 54 53 50 48 44 38 40 38 34 38 37 35 31 34 36 33 31 31 29 28 28 30 31 35 34 28 26 27 29 32 30 29 28 29 30 26 26 25 24 22 21
54 57 58 56 54 51 47 43 41 38 37 37 38 40 34 35 38 36 33 32 31 29 30 30 34 35 28 24 23 25 28 30 29 29 25 28 31 30 27 27 25 25 25
54 56 61 60 57 53 49 47 45 43 42 40 40 39 40 37 38 40 35 34 30 30 30 29 34 31 24 26 26 27 25 26 29 33 27 24 29 34 29 29 26 27 26
54 56 60 64 61 57 51 51 47 45 47 44 42 40 41 39 38 41 38 35 31 30 30 30 33 26 24 27 28 26 25 26 29 35 30 22 33 35 33 32 30 29 29
55 57 60 62 62 60 57 52 51 47 47 44 43 43 42 43 41 43 42 34 32 30 28 30 33 24 26 30 28 25 25 26 29 31 31 26 35 36 30 34 35 33 32
59 59 59 61 62 64 57 48 52 43 43 44 45 45 45 45 44 42 40 36 32 31 27 31 31 26 28 31 31 26 27 26 25 28 26 23 34 35 44 35 36 33 35
65 63 63 61 63 62 62 51 50 45 42 47 45 50 49 47 43 44 41 37 31 31 29 31 31 27 30 31 30 30 26 24 25 27 30 24 29 35 42 41 37 41 40
76 68 65 65 64 63 59 60 51 51 45 46 46 48 49 46 45 44 40 36 31 34 32 32 31 30 32 30 30 30 26 24 26 27 26 31 32 36 35 42 41 38 43
71 71 66 64 63 65 60 58 51 48 45 39 41 46 47 49 46 44 40 37 34 37 32 31 32 32 34 31 31 29 28 25 25 26 32 23 28 35 36 43 41 39 37
66 65 68 65 63 64 65 53 50 48 45 44 41 44 48 50 47 46 42 38 39 37 34 32 32 33 35 32 29 27 28 29 28 27 25 27 28 31 34 40 43 35 31
55 55 61 65 64 64 57 48 50 44 46 44 42 44 50 49 49 48 44 40 39 38 35 33 34 34 34 34 31 29 27 31 28 27 28 23 26 36 34 40 42 37 33

GFSSE_500_spd_111.txt.gz
Wind_Speed
24 24 16 18 20 19 16 18 17 15 15 15 14 13 12 12 12 12 13 14 15 15 15 14 16 14 13 12 12 12 12 13 12 11 12 12 12 12 12 14 19 2 2
23 24 23 23 22 19 17 18 20 19 17 16 16 15 14 13 12 13 15 16 16 16 15 14 14 13 11 11 12 12 13 13 11 13 13 13 14 14 13 13 12 6 4
24 26 30 29 26 25 21 19 21 24 23 18 18 17 16 15 13 15 15 16 16 16 15 15 12 12 11 11 10 10 12 11 11 12 13 15 15 15 13 12 9 6 7
27 29 29 26 26 26 25 24 22 24 26 23 21 19 20 18 15 16 17 16 17 17 15 14 12 13 10 11 11 10 12 11 11 11 14 15 15 15 13 9 7 7 9
31 32 30 28 28 27 28 24 24 26 25 24 24 21 20 20 18 17 17 16 17 19 15 14 13 13 12 12 10 10 13 12 13 10 12 14 16 14 12 9 9 9 10
32 31 32 31 31 30 30 30 25 25 27 25 27 24 21 20 20 19 17 17 17 19 16 15 12 12 12 11 11 12 12 12 12 11 11 13 15 14 11 10 10 9 11
35 35 34 34 34 34 33 32 30 26 27 25 27 26 26 21 22 21 19 18 17 17 16 12 11 12 12 11 14 12 13 13 11 12 12 11 12 12 10 10 10 12 13
39 38 37 36 37 36 36 35 32 30 28 25 26 27 26 24 23 23 21 19 18 17 15 14 13 13 14 14 15 13 15 15 12 9 13 11 11 12 12 12 13 13 14
39 41 40 39 39 39 38 37 34 30 28 28 27 28 28 25 22 25 22 21 19 19 15 14 13 15 15 15 16 16 14 13 13 10 10 13 11 13 13 14 14 14 15
40 41 42 42 41 40 40 39 36 35 32 30 28 28 29 27 23 24 24 22 22 21 17 15 13 14 17 17 17 18 15 13 15 12 12 14 15 13 14 16 15 15 17
40 41 40 41 43 43 42 41 37 32 26 25 23 26 27 25 23 23 25 24 23 23 19 16 14 14 17 18 18 18 15 17 17 16 14 15 17 15 16 18 17 18 19
41 41 40 38 40 43 40 38 35 30 27 24 23 27 28 27 24 23 25 25 25 24 21 18 17 17 19 19 19 20 17 19 19 16 17 17 17 19 18 19 18 18 21
43 43 43 42 41 38 38 37 33 29 26 22 24 28 29 27 25 26 26 26 26 25 23 21 19 19 21 22 23 23 23 23 22 21 20 20 20 20 20 20 19 18 23
44 45 47 45 41 41 36 38 37 29 27 25 26 25 28 29 28 29 28 28 28 26 25 23 22 21 23 23 26 28 29 28 27 27 23 20 20 23 25 25 21 19 18
48 48 49 47 46 41 41 37 39 36 31 29 27 26 29 30 29 30 31 29 29 28 27 24 24 24 23 26 29 31 28 27 28 31 31 27 24 26 31 31 25 22 17
50 49 52 49 48 45 42 42 41 39 40 39 33 31 33 34 30 30 34 31 31 29 28 26 24 25 23 27 30 28 25 22 24 30 32 31 31 29 25 33 28 25 23
50 50 51 52 52 49 50 44 43 42 44 43 36 36 36 35 36 32 33 36 34 32 29 27 25 25 25 27 27 21 21 22 23 26 28 32 30 29 27 29 31 27 26
46 49 52 53 55 53 50 51 46 47 45 47 43 40 39 37 36 37 36 36 37 36 31 28 26 24 25 27 24 19 21 25 23 23 27 29 35 29 35 32 30 26 27
48 47 47 51 53 55 56 55 52 49 49 48 47 43 41 39 39 37 39 38 37 39 35 30 27 22 25 26 23 22 24 24 23 24 25 28 34 22 36 31 34 30 29
50 52 51 50 49 52 55 57 54 52 51 53 49 44 41 43 41 39 39 40 38 39 38 33 29 22 24 26 26 24 24 23 26 27 27 26 28 33 19 36 34 34 30
56 56 56 57 55 55 54 54 54 52 50 52 51 46 41 43 46 42 41 41 38 39 40 37 30 24 23 27 27 25 24 23 26 28 24 24 25 28 26 41 40 37 33
61 62 62 63 63 62 57 55 54 54 52 51 53 51 47 44 48 44 42 43 41 41 40 38 31 27 26 28 29 27 24 22 26 26 21 20 26 23 24 23 37 38 36
69 70 71 71 71 70 65 60 58 56 57 54 58 52 47 43 48 44 45 44 43 43 40 38 33 28 30 30 30 29 26 23 25 24 22 21 22 24 22 27 31 35 40
80 79 80 81 80 77 72 66 59 56 59 50 54 51 42 48 51 44 47 46 43 42 40 39 36 30 31 30 32 30 28 27 23 20 23 23 25 23 30 29 34 36 38
79 72 69 78 84 79 75 71 65 55 59 53 53 49 50 50 48 47 48 46 43 43 42 39 38 29 32 33 31 31 32 27 24 23 22 27 28 26 28 31 34 36 40
44 46 49 65 80 76 73 73 67 59 59 54 49 47 52 45 48 47 44 44 44 45 43 40 36 31 34 34 32 33 33 31 26 26 25 27 31 29 21 27 34 37 41

GFSSE_500_spd_114.txt.gz
Wind_Speed
18 19 20 18 18 18 21 21 18 19 17 14 14 13 12 10 9 8 10 10 11 12 12 12 11 11 11 10 10 11 10 10 11 10 10 12 13 13 14 12 13 14 5
20 18 19 18 19 22 24 23 20 18 22 18 15 15 16 13 12 10 11 12 11 12 12 13 13 12 11 12 12 11 10 11 10 9 11 13 15 15 14 12 10 7 1
23 19 19 20 21 23 22 20 21 20 21 22 21 18 17 17 14 12 12 13 12 11 12 14 12 12 13 12 12 11 11 13 11 10 10 12 15 16 15 13 10 7 5
25 25 23 23 25 23 21 17 20 20 22 22 20 21 19 17 17 15 13 13 13 12 13 13 12 12 12 12 12 11 11 14 12 11 9 11 14 15 14 11 10 8 7
25 29 30 29 27 25 23 23 21 21 23 24 21 20 20 18 17 17 16 15 14 12 12 13 15 12 11 11 10 11 13 13 13 12 10 11 12 13 12 10 10 8 8
27 30 31 33 31 29 28 26 27 24 23 23 25 22 21 18 17 18 19 17 15 14 12 11 14 11 11 11 12 13 12 14 15 13 12 12 12 13 12 11 11 9 11
29 30 32 34 34 34 32 31 29 29 27 25 25 25 22 20 17 17 18 19 16 15 14 12 12 13 12 12 13 13 13 14 15 13 11 14 12 11 11 11 10 12 13
31 33 34 35 34 34 34 34 34 31 29 29 26 25 26 24 18 16 17 19 18 16 16 14 13 13 12 11 13 13 14 14 13 12 9 11 12 11 11 12 13 14 14
33 33 32 35 35 35 35 36 36 34 32 30 30 30 27 27 24 18 17 18 18 17 18 16 14 14 13 12 13 14 14 14 13 12 10 10 12 13 14 16 16 16 15
35 36 36 34 36 35 36 38 36 36 36 34 32 31 28 27 26 22 18 20 18 19 19 17 15 14 13 13 13 14 13 14 15 14 12 12 13 13 17 18 18 17 17
38 38 38 35 36 38 38 38 38 37 32 31 30 27 26 24 24 24 20 19 20 19 21 19 17 16 15 14 13 14 14 14 17 17 15 15 15 17 17 21 21 19 19
42 42 41 38 37 38 39 38 37 34 31 26 24 26 25 26 26 28 24 22 21 20 21 21 20 18 16 15 15 15 16 16 18 21 18 18 17 17 22 23 20 21 21
44 43 44 42 40 41 40 40 38 34 32 27 23 24 30 29 29 29 28 25 24 23 22 22 22 21 19 18 18 18 19 19 22 24 23 24 24 22 20 21 22 23 23
48 47 47 47 45 43 43 41 40 37 33 29 26 26 27 28 31 32 29 28 28 25 24 24 24 23 21 21 20 21 23 23 25 24 25 29 28 24 23 23 24 25 24
49 51 51 51 50 48 47 43 40 39 37 32 31 26 26 27 30 34 33 31 30 29 26 26 25 24 24 22 21 23 25 25 24 23 26 31 31 26 25 24 28 30 26
49 51 52 52 52 52 47 46 41 41 41 35 33 31 32 32 30 33 36 32 33 33 29 27 26 25 23 22 22 23 26 23 19 16 15 24 34 34 28 31 25 37 30
48 50 52 53 54 52 50 48 47 43 43 41 38 36 34 34 34 33 33 32 34 37 33 28 28 26 25 23 22 23 23 20 18 19 21 23 26 33 35 35 27 33 37
47 48 50 53 53 54 54 52 48 48 47 45 44 41 40 37 36 37 33 33 34 40 39 31 28 29 27 24 22 22 21 18 20 23 23 22 26 29 32 37 34 36 41
50 49 48 49 49 52 54 56 53 51 49 48 45 43 46 40 36 39 37 36 34 37 41 37 30 29 29 26 23 20 20 19 21 23 22 21 24 28 29 35 39 37 35
52 53 52 52 51 51 52 54 54 56 54 51 50 49 48 44 39 39 40 42 39 38 39 40 32 31 31 28 26 20 19 20 21 23 24 23 25 25 25 28 21 37 36
56 56 57 57 59 57 56 55 53 52 54 53 52 51 48 46 44 43 43 45 45 38 37 40 36 34 30 31 30 23 21 21 22 24 24 24 26 22 26 31 40 28 31
57 58 59 59 60 60 59 59 57 54 54 54 51 51 52 48 47 46 45 45 46 39 40 39 39 37 34 31 32 27 23 23 23 25 25 23 23 24 23 28 28 22 35
59 60 61 63 63 64 64 65 63 61 59 56 51 49 51 47 47 49 47 44 43 49 43 42 41 39 38 33 33 31 26 24 25 25 25 25 24 26 23 28 21 19 26
64 65 67 69 71 73 74 73 72 67 64 58 54 51 54 47 48 49 47 48 51 54 49 44 41 40 42 35 36 28 30 29 25 24 26 25 27 24 24 22 20 21 27
68 71 73 75 78 78 80 82 81 77 71 67 64 56 52 52 49 49 52 52 54 53 50 45 41 42 41 38 34 34 32 30 27 27 25 26 28 28 26 29 24 25 28
77 79 82 84 85 87 87 83 85 84 80 78 72 63 60 59 51 46 56 53 53 52 51 46 42 44 42 41 36 35 33 33 31 30 28 29 26 27 30 31 30 26 33

GFSSE_500_spd_117.txt.gz
Wind_Speed
24 20 22 19 18 18 18 18 20 18 18 19 16 16 15 12 9 8 8 8 8 7 7 8 10 11 12 12 12 12 12 12 12 14 14 13 14 16 16 15 13 13 11
23 19 20 23 21 19 19 19 19 22 18 19 21 18 15 16 14 11 10 9 9 8 8 9 10 11 11 13 13 12 12 12 14 14 14 13 15 16 15 14 13 9 6
21 21 20 22 22 20 20 19 18 15 15 18 19 20 18 17 17 15 13 12 10 9 9 9 10 11 12 13 12 14 12 12 15 14 14 13 15 16 16 16 12 9 7
22 21 22 22 22 24 24 21 18 19 18 19 20 19 19 18 18 17 16 15 12 10 10 9 10 11 14 13 12 12 13 14 15 15 14 13 13 14 15 15 11 10 8
24 24 25 25 26 27 27 25 23 21 19 21 23 22 20 20 18 17 17 17 15 13 11 11 10 9 11 11 11 13 14 14 15 16 15 14 12 14 15 14 11 9 10
27 26 27 27 27 27 28 26 25 25 24 23 23 24 23 21 20 18 18 17 16 16 13 13 12 9 9 10 11 12 13 14 15 16 17 14 13 13 13 12 11 10 11
29 27 28 29 28 29 29 30 30 27 27 26 25 24 24 24 23 20 19 17 17 17 16 15 13 11 11 10 11 11 11 14 14 15 16 14 11 10 11 12 12 12 14
32 29 29 31 32 32 31 28 27 30 29 28 27 26 25 24 25 24 20 19 18 18 17 16 15 13 12 11 10 10 11 14 13 14 15 12 12 9 11 13 13 13 15
34 32 32 31 33 33 32 30 29 30 31 29 28 29 30 29 27 27 24 20 20 19 18 18 17 15 13 13 10 10 11 14 13 13 14 14 11 10 13 15 16 16 16
37 36 35 35 35 35 34 32 31 31 31 30 28 26 29 29 29 27 26 22 22 22 20 19 18 17 16 14 13 12 11 12 14 13 14 15 14 11 16 16 18 18 18
40 40 39 39 38 37 36 35 35 33 32 31 29 25 26 28 27 25 24 24 22 22 21 20 19 19 19 17 16 15 13 13 14 14 16 17 16 15 15 16 23 22 20
42 43 43 43 41 40 38 39 38 37 34 32 29 26 26 27 28 25 23 25 26 24 25 22 20 20 21 20 17 18 17 16 15 17 17 21 22 19 16 21 19 20 22
45 45 45 46 46 44 42 41 41 41 35 34 29 27 25 26 28 31 30 28 27 27 25 24 24 24 23 22 21 20 20 19 19 20 20 23 24 25 20 19 24 23 22
48 48 48 49 48 47 46 44 42 43 39 35 32 29 28 27 28 29 30 29 29 28 28 26 25 24 24 24 23 22 21 20 21 22 21 24 26 28 26 20 21 25 25
48 49 50 49 49 49 50 48 48 48 47 40 35 31 30 30 30 27 27 30 30 29 31 29 27 25 25 26 26 22 21 22 22 23 20 21 24 29 30 26 24 28 28
45 47 48 51 51 52 52 49 47 50 48 45 43 34 32 31 32 32 28 29 30 29 31 33 28 27 25 26 26 24 21 21 22 22 17 14 14 17 24 31 28 30 26
47 48 50 50 53 53 50 48 49 49 48 45 42 42 38 36 33 33 29 30 30 30 29 31 32 28 27 25 26 24 23 21 20 21 19 17 21 22 25 27 32 40 35
50 51 50 51 50 52 54 53 51 51 49 48 45 44 44 41 38 38 32 32 35 32 30 31 35 33 28 27 25 24 23 21 20 20 20 21 24 23 26 30 28 39 47
50 51 50 48 49 51 54 55 54 54 54 51 48 47 46 44 42 42 35 33 37 37 33 32 33 35 32 30 28 25 23 22 21 20 22 22 23 24 26 29 32 37 32
50 53 55 53 52 52 53 54 55 56 56 56 51 48 48 47 44 42 41 37 37 37 34 37 34 35 35 31 32 26 24 23 22 22 23 23 23 26 28 26 25 28 26
55 55 57 58 57 56 55 55 55 57 58 57 54 48 50 49 47 45 45 41 38 37 37 38 40 34 37 32 34 29 28 24 22 23 24 25 23 28 27 22 23 27 29
58 60 59 60 62 63 63 61 60 58 59 58 56 55 52 52 49 49 46 44 41 41 41 39 39 38 36 36 34 35 30 27 23 25 24 27 23 29 27 25 25 23 24
58 60 60 62 63 64 66 65 64 63 62 62 57 55 54 52 49 47 44 45 46 44 43 41 38 39 35 37 38 37 34 29 31 25 24 28 27 27 30 25 24 22 28
58 59 60 62 65 67 67 66 65 65 64 62 61 57 56 52 49 49 49 44 48 44 42 41 41 42 46 38 42 38 36 37 34 30 23 26 31 28 28 26 23 23 21
60 61 61 62 65 67 69 69 69 69 69 68 66 63 59 56 55 54 51 48 49 46 43 44 46 45 47 43 42 43 39 39 36 32 28 26 30 30 30 26 25 26 28
56 59 60 63 65 69 72 75 76 76 75 75 73 71 68 66 59 59 54 51 51 49 49 47 48 47 47 46 42 44 42 39 37 36 33 31 30 28 31 30 27 27 26

GFSSE_500_spd_120.txt.gz
Wind_Speed
21 24 22 23 22 21 21 18 17 17 18 18 17 15 14 16 15 15 14 12 10 9 8 7 7 8 9 10 12 13 13 13 12 14 14 17 18 19 19 16 15 13 12
22 23 21 21 21 22 22 16 17 16 15 15 16 16 17 16 15 16 16 15 13 10 8 8 8 7 9 10 11 12 14 13 14 15 15 16 17 18 18 16 14 13 9
23 21 18 20 21 22 20 18 19 15 16 17 17 17 17 17 15 16 17 16 16 13 10 10 10 7 7 9 11 11 11 14 15 15 15 15 17 17 16 16 14 10 8
26 22 19 20 20 20 21 22 21 18 18 20 21 22 20 18 16 16 17 18 16 16 14 12 11 10 7 6 8 10 12 14 16 16 15 15 15 15 15 16 12 10 8
28 23 21 22 22 23 23 24 23 21 19 19 21 22 24 23 20 18 18 18 18 16 17 15 13 12 10 8 8 9 12 13 17 19 17 13 13 14 16 16 11 9 8
29 28 25 25 25 25 26 26 26 24 22 22 22 21 21 22 23 22 20 18 20 19 18 17 15 13 10 9 9 9 11 11 16 21 7 14 12 11 14 13 11 10 10
31 29 28 27 29 28 28 28 27 25 25 24 23 23 23 22 21 21 21 21 19 21 20 18 16 14 11 11 10 9 10 9 12 6 20 14 10 9 11 10 11 11 12
32 31 30 29 31 31 30 31 30 27 27 26 25 24 24 24 23 23 22 22 21 19 21 21 18 15 13 13 12 11 10 10 11 13 18 15 10 9 10 10 12 11 13
33 33 32 31 33 33 33 32 30 30 30 29 27 25 25 26 26 25 23 23 24 21 21 22 22 18 15 14 13 12 12 12 13 11 17 16 11 8 11 12 14 14 15
38 37 36 36 36 35 35 35 34 33 32 31 28 26 25 25 26 25 23 21 22 22 21 23 23 21 18 16 14 14 14 13 11 16 20 11 15 9 9 13 14 17 17
39 40 40 39 38 38 38 37 37 36 35 33 31 29 27 26 27 26 26 22 18 19 22 22 20 21 20 18 17 16 15 14 12 17 19 19 19 16 10 13 15 18 22
40 42 43 42 42 41 41 40 39 40 37 36 35 31 28 26 26 27 26 24 21 19 20 21 26 23 21 20 21 20 18 17 15 16 16 19 22 20 14 13 16 21 19
45 42 43 45 46 45 43 42 41 40 39 39 38 35 31 27 25 26 27 26 26 24 21 20 21 23 24 25 25 24 22 19 19 18 18 23 24 24 21 16 18 20 22
45 47 43 45 47 49 46 45 40 41 41 41 42 39 34 31 27 26 27 28 28 28 23 19 21 22 24 24 26 29 25 22 22 19 19 23 25 26 26 23 20 21 22
48 48 47 44 46 48 49 49 45 40 40 44 44 42 37 34 32 31 29 28 28 26 27 21 22 23 25 25 24 25 27 25 25 21 17 23 23 21 21 24 23 23 25
44 44 46 47 47 47 49 50 48 42 45 43 45 43 39 33 34 32 33 30 29 28 28 25 21 24 24 25 25 25 26 26 25 23 20 22 18 18 17 20 20 19 26
46 44 46 48 48 49 49 50 50 48 49 50 47 44 39 37 33 36 34 32 32 30 29 28 21 23 24 23 24 26 26 26 25 24 21 21 19 20 21 22 24 27 26
49 48 46 46 46 47 47 49 50 49 50 55 48 47 39 37 39 37 36 35 35 35 32 34 24 22 24 23 23 25 26 26 25 24 24 20 21 21 21 22 25 29 31
46 48 49 49 48 48 52 52 51 50 50 49 56 45 46 41 42 41 37 36 37 38 34 33 31 25 26 25 23 23 25 26 25 23 23 23 21 22 19 22 25 30 32
51 51 52 52 52 50 51 51 52 52 53 52 53 55 51 48 45 45 43 37 38 40 35 30 34 31 27 30 25 25 25 26 26 23 24 23 24 24 19 21 24 26 27
53 54 54 55 56 54 54 54 54 55 56 56 56 54 54 53 51 48 47 45 36 41 40 36 34 37 31 31 30 26 26 26 27 25 25 25 25 24 26 23 23 23 24
55 54 54 56 57 58 58 58 58 56 56 56 56 57 58 57 54 54 52 48 44 41 42 42 37 38 36 34 33 30 27 28 25 28 29 27 28 25 24 27 22 23 23
56 56 55 55 57 58 59 60 63 62 61 60 57 55 55 58 56 59 55 52 48 45 44 44 41 41 40 38 35 33 29 30 33 30 30 28 31 29 28 28 23 22 22
57 58 58 57 56 60 63 63 64 65 65 64 65 64 62 59 59 56 54 52 51 47 46 44 41 41 45 41 39 36 34 34 33 33 33 30 31 31 32 32 30 23 22
50 52 55 58 60 60 62 65 66 66 67 66 67 67 65 64 61 60 59 55 53 53 53 46 41 42 44 44 39 39 39 35 35 36 34 32 32 30 31 34 33 27 24
47 49 51 51 51 54 63 64 64 67 68 68 68 69 66 64 61 60 61 57 56 52 55 52 42 41 45 46 44 44 42 39 36 39 40 35 36 31 33 31 35 31 29

GFSSE_500_spd_123.txt.gz
Wind_Speed
22 22 22 22 22 20 19 18 17 15 15 14 14 12 11 12 14 16 17 16 15 14 13 11 10 9 6 8 8 8 9 11 12 14 16 15 16 18 19 17 14 13 9
18 21 20 21 20 20 20 17 14 15 15 13 15 16 15 14 14 15 16 17 17 16 17 14 13 10 9 8 8 9 9 11 13 15 15 15 15 15 17 17 15 12 10
19 20 20 21 20 20 21 20 16 18 16 16 16 17 18 17 17 16 14 15 18 18 18 17 16 12 10 10 9 9 9 10 14 16 13 14 15 14 14 14 13 12 9
26 22 22 21 22 22 22 22 21 21 20 19 19 20 22 21 20 18 17 15 15 16 19 19 18 15 11 10 10 11 10 11 15 13 13 13 12 13 12 11 11 11 9
26 25 26 24 23 22 22 22 22 22 22 21 21 20 20 21 22 22 20 17 15 15 17 19 19 17 14 11 11 12 12 13 14 12 15 14 11 10 10 11 11 10 8
30 26 28 27 26 25 24 25 25 26 24 23 22 23 23 24 23 21 20 20 18 17 17 18 19 18 16 13 13 12 13 13 14 9 6 12 11 7 8 9 9 10 10
32 28 30 28 28 28 27 28 27 27 26 26 24 24 26 25 25 24 22 22 22 20 17 18 18 19 16 13 15 13 14 13 14 3 10 9 10 7 7 6 7 9 10
30 31 30 30 30 30 30 30 31 30 29 28 27 27 27 26 26 25 22 21 22 23 20 16 18 18 17 16 14 15 15 14 13 13 10 10 10 7 6 6 7 9 10
29 31 31 32 32 33 33 33 32 30 30 29 29 29 28 27 26 25 22 20 18 19 19 18 16 17 18 19 17 15 16 16 16 14 6 15 13 11 6 8 8 11 13
34 33 33 34 35 35 35 36 36 35 33 32 31 30 28 28 27 26 25 21 17 16 17 16 15 16 15 18 19 18 17 16 17 16 14 11 17 17 10 9 11 12 15
36 38 37 36 38 37 38 38 38 39 36 36 34 32 30 29 29 28 27 23 19 16 15 16 16 16 14 12 18 20 19 18 16 15 15 13 15 19 19 11 12 13 15
42 39 41 41 41 41 40 40 41 40 38 37 36 34 31 30 29 28 27 27 23 19 17 19 19 19 17 16 16 20 22 21 20 19 16 16 16 18 22 17 16 17 17
43 42 42 43 43 44 44 43 42 42 40 39 37 35 31 31 30 29 29 27 28 22 20 19 19 20 19 17 17 21 23 24 23 24 21 19 19 18 22 21 20 20 21
42 46 45 46 46 45 47 44 44 43 43 43 40 36 34 33 31 29 30 30 26 26 24 20 19 21 23 20 18 18 22 27 27 26 25 23 23 21 23 20 18 18 21
44 46 47 47 47 47 46 48 46 46 45 43 44 43 42 38 34 29 30 31 30 28 29 25 22 22 22 24 21 18 18 22 25 26 26 25 22 22 23 17 14 14 15
44 43 44 45 48 49 49 50 49 49 46 47 45 46 42 44 36 29 30 30 31 30 31 31 27 23 24 23 24 21 18 20 22 25 27 27 24 23 23 20 19 19 19
45 42 44 43 43 45 44 47 51 49 47 45 47 52 52 47 43 34 34 33 30 31 32 30 29 28 24 24 22 21 19 20 22 23 25 27 25 24 22 21 21 22 21
45 44 45 46 44 44 42 44 45 47 48 49 47 46 47 54 42 40 36 33 31 31 33 35 32 31 29 26 25 21 20 20 21 24 24 26 26 23 21 24 24 22 23
47 47 43 46 50 48 49 50 50 50 50 49 47 48 49 45 50 44 38 36 35 35 33 33 37 37 36 29 28 27 19 20 22 24 25 24 25 22 22 24 25 26 24
52 52 48 49 52 53 51 52 54 53 54 54 53 50 52 52 56 54 40 42 37 38 34 36 34 38 40 37 31 27 27 21 19 22 25 25 26 23 21 23 25 25 25
57 60 60 57 54 55 56 54 54 56 55 55 55 54 53 52 48 47 50 51 45 40 37 39 38 37 42 39 38 27 28 28 21 21 25 26 25 24 22 22 26 25 24
53 56 57 61 60 56 57 59 57 56 56 57 57 55 55 55 55 59 54 54 43 43 44 45 43 41 42 45 40 35 29 30 25 24 27 27 26 26 24 24 24 27 24
53 53 56 57 57 58 59 58 57 57 57 59 59 59 58 59 58 57 57 59 56 48 47 49 50 49 42 47 46 39 34 27 28 32 31 30 28 27 27 25 27 27 24
49 48 51 56 57 57 57 58 58 57 55 58 60 60 61 60 61 61 58 56 59 49 53 48 52 54 50 48 50 42 35 31 30 33 30 31 31 28 28 29 28 29 26
54 52 52 51 54 58 58 58 57 58 58 58 61 62 63 64 64 63 62 56 58 59 57 60 60 55 55 50 49 45 37 35 31 34 29 30 34 28 30 31 29 28 30
54 53 52 51 50 52 54 56 56 57 59 60 63 64 66 66 67 67 66 66 61 59 58 60 59 68 64 55 53 49 37 37 31 36 32 31 32 28 32 34 31 28 32

GFSSE_500_spd_126.txt.gz
Wind_Speed
25 24 23 21 20 20 20 18 16 13 13 13 13 13 12 10 12 14 15 16 15 15 16 17 17 16 15 13 12 13 12 14 13 13 13 15 16 16 16 14 12 9 7
19 21 21 21 20 20 21 20 18 14 14 15 15 16 16 15 13 13 14 15 17 16 16 17 17 18 17 16 16 15 16 14 14 15 13 14 14 14 15 12 11 8 7
19 21 22 22 24 23 23 22 20 18 17 18 17 17 18 19 19 18 17 16 16 16 18 19 19 19 18 17 17 16 17 16 15 15 11 13 15 14 15 12 9 9 6
24 22 23 23 25 25 26 26 24 22 21 20 20 19 20 20 20 19 19 18 16 16 17 18 20 21 19 19 17 17 17 15 16 13 12 15 13 15 13 11 8 7 6
23 23 24 23 24 26 27 27 26 24 23 22 22 20 21 21 20 21 21 19 16 15 17 19 20 21 21 20 18 18 16 16 17 12 10 7 13 16 15 11 8 6 6
24 26 26 24 25 26 27 28 28 28 27 25 25 24 24 24 24 24 22 21 19 17 17 19 20 20 21 21 20 17 15 16 17 14 11 8 10 10 12 11 8 6 8
30 30 28 29 27 28 27 28 28 29 29 29 27 27 26 26 26 26 26 22 20 20 18 17 19 21 21 21 19 18 17 16 16 11 7 12 9 10 12 12 7 7 9
30 31 31 33 30 29 30 29 31 31 29 31 29 28 28 28 27 27 27 24 22 20 19 17 17 19 21 20 21 20 20 18 16 12 9 11 9 7 9 13 9 9 10
31 34 33 32 34 32 31 32 32 32 31 31 30 30 30 29 29 28 27 25 22 20 19 18 17 18 20 21 21 22 21 19 17 13 10 10 7 8 8 13 15 11 12
32 34 36 34 36 36 35 35 35 34 33 33 33 33 32 32 32 29 28 26 24 18 19 17 16 17 18 20 20 21 22 19 18 18 12 14 11 11 6 12 15 15 13
33 39 34 39 38 39 39 39 39 37 37 36 35 34 34 33 34 32 29 26 24 20 19 18 17 17 17 21 20 18 20 20 19 19 15 13 13 7 11 11 15 17 17
42 41 45 38 39 40 42 42 41 42 40 40 38 37 36 36 35 33 30 29 27 23 20 19 20 21 19 20 22 22 20 21 22 21 19 17 17 15 14 15 15 18 19
37 43 47 47 43 42 43 44 43 44 45 44 41 40 39 38 35 32 31 31 30 27 26 21 21 19 19 21 23 22 20 23 23 22 23 20 20 19 16 17 19 17 17
36 37 28 43 43 40 42 46 45 46 46 46 45 43 44 42 37 33 32 30 31 31 30 27 22 18 19 20 23 24 23 21 25 28 28 23 21 22 18 19 21 18 14
36 34 33 33 35 38 42 44 47 49 49 50 48 47 47 45 39 37 33 31 29 31 32 32 29 23 20 20 21 26 25 21 24 27 26 25 24 25 20 18 20 19 14
41 38 37 39 36 36 39 41 44 44 50 52 55 56 54 53 49 46 42 34 33 30 29 31 33 29 26 23 21 22 24 24 23 26 26 24 23 24 23 21 20 21 19
43 42 42 39 37 36 41 42 43 44 44 48 53 53 54 61 56 51 49 43 35 33 32 32 30 33 30 24 22 25 22 23 25 26 27 26 24 24 24 22 21 21 21
46 41 40 42 41 40 40 44 46 48 47 46 49 54 57 59 63 53 54 51 40 38 37 34 32 30 32 29 26 26 24 24 28 27 27 27 26 26 26 25 22 22 21
52 50 47 42 47 50 50 46 50 51 51 53 52 53 54 51 56 36 53 57 54 41 40 37 35 33 34 31 30 31 28 24 27 29 28 29 27 26 27 26 25 24 23
52 50 49 48 49 56 58 58 52 56 56 57 57 58 55 53 53 53 57 71 46 54 48 40 37 37 36 34 34 32 32 29 28 28 28 30 29 28 26 27 27 25 24
64 52 48 49 52 56 63 65 64 55 61 62 62 61 61 54 53 51 52 56 67 61 49 36 43 42 40 38 38 35 34 33 33 28 28 29 31 30 27 27 29 25 24
55 54 54 52 53 56 57 68 69 65 59 64 65 66 65 63 56 55 55 56 50 56 46 50 51 45 42 39 41 39 39 36 33 31 28 30 32 34 30 28 29 28 27
50 52 53 56 56 56 60 64 69 68 66 63 67 68 67 65 63 59 57 58 68 60 53 53 47 50 44 44 45 46 44 40 34 34 34 31 31 30 32 31 30 30 29
49 52 53 55 57 55 55 62 68 67 68 68 63 68 67 66 65 63 62 60 62 60 55 55 48 47 48 51 49 48 42 44 40 36 37 33 31 30 28 33 31 32 31
49 51 54 56 58 61 62 60 59 62 65 67 66 63 66 67 67 65 65 64 63 61 58 56 50 58 57 58 57 52 47 47 46 40 38 34 32 30 30 32 32 31 31
51 52 55 58 60 61 61 59 59 56 58 63 64 66 66 66 65 66 67 67 67 65 64 62 59 54 55 61 57 57 58 54 50 48 42 37 34 33 31 30 32 31 31